<?xml version="1.0" encoding="UTF-8" standalone="no" ?>
<gpx xmlns="http://www.topografix.com/GPX/1/1" xmlns:xsi="http://www.w3.org/2001/XMLSchema-instance" xsi:schemaLocation="http://www.topografix.com/GPX/1/1 http://www.topografix.com/GPX/1/1/gpx.xsd" version="1.1" creator="VisuGPX - https://www.visugpx.com">
  <metadata>
    <name>mont dore : tour du village par les cimes</name>
    <desc><![CDATA[Belle randonnée sportive

Pic des Courcettes, Puy du Sancy, Puy Ferrand, Roc Cuzeau]]></desc>
  </metadata>
  <trk>
    <name><![CDATA[ACTIVE LOG080611]]></name>
    <trkseg>
      <trkpt lat="45.56504" lon="2.81254">
        <ele>1089.764</ele>
        <time>2013-07-17T06:08:18Z</time>
      </trkpt>
      <trkpt lat="45.56424" lon="2.8128">
        <ele>1087.92</ele>
        <time>2013-07-17T06:08:35Z</time>
      </trkpt>
      <trkpt lat="45.56447" lon="2.81235">
        <ele>1085.486</ele>
        <time>2013-07-17T06:08:56Z</time>
      </trkpt>
      <trkpt lat="45.56448" lon="2.81234">
        <ele>1085.407</ele>
        <time>2013-07-17T06:08:57Z</time>
      </trkpt>
      <trkpt lat="45.56456" lon="2.81222">
        <ele>1084.421</ele>
        <time>2013-07-17T06:09:05Z</time>
      </trkpt>
      <trkpt lat="45.56462" lon="2.81216">
        <ele>1084.12</ele>
        <time>2013-07-17T06:09:10Z</time>
      </trkpt>
      <trkpt lat="45.56514" lon="2.81179">
        <ele>1082.291</ele>
        <time>2013-07-17T06:09:28Z</time>
      </trkpt>
      <trkpt lat="45.56536" lon="2.81171">
        <ele>1081.116</ele>
        <time>2013-07-17T06:09:43Z</time>
      </trkpt>
      <trkpt lat="45.56546" lon="2.81171">
        <ele>1080.754</ele>
        <time>2013-07-17T06:09:51Z</time>
      </trkpt>
      <trkpt lat="45.56552" lon="2.81171">
        <ele>1080.476</ele>
        <time>2013-07-17T06:09:55Z</time>
      </trkpt>
      <trkpt lat="45.56575" lon="2.81165">
        <ele>1079.218</ele>
        <time>2013-07-17T06:10:14Z</time>
      </trkpt>
      <trkpt lat="45.56587" lon="2.81162">
        <ele>1078.138</ele>
        <time>2013-07-17T06:10:25Z</time>
      </trkpt>
      <trkpt lat="45.566" lon="2.81168">
        <ele>1076.671</ele>
        <time>2013-07-17T06:10:40Z</time>
      </trkpt>
      <trkpt lat="45.56602" lon="2.81171">
        <ele>1076.566</ele>
        <time>2013-07-17T06:10:42Z</time>
      </trkpt>
      <trkpt lat="45.5661" lon="2.81174">
        <ele>1076.235</ele>
        <time>2013-07-17T06:10:46Z</time>
      </trkpt>
      <trkpt lat="45.56631" lon="2.81173">
        <ele>1074.655</ele>
        <time>2013-07-17T06:11:00Z</time>
      </trkpt>
      <trkpt lat="45.56637" lon="2.81174">
        <ele>1074.053</ele>
        <time>2013-07-17T06:11:05Z</time>
      </trkpt>
      <trkpt lat="45.56653" lon="2.81173">
        <ele>1072.644</ele>
        <time>2013-07-17T06:11:18Z</time>
      </trkpt>
      <trkpt lat="45.56657" lon="2.81171">
        <ele>1072.647</ele>
        <time>2013-07-17T06:11:21Z</time>
      </trkpt>
      <trkpt lat="45.56657" lon="2.81166">
        <ele>1072.15</ele>
        <time>2013-07-17T06:11:26Z</time>
      </trkpt>
      <trkpt lat="45.56663" lon="2.81154">
        <ele>1071.218</ele>
        <time>2013-07-17T06:11:34Z</time>
      </trkpt>
      <trkpt lat="45.56681" lon="2.8115">
        <ele>1069.733</ele>
        <time>2013-07-17T06:11:48Z</time>
      </trkpt>
      <trkpt lat="45.56704" lon="2.81148">
        <ele>1068.303</ele>
        <time>2013-07-17T06:12:03Z</time>
      </trkpt>
      <trkpt lat="45.56714" lon="2.81155">
        <ele>1067.775</ele>
        <time>2013-07-17T06:12:12Z</time>
      </trkpt>
      <trkpt lat="45.56733" lon="2.81173">
        <ele>1066.533</ele>
        <time>2013-07-17T06:12:28Z</time>
      </trkpt>
      <trkpt lat="45.5675" lon="2.81193">
        <ele>1065.624</ele>
        <time>2013-07-17T06:12:45Z</time>
      </trkpt>
      <trkpt lat="45.5677" lon="2.812">
        <ele>1065.32</ele>
        <time>2013-07-17T06:13:00Z</time>
      </trkpt>
      <trkpt lat="45.56791" lon="2.81188">
        <ele>1065.077</ele>
        <time>2013-07-17T06:13:17Z</time>
      </trkpt>
      <trkpt lat="45.56796" lon="2.81188">
        <ele>1064.979</ele>
        <time>2013-07-17T06:13:24Z</time>
      </trkpt>
      <trkpt lat="45.56799" lon="2.81189">
        <ele>1064.712</ele>
        <time>2013-07-17T06:13:28Z</time>
      </trkpt>
      <trkpt lat="45.568" lon="2.81182">
        <ele>1064.923</ele>
        <time>2013-07-17T06:13:31Z</time>
      </trkpt>
      <trkpt lat="45.56805" lon="2.81178">
        <ele>1064.266</ele>
        <time>2013-07-17T06:13:37Z</time>
      </trkpt>
      <trkpt lat="45.56807" lon="2.81171">
        <ele>1062.762</ele>
        <time>2013-07-17T06:13:42Z</time>
      </trkpt>
      <trkpt lat="45.56806" lon="2.81164">
        <ele>1061.066</ele>
        <time>2013-07-17T06:13:48Z</time>
      </trkpt>
      <trkpt lat="45.56799" lon="2.81152">
        <ele>1060.109</ele>
        <time>2013-07-17T06:13:59Z</time>
      </trkpt>
      <trkpt lat="45.56795" lon="2.81137">
        <ele>1060.471</ele>
        <time>2013-07-17T06:14:06Z</time>
      </trkpt>
      <trkpt lat="45.56796" lon="2.81131">
        <ele>1060.421</ele>
        <time>2013-07-17T06:14:11Z</time>
      </trkpt>
      <trkpt lat="45.5681" lon="2.81111">
        <ele>1059.232</ele>
        <time>2013-07-17T06:14:28Z</time>
      </trkpt>
      <trkpt lat="45.56831" lon="2.81092">
        <ele>1058.534</ele>
        <time>2013-07-17T06:14:44Z</time>
      </trkpt>
      <trkpt lat="45.56847" lon="2.81078">
        <ele>1059.634</ele>
        <time>2013-07-17T06:14:58Z</time>
      </trkpt>
      <trkpt lat="45.56866" lon="2.8106">
        <ele>1059.739</ele>
        <time>2013-07-17T06:15:13Z</time>
      </trkpt>
      <trkpt lat="45.5688" lon="2.81047">
        <ele>1058.896</ele>
        <time>2013-07-17T06:15:26Z</time>
      </trkpt>
      <trkpt lat="45.56893" lon="2.81032">
        <ele>1058.867</ele>
        <time>2013-07-17T06:15:42Z</time>
      </trkpt>
      <trkpt lat="45.56892" lon="2.81004">
        <ele>1061.499</ele>
        <time>2013-07-17T06:16:01Z</time>
      </trkpt>
      <trkpt lat="45.56886" lon="2.80984">
        <ele>1064.321</ele>
        <time>2013-07-17T06:16:21Z</time>
      </trkpt>
      <trkpt lat="45.56887" lon="2.80972">
        <ele>1067.492</ele>
        <time>2013-07-17T06:16:34Z</time>
      </trkpt>
      <trkpt lat="45.56879" lon="2.80963">
        <ele>1070.636</ele>
        <time>2013-07-17T06:16:50Z</time>
      </trkpt>
      <trkpt lat="45.56885" lon="2.80955">
        <ele>1073.07</ele>
        <time>2013-07-17T06:17:03Z</time>
      </trkpt>
      <trkpt lat="45.56888" lon="2.80948">
        <ele>1074.116</ele>
        <time>2013-07-17T06:17:07Z</time>
      </trkpt>
      <trkpt lat="45.5689" lon="2.80943">
        <ele>1074.922</ele>
        <time>2013-07-17T06:17:12Z</time>
      </trkpt>
      <trkpt lat="45.56884" lon="2.80939">
        <ele>1078.721</ele>
        <time>2013-07-17T06:17:17Z</time>
      </trkpt>
      <trkpt lat="45.56884" lon="2.80939">
        <ele>1079.399</ele>
        <time>2013-07-17T06:17:18Z</time>
      </trkpt>
      <trkpt lat="45.56881" lon="2.80936">
        <ele>1083.216</ele>
        <time>2013-07-17T06:17:23Z</time>
      </trkpt>
      <trkpt lat="45.56878" lon="2.80934">
        <ele>1086.399</ele>
        <time>2013-07-17T06:17:29Z</time>
      </trkpt>
      <trkpt lat="45.56874" lon="2.80927">
        <ele>1089.834</ele>
        <time>2013-07-17T06:17:35Z</time>
      </trkpt>
      <trkpt lat="45.56874" lon="2.80921">
        <ele>1092.363</ele>
        <time>2013-07-17T06:17:41Z</time>
      </trkpt>
      <trkpt lat="45.56877" lon="2.80908">
        <ele>1095.928</ele>
        <time>2013-07-17T06:17:55Z</time>
      </trkpt>
      <trkpt lat="45.56873" lon="2.80903">
        <ele>1097.692</ele>
        <time>2013-07-17T06:18:03Z</time>
      </trkpt>
      <trkpt lat="45.5687" lon="2.80897">
        <ele>1101.09</ele>
        <time>2013-07-17T06:18:19Z</time>
      </trkpt>
      <trkpt lat="45.56873" lon="2.80891">
        <ele>1104.209</ele>
        <time>2013-07-17T06:18:40Z</time>
      </trkpt>
      <trkpt lat="45.5688" lon="2.80879">
        <ele>1107.3</ele>
        <time>2013-07-17T06:18:53Z</time>
      </trkpt>
      <trkpt lat="45.56898" lon="2.80866">
        <ele>1109.282</ele>
        <time>2013-07-17T06:19:06Z</time>
      </trkpt>
      <trkpt lat="45.56901" lon="2.80862">
        <ele>1110.087</ele>
        <time>2013-07-17T06:19:10Z</time>
      </trkpt>
      <trkpt lat="45.56912" lon="2.80856">
        <ele>1112.65</ele>
        <time>2013-07-17T06:19:30Z</time>
      </trkpt>
      <trkpt lat="45.56923" lon="2.80839">
        <ele>1114.928</ele>
        <time>2013-07-17T06:19:47Z</time>
      </trkpt>
      <trkpt lat="45.56928" lon="2.80831">
        <ele>1113.601</ele>
        <time>2013-07-17T06:19:56Z</time>
      </trkpt>
      <trkpt lat="45.56934" lon="2.80816">
        <ele>1112.074</ele>
        <time>2013-07-17T06:20:10Z</time>
      </trkpt>
      <trkpt lat="45.5694" lon="2.80815">
        <ele>1112.589</ele>
        <time>2013-07-17T06:20:17Z</time>
      </trkpt>
      <trkpt lat="45.56966" lon="2.80807">
        <ele>1113.741</ele>
        <time>2013-07-17T06:20:34Z</time>
      </trkpt>
      <trkpt lat="45.56971" lon="2.80806">
        <ele>1114.024</ele>
        <time>2013-07-17T06:20:37Z</time>
      </trkpt>
      <trkpt lat="45.56987" lon="2.80801">
        <ele>1114.919</ele>
        <time>2013-07-17T06:20:46Z</time>
      </trkpt>
      <trkpt lat="45.56996" lon="2.808">
        <ele>1116.219</ele>
        <time>2013-07-17T06:20:53Z</time>
      </trkpt>
      <trkpt lat="45.57004" lon="2.80805">
        <ele>1119.255</ele>
        <time>2013-07-17T06:21:05Z</time>
      </trkpt>
      <trkpt lat="45.57003" lon="2.80815">
        <ele>1120.31</ele>
        <time>2013-07-17T06:21:20Z</time>
      </trkpt>
      <trkpt lat="45.5701" lon="2.80809">
        <ele>1123.504</ele>
        <time>2013-07-17T06:21:54Z</time>
      </trkpt>
      <trkpt lat="45.57036" lon="2.80794">
        <ele>1125.33</ele>
        <time>2013-07-17T06:22:14Z</time>
      </trkpt>
      <trkpt lat="45.57038" lon="2.80792">
        <ele>1125.621</ele>
        <time>2013-07-17T06:22:16Z</time>
      </trkpt>
      <trkpt lat="45.57048" lon="2.80781">
        <ele>1124.329</ele>
        <time>2013-07-17T06:22:31Z</time>
      </trkpt>
      <trkpt lat="45.57058" lon="2.80776">
        <ele>1121.113</ele>
        <time>2013-07-17T06:22:48Z</time>
      </trkpt>
      <trkpt lat="45.57082" lon="2.80741">
        <ele>1118.184</ele>
        <time>2013-07-17T06:23:10Z</time>
      </trkpt>
      <trkpt lat="45.57088" lon="2.80734">
        <ele>1117.883</ele>
        <time>2013-07-17T06:23:22Z</time>
      </trkpt>
      <trkpt lat="45.57085" lon="2.80717">
        <ele>1117.824</ele>
        <time>2013-07-17T06:23:37Z</time>
      </trkpt>
      <trkpt lat="45.57083" lon="2.80687">
        <ele>1117.507</ele>
        <time>2013-07-17T06:23:54Z</time>
      </trkpt>
      <trkpt lat="45.57087" lon="2.80662">
        <ele>1118.568</ele>
        <time>2013-07-17T06:24:06Z</time>
      </trkpt>
      <trkpt lat="45.57085" lon="2.80646">
        <ele>1118.416</ele>
        <time>2013-07-17T06:24:20Z</time>
      </trkpt>
      <trkpt lat="45.57093" lon="2.80633">
        <ele>1118.954</ele>
        <time>2013-07-17T06:24:39Z</time>
      </trkpt>
      <trkpt lat="45.57121" lon="2.80611">
        <ele>1120.026</ele>
        <time>2013-07-17T06:24:56Z</time>
      </trkpt>
      <trkpt lat="45.5713" lon="2.80597">
        <ele>1120.522</ele>
        <time>2013-07-17T06:25:08Z</time>
      </trkpt>
      <trkpt lat="45.57146" lon="2.8059">
        <ele>1120.987</ele>
        <time>2013-07-17T06:25:21Z</time>
      </trkpt>
      <trkpt lat="45.57159" lon="2.80567">
        <ele>1121.6</ele>
        <time>2013-07-17T06:25:40Z</time>
      </trkpt>
      <trkpt lat="45.57181" lon="2.80546">
        <ele>1122.66</ele>
        <time>2013-07-17T06:26:04Z</time>
      </trkpt>
      <trkpt lat="45.57193" lon="2.80536">
        <ele>1123.466</ele>
        <time>2013-07-17T06:26:15Z</time>
      </trkpt>
      <trkpt lat="45.57218" lon="2.80523">
        <ele>1124.668</ele>
        <time>2013-07-17T06:26:32Z</time>
      </trkpt>
      <trkpt lat="45.57227" lon="2.80535">
        <ele>1126.748</ele>
        <time>2013-07-17T06:26:48Z</time>
      </trkpt>
      <trkpt lat="45.57243" lon="2.8052">
        <ele>1129.171</ele>
        <time>2013-07-17T06:27:00Z</time>
      </trkpt>
      <trkpt lat="45.57246" lon="2.80512">
        <ele>1129.945</ele>
        <time>2013-07-17T06:27:04Z</time>
      </trkpt>
      <trkpt lat="45.57247" lon="2.80494">
        <ele>1132.812</ele>
        <time>2013-07-17T06:27:20Z</time>
      </trkpt>
      <trkpt lat="45.57242" lon="2.80483">
        <ele>1135.854</ele>
        <time>2013-07-17T06:27:36Z</time>
      </trkpt>
      <trkpt lat="45.57229" lon="2.8047">
        <ele>1138.714</ele>
        <time>2013-07-17T06:27:53Z</time>
      </trkpt>
      <trkpt lat="45.57218" lon="2.80463">
        <ele>1141.762</ele>
        <time>2013-07-17T06:28:10Z</time>
      </trkpt>
      <trkpt lat="45.57211" lon="2.80459">
        <ele>1143.563</ele>
        <time>2013-07-17T06:28:19Z</time>
      </trkpt>
      <trkpt lat="45.57195" lon="2.80459">
        <ele>1145.278</ele>
        <time>2013-07-17T06:28:33Z</time>
      </trkpt>
      <trkpt lat="45.57175" lon="2.80455">
        <ele>1148.428</ele>
        <time>2013-07-17T06:28:53Z</time>
      </trkpt>
      <trkpt lat="45.57159" lon="2.80452">
        <ele>1151.513</ele>
        <time>2013-07-17T06:29:13Z</time>
      </trkpt>
      <trkpt lat="45.57144" lon="2.80466">
        <ele>1153.791</ele>
        <time>2013-07-17T06:29:35Z</time>
      </trkpt>
      <trkpt lat="45.57136" lon="2.80484">
        <ele>1155.998</ele>
        <time>2013-07-17T06:29:52Z</time>
      </trkpt>
      <trkpt lat="45.57122" lon="2.80504">
        <ele>1158.377</ele>
        <time>2013-07-17T06:30:10Z</time>
      </trkpt>
      <trkpt lat="45.57115" lon="2.805">
        <ele>1160.014</ele>
        <time>2013-07-17T06:30:21Z</time>
      </trkpt>
      <trkpt lat="45.57114" lon="2.80499">
        <ele>1160.364</ele>
        <time>2013-07-17T06:30:23Z</time>
      </trkpt>
      <trkpt lat="45.57117" lon="2.8048">
        <ele>1163.238</ele>
        <time>2013-07-17T06:30:40Z</time>
      </trkpt>
      <trkpt lat="45.57119" lon="2.80467">
        <ele>1165.353</ele>
        <time>2013-07-17T06:30:53Z</time>
      </trkpt>
      <trkpt lat="45.57122" lon="2.80455">
        <ele>1168.253</ele>
        <time>2013-07-17T06:31:12Z</time>
      </trkpt>
      <trkpt lat="45.57132" lon="2.80432">
        <ele>1170.597</ele>
        <time>2013-07-17T06:31:28Z</time>
      </trkpt>
      <trkpt lat="45.57132" lon="2.80412">
        <ele>1173.603</ele>
        <time>2013-07-17T06:31:45Z</time>
      </trkpt>
      <trkpt lat="45.5714" lon="2.80385">
        <ele>1176.621</ele>
        <time>2013-07-17T06:32:06Z</time>
      </trkpt>
      <trkpt lat="45.57146" lon="2.80356">
        <ele>1179.727</ele>
        <time>2013-07-17T06:32:23Z</time>
      </trkpt>
      <trkpt lat="45.57143" lon="2.8035">
        <ele>1181.565</ele>
        <time>2013-07-17T06:32:31Z</time>
      </trkpt>
      <trkpt lat="45.5714" lon="2.8035">
        <ele>1182.063</ele>
        <time>2013-07-17T06:32:34Z</time>
      </trkpt>
      <trkpt lat="45.57131" lon="2.80358">
        <ele>1184.363</ele>
        <time>2013-07-17T06:32:46Z</time>
      </trkpt>
      <trkpt lat="45.57115" lon="2.80374">
        <ele>1186.505</ele>
        <time>2013-07-17T06:33:04Z</time>
      </trkpt>
      <trkpt lat="45.57115" lon="2.80374">
        <ele>1186.65</ele>
        <time>2013-07-17T06:33:05Z</time>
      </trkpt>
      <trkpt lat="45.57109" lon="2.80383">
        <ele>1189.212</ele>
        <time>2013-07-17T06:33:22Z</time>
      </trkpt>
      <trkpt lat="45.57098" lon="2.80401">
        <ele>1192.304</ele>
        <time>2013-07-17T06:33:40Z</time>
      </trkpt>
      <trkpt lat="45.57082" lon="2.80403">
        <ele>1195.078</ele>
        <time>2013-07-17T06:33:58Z</time>
      </trkpt>
      <trkpt lat="45.5708" lon="2.80402">
        <ele>1196.073</ele>
        <time>2013-07-17T06:34:06Z</time>
      </trkpt>
      <trkpt lat="45.57068" lon="2.80405">
        <ele>1197.709</ele>
        <time>2013-07-17T06:34:16Z</time>
      </trkpt>
      <trkpt lat="45.5705" lon="2.80403">
        <ele>1200.533</ele>
        <time>2013-07-17T06:34:34Z</time>
      </trkpt>
      <trkpt lat="45.57037" lon="2.80405">
        <ele>1202.65</ele>
        <time>2013-07-17T06:34:46Z</time>
      </trkpt>
      <trkpt lat="45.57034" lon="2.80404">
        <ele>1203.015</ele>
        <time>2013-07-17T06:34:49Z</time>
      </trkpt>
      <trkpt lat="45.57022" lon="2.80407">
        <ele>1204.979</ele>
        <time>2013-07-17T06:35:00Z</time>
      </trkpt>
      <trkpt lat="45.57007" lon="2.80404">
        <ele>1207.049</ele>
        <time>2013-07-17T06:35:15Z</time>
      </trkpt>
      <trkpt lat="45.57001" lon="2.80407">
        <ele>1207.943</ele>
        <time>2013-07-17T06:35:26Z</time>
      </trkpt>
      <trkpt lat="45.56998" lon="2.80413">
        <ele>1208.251</ele>
        <time>2013-07-17T06:35:30Z</time>
      </trkpt>
      <trkpt lat="45.56995" lon="2.80422">
        <ele>1208.443</ele>
        <time>2013-07-17T06:35:34Z</time>
      </trkpt>
      <trkpt lat="45.56992" lon="2.80428">
        <ele>1209.419</ele>
        <time>2013-07-17T06:35:42Z</time>
      </trkpt>
      <trkpt lat="45.56991" lon="2.80433">
        <ele>1210.108</ele>
        <time>2013-07-17T06:35:46Z</time>
      </trkpt>
      <trkpt lat="45.56978" lon="2.80443">
        <ele>1211.306</ele>
        <time>2013-07-17T06:35:57Z</time>
      </trkpt>
      <trkpt lat="45.56976" lon="2.80446">
        <ele>1211.273</ele>
        <time>2013-07-17T06:35:59Z</time>
      </trkpt>
      <trkpt lat="45.56969" lon="2.80455">
        <ele>1212.875</ele>
        <time>2013-07-17T06:36:16Z</time>
      </trkpt>
      <trkpt lat="45.56969" lon="2.80461">
        <ele>1213.474</ele>
        <time>2013-07-17T06:37:09Z</time>
      </trkpt>
      <trkpt lat="45.5696" lon="2.80474">
        <ele>1214.85</ele>
        <time>2013-07-17T06:37:24Z</time>
      </trkpt>
      <trkpt lat="45.5695" lon="2.80481">
        <ele>1216.003</ele>
        <time>2013-07-17T06:37:31Z</time>
      </trkpt>
      <trkpt lat="45.56934" lon="2.80488">
        <ele>1218.037</ele>
        <time>2013-07-17T06:37:46Z</time>
      </trkpt>
      <trkpt lat="45.56922" lon="2.80498">
        <ele>1219.512</ele>
        <time>2013-07-17T06:37:56Z</time>
      </trkpt>
      <trkpt lat="45.5691" lon="2.80503">
        <ele>1220.673</ele>
        <time>2013-07-17T06:38:07Z</time>
      </trkpt>
      <trkpt lat="45.56891" lon="2.80502">
        <ele>1221.832</ele>
        <time>2013-07-17T06:38:21Z</time>
      </trkpt>
      <trkpt lat="45.5688" lon="2.80488">
        <ele>1224.958</ele>
        <time>2013-07-17T06:38:37Z</time>
      </trkpt>
      <trkpt lat="45.56875" lon="2.80481">
        <ele>1227.204</ele>
        <time>2013-07-17T06:38:46Z</time>
      </trkpt>
      <trkpt lat="45.5687" lon="2.80477">
        <ele>1228.358</ele>
        <time>2013-07-17T06:38:51Z</time>
      </trkpt>
      <trkpt lat="45.56864" lon="2.80473">
        <ele>1229.165</ele>
        <time>2013-07-17T06:38:57Z</time>
      </trkpt>
      <trkpt lat="45.5686" lon="2.80472">
        <ele>1229.261</ele>
        <time>2013-07-17T06:39:01Z</time>
      </trkpt>
      <trkpt lat="45.56856" lon="2.80461">
        <ele>1229.507</ele>
        <time>2013-07-17T06:39:10Z</time>
      </trkpt>
      <trkpt lat="45.56848" lon="2.8046">
        <ele>1229.611</ele>
        <time>2013-07-17T06:39:16Z</time>
      </trkpt>
      <trkpt lat="45.56839" lon="2.80443">
        <ele>1230.422</ele>
        <time>2013-07-17T06:39:32Z</time>
      </trkpt>
      <trkpt lat="45.56843" lon="2.8044">
        <ele>1229.609</ele>
        <time>2013-07-17T06:39:46Z</time>
      </trkpt>
      <trkpt lat="45.56846" lon="2.80446">
        <ele>1230.734</ele>
        <time>2013-07-17T06:40:23Z</time>
      </trkpt>
      <trkpt lat="45.56843" lon="2.80447">
        <ele>1231.209</ele>
        <time>2013-07-17T06:41:02Z</time>
      </trkpt>
      <trkpt lat="45.56845" lon="2.80441">
        <ele>1231.541</ele>
        <time>2013-07-17T06:41:07Z</time>
      </trkpt>
      <trkpt lat="45.56851" lon="2.80424">
        <ele>1232.582</ele>
        <time>2013-07-17T06:41:18Z</time>
      </trkpt>
      <trkpt lat="45.56854" lon="2.80419">
        <ele>1233.108</ele>
        <time>2013-07-17T06:41:23Z</time>
      </trkpt>
      <trkpt lat="45.56863" lon="2.80399">
        <ele>1235.186</ele>
        <time>2013-07-17T06:41:40Z</time>
      </trkpt>
      <trkpt lat="45.56877" lon="2.80375">
        <ele>1237.924</ele>
        <time>2013-07-17T06:42:02Z</time>
      </trkpt>
      <trkpt lat="45.56899" lon="2.80329">
        <ele>1240.804</ele>
        <time>2013-07-17T06:42:27Z</time>
      </trkpt>
      <trkpt lat="45.56916" lon="2.80306">
        <ele>1243.312</ele>
        <time>2013-07-17T06:42:51Z</time>
      </trkpt>
      <trkpt lat="45.56919" lon="2.80296">
        <ele>1243.437</ele>
        <time>2013-07-17T06:43:02Z</time>
      </trkpt>
      <trkpt lat="45.56918" lon="2.80279">
        <ele>1245.12</ele>
        <time>2013-07-17T06:43:25Z</time>
      </trkpt>
      <trkpt lat="45.56907" lon="2.80261">
        <ele>1247.713</ele>
        <time>2013-07-17T06:43:47Z</time>
      </trkpt>
      <trkpt lat="45.56907" lon="2.80258">
        <ele>1248.049</ele>
        <time>2013-07-17T06:43:49Z</time>
      </trkpt>
      <trkpt lat="45.56904" lon="2.80246">
        <ele>1248.617</ele>
        <time>2013-07-17T06:43:55Z</time>
      </trkpt>
      <trkpt lat="45.56885" lon="2.80253">
        <ele>1249.166</ele>
        <time>2013-07-17T06:44:12Z</time>
      </trkpt>
      <trkpt lat="45.56873" lon="2.80258">
        <ele>1249.238</ele>
        <time>2013-07-17T06:44:29Z</time>
      </trkpt>
      <trkpt lat="45.56865" lon="2.8026">
        <ele>1249.539</ele>
        <time>2013-07-17T06:44:38Z</time>
      </trkpt>
      <trkpt lat="45.56847" lon="2.80257">
        <ele>1249.844</ele>
        <time>2013-07-17T06:44:51Z</time>
      </trkpt>
      <trkpt lat="45.56826" lon="2.80251">
        <ele>1250.923</ele>
        <time>2013-07-17T06:45:07Z</time>
      </trkpt>
      <trkpt lat="45.56824" lon="2.80251">
        <ele>1251.142</ele>
        <time>2013-07-17T06:45:10Z</time>
      </trkpt>
      <trkpt lat="45.56801" lon="2.80249">
        <ele>1252.887</ele>
        <time>2013-07-17T06:45:28Z</time>
      </trkpt>
      <trkpt lat="45.5679" lon="2.80246">
        <ele>1254.702</ele>
        <time>2013-07-17T06:45:41Z</time>
      </trkpt>
      <trkpt lat="45.56778" lon="2.80234">
        <ele>1257.557</ele>
        <time>2013-07-17T06:45:58Z</time>
      </trkpt>
      <trkpt lat="45.56774" lon="2.80227">
        <ele>1258.946</ele>
        <time>2013-07-17T06:46:11Z</time>
      </trkpt>
      <trkpt lat="45.56761" lon="2.80212">
        <ele>1261.946</ele>
        <time>2013-07-17T06:46:29Z</time>
      </trkpt>
      <trkpt lat="45.56752" lon="2.80204">
        <ele>1263.618</ele>
        <time>2013-07-17T06:46:41Z</time>
      </trkpt>
      <trkpt lat="45.56737" lon="2.80202">
        <ele>1265.903</ele>
        <time>2013-07-17T06:46:56Z</time>
      </trkpt>
      <trkpt lat="45.56728" lon="2.80202">
        <ele>1268.065</ele>
        <time>2013-07-17T06:47:11Z</time>
      </trkpt>
      <trkpt lat="45.56717" lon="2.80204">
        <ele>1270.495</ele>
        <time>2013-07-17T06:47:28Z</time>
      </trkpt>
      <trkpt lat="45.56695" lon="2.80213">
        <ele>1273.627</ele>
        <time>2013-07-17T06:47:48Z</time>
      </trkpt>
      <trkpt lat="45.56691" lon="2.80212">
        <ele>1273.732</ele>
        <time>2013-07-17T06:47:49Z</time>
      </trkpt>
      <trkpt lat="45.56679" lon="2.80216">
        <ele>1276.981</ele>
        <time>2013-07-17T06:48:07Z</time>
      </trkpt>
      <trkpt lat="45.56664" lon="2.80224">
        <ele>1279.952</ele>
        <time>2013-07-17T06:48:24Z</time>
      </trkpt>
      <trkpt lat="45.56662" lon="2.80225">
        <ele>1280.083</ele>
        <time>2013-07-17T06:48:26Z</time>
      </trkpt>
      <trkpt lat="45.5664" lon="2.80234">
        <ele>1282.542</ele>
        <time>2013-07-17T06:48:41Z</time>
      </trkpt>
      <trkpt lat="45.56621" lon="2.80236">
        <ele>1284.677</ele>
        <time>2013-07-17T06:48:56Z</time>
      </trkpt>
      <trkpt lat="45.56607" lon="2.80237">
        <ele>1287.51</ele>
        <time>2013-07-17T06:49:14Z</time>
      </trkpt>
      <trkpt lat="45.56582" lon="2.80248">
        <ele>1289.457</ele>
        <time>2013-07-17T06:49:29Z</time>
      </trkpt>
      <trkpt lat="45.56572" lon="2.80255">
        <ele>1291.466</ele>
        <time>2013-07-17T06:49:41Z</time>
      </trkpt>
      <trkpt lat="45.56571" lon="2.80255">
        <ele>1291.776</ele>
        <time>2013-07-17T06:49:42Z</time>
      </trkpt>
      <trkpt lat="45.5656" lon="2.80264">
        <ele>1293.773</ele>
        <time>2013-07-17T06:49:56Z</time>
      </trkpt>
      <trkpt lat="45.56543" lon="2.80271">
        <ele>1295.965</ele>
        <time>2013-07-17T06:50:11Z</time>
      </trkpt>
      <trkpt lat="45.56537" lon="2.80271">
        <ele>1297.979</ele>
        <time>2013-07-17T06:50:20Z</time>
      </trkpt>
      <trkpt lat="45.56518" lon="2.80269">
        <ele>1300.301</ele>
        <time>2013-07-17T06:50:33Z</time>
      </trkpt>
      <trkpt lat="45.56508" lon="2.80269">
        <ele>1302.822</ele>
        <time>2013-07-17T06:50:47Z</time>
      </trkpt>
      <trkpt lat="45.56499" lon="2.80253">
        <ele>1305.918</ele>
        <time>2013-07-17T06:51:02Z</time>
      </trkpt>
      <trkpt lat="45.56498" lon="2.80239">
        <ele>1308.239</ele>
        <time>2013-07-17T06:51:13Z</time>
      </trkpt>
      <trkpt lat="45.56478" lon="2.80239">
        <ele>1311.214</ele>
        <time>2013-07-17T06:51:29Z</time>
      </trkpt>
      <trkpt lat="45.56472" lon="2.8024">
        <ele>1312.51</ele>
        <time>2013-07-17T06:51:35Z</time>
      </trkpt>
      <trkpt lat="45.56457" lon="2.80231">
        <ele>1315.166</ele>
        <time>2013-07-17T06:51:50Z</time>
      </trkpt>
      <trkpt lat="45.56435" lon="2.80231">
        <ele>1317.453</ele>
        <time>2013-07-17T06:52:05Z</time>
      </trkpt>
      <trkpt lat="45.56424" lon="2.80229">
        <ele>1318.581</ele>
        <time>2013-07-17T06:52:13Z</time>
      </trkpt>
      <trkpt lat="45.56416" lon="2.80228">
        <ele>1320.247</ele>
        <time>2013-07-17T06:52:24Z</time>
      </trkpt>
      <trkpt lat="45.56413" lon="2.80226">
        <ele>1320.504</ele>
        <time>2013-07-17T06:52:27Z</time>
      </trkpt>
      <trkpt lat="45.56396" lon="2.8022">
        <ele>1321.972</ele>
        <time>2013-07-17T06:52:42Z</time>
      </trkpt>
      <trkpt lat="45.56384" lon="2.80215">
        <ele>1322.93</ele>
        <time>2013-07-17T06:52:53Z</time>
      </trkpt>
      <trkpt lat="45.56376" lon="2.80205">
        <ele>1323.868</ele>
        <time>2013-07-17T06:53:05Z</time>
      </trkpt>
      <trkpt lat="45.56364" lon="2.80196">
        <ele>1325.341</ele>
        <time>2013-07-17T06:53:19Z</time>
      </trkpt>
      <trkpt lat="45.56357" lon="2.80186">
        <ele>1326.552</ele>
        <time>2013-07-17T06:53:29Z</time>
      </trkpt>
      <trkpt lat="45.56348" lon="2.80171">
        <ele>1327.293</ele>
        <time>2013-07-17T06:53:40Z</time>
      </trkpt>
      <trkpt lat="45.56335" lon="2.8015">
        <ele>1328.46</ele>
        <time>2013-07-17T06:53:54Z</time>
      </trkpt>
      <trkpt lat="45.56332" lon="2.80148">
        <ele>1328.906</ele>
        <time>2013-07-17T06:53:56Z</time>
      </trkpt>
      <trkpt lat="45.56326" lon="2.80146">
        <ele>1329.296</ele>
        <time>2013-07-17T06:54:01Z</time>
      </trkpt>
      <trkpt lat="45.56321" lon="2.80143">
        <ele>1330.037</ele>
        <time>2013-07-17T06:54:06Z</time>
      </trkpt>
      <trkpt lat="45.56304" lon="2.80133">
        <ele>1331.846</ele>
        <time>2013-07-17T06:54:23Z</time>
      </trkpt>
      <trkpt lat="45.56296" lon="2.80133">
        <ele>1332.519</ele>
        <time>2013-07-17T06:54:28Z</time>
      </trkpt>
      <trkpt lat="45.5629" lon="2.80129">
        <ele>1333.498</ele>
        <time>2013-07-17T06:54:34Z</time>
      </trkpt>
      <trkpt lat="45.5627" lon="2.80116">
        <ele>1335.743</ele>
        <time>2013-07-17T06:54:51Z</time>
      </trkpt>
      <trkpt lat="45.56252" lon="2.80114">
        <ele>1336.962</ele>
        <time>2013-07-17T06:55:07Z</time>
      </trkpt>
      <trkpt lat="45.56233" lon="2.80117">
        <ele>1338.977</ele>
        <time>2013-07-17T06:55:26Z</time>
      </trkpt>
      <trkpt lat="45.56223" lon="2.8012">
        <ele>1341.692</ele>
        <time>2013-07-17T06:55:41Z</time>
      </trkpt>
      <trkpt lat="45.56207" lon="2.8012">
        <ele>1344.761</ele>
        <time>2013-07-17T06:55:57Z</time>
      </trkpt>
      <trkpt lat="45.56186" lon="2.80119">
        <ele>1347.788</ele>
        <time>2013-07-17T06:56:13Z</time>
      </trkpt>
      <trkpt lat="45.56184" lon="2.80118">
        <ele>1348.403</ele>
        <time>2013-07-17T06:56:15Z</time>
      </trkpt>
      <trkpt lat="45.56175" lon="2.80117">
        <ele>1349.417</ele>
        <time>2013-07-17T06:56:22Z</time>
      </trkpt>
      <trkpt lat="45.56154" lon="2.80107">
        <ele>1352.269</ele>
        <time>2013-07-17T06:56:39Z</time>
      </trkpt>
      <trkpt lat="45.56137" lon="2.80098">
        <ele>1354.017</ele>
        <time>2013-07-17T06:56:53Z</time>
      </trkpt>
      <trkpt lat="45.56123" lon="2.80095">
        <ele>1353.784</ele>
        <time>2013-07-17T06:57:04Z</time>
      </trkpt>
      <trkpt lat="45.56114" lon="2.8009">
        <ele>1353.85</ele>
        <time>2013-07-17T06:57:15Z</time>
      </trkpt>
      <trkpt lat="45.56089" lon="2.80088">
        <ele>1355.528</ele>
        <time>2013-07-17T06:57:35Z</time>
      </trkpt>
      <trkpt lat="45.56081" lon="2.80087">
        <ele>1355.857</ele>
        <time>2013-07-17T06:57:38Z</time>
      </trkpt>
      <trkpt lat="45.56074" lon="2.80087">
        <ele>1356.064</ele>
        <time>2013-07-17T06:57:42Z</time>
      </trkpt>
      <trkpt lat="45.56062" lon="2.80085">
        <ele>1357.03</ele>
        <time>2013-07-17T06:57:53Z</time>
      </trkpt>
      <trkpt lat="45.5606" lon="2.80085">
        <ele>1357.222</ele>
        <time>2013-07-17T06:57:54Z</time>
      </trkpt>
      <trkpt lat="45.56042" lon="2.8008">
        <ele>1358.549</ele>
        <time>2013-07-17T06:58:08Z</time>
      </trkpt>
      <trkpt lat="45.56031" lon="2.80078">
        <ele>1359.566</ele>
        <time>2013-07-17T06:58:19Z</time>
      </trkpt>
      <trkpt lat="45.56028" lon="2.80076">
        <ele>1360.037</ele>
        <time>2013-07-17T06:58:21Z</time>
      </trkpt>
      <trkpt lat="45.56013" lon="2.80072">
        <ele>1361.323</ele>
        <time>2013-07-17T06:58:33Z</time>
      </trkpt>
      <trkpt lat="45.56004" lon="2.80068">
        <ele>1362.651</ele>
        <time>2013-07-17T06:58:47Z</time>
      </trkpt>
      <trkpt lat="45.56001" lon="2.80064">
        <ele>1363.062</ele>
        <time>2013-07-17T06:58:52Z</time>
      </trkpt>
      <trkpt lat="45.55989" lon="2.80055">
        <ele>1364.877</ele>
        <time>2013-07-17T06:59:06Z</time>
      </trkpt>
      <trkpt lat="45.55978" lon="2.80052">
        <ele>1366.55</ele>
        <time>2013-07-17T06:59:18Z</time>
      </trkpt>
      <trkpt lat="45.55963" lon="2.8005">
        <ele>1367.772</ele>
        <time>2013-07-17T06:59:27Z</time>
      </trkpt>
      <trkpt lat="45.55938" lon="2.80048">
        <ele>1370.359</ele>
        <time>2013-07-17T06:59:44Z</time>
      </trkpt>
      <trkpt lat="45.55923" lon="2.80044">
        <ele>1372.58</ele>
        <time>2013-07-17T07:00:00Z</time>
      </trkpt>
      <trkpt lat="45.55897" lon="2.80047">
        <ele>1375.621</ele>
        <time>2013-07-17T07:00:21Z</time>
      </trkpt>
      <trkpt lat="45.55874" lon="2.80048">
        <ele>1378.615</ele>
        <time>2013-07-17T07:00:43Z</time>
      </trkpt>
      <trkpt lat="45.55865" lon="2.80056">
        <ele>1380.389</ele>
        <time>2013-07-17T07:00:53Z</time>
      </trkpt>
      <trkpt lat="45.55866" lon="2.8006">
        <ele>1380.888</ele>
        <time>2013-07-17T07:00:57Z</time>
      </trkpt>
      <trkpt lat="45.55886" lon="2.80077">
        <ele>1383.294</ele>
        <time>2013-07-17T07:01:18Z</time>
      </trkpt>
      <trkpt lat="45.55907" lon="2.80094">
        <ele>1385.567</ele>
        <time>2013-07-17T07:01:38Z</time>
      </trkpt>
      <trkpt lat="45.55925" lon="2.80106">
        <ele>1386.566</ele>
        <time>2013-07-17T07:01:56Z</time>
      </trkpt>
      <trkpt lat="45.55928" lon="2.80115">
        <ele>1387.702</ele>
        <time>2013-07-17T07:02:07Z</time>
      </trkpt>
      <trkpt lat="45.55925" lon="2.80116">
        <ele>1388.396</ele>
        <time>2013-07-17T07:02:11Z</time>
      </trkpt>
      <trkpt lat="45.5592" lon="2.80122">
        <ele>1391.142</ele>
        <time>2013-07-17T07:02:26Z</time>
      </trkpt>
      <trkpt lat="45.55921" lon="2.80123">
        <ele>1392.02</ele>
        <time>2013-07-17T07:02:29Z</time>
      </trkpt>
      <trkpt lat="45.55923" lon="2.80125">
        <ele>1392.214</ele>
        <time>2013-07-17T07:02:31Z</time>
      </trkpt>
      <trkpt lat="45.55925" lon="2.80132">
        <ele>1394.137</ele>
        <time>2013-07-17T07:02:40Z</time>
      </trkpt>
      <trkpt lat="45.5593" lon="2.80143">
        <ele>1397.32</ele>
        <time>2013-07-17T07:02:54Z</time>
      </trkpt>
      <trkpt lat="45.55932" lon="2.80155">
        <ele>1400.428</ele>
        <time>2013-07-17T07:03:07Z</time>
      </trkpt>
      <trkpt lat="45.55934" lon="2.80166">
        <ele>1403.586</ele>
        <time>2013-07-17T07:03:19Z</time>
      </trkpt>
      <trkpt lat="45.55935" lon="2.8018">
        <ele>1406.87</ele>
        <time>2013-07-17T07:03:34Z</time>
      </trkpt>
      <trkpt lat="45.55937" lon="2.80193">
        <ele>1409.794</ele>
        <time>2013-07-17T07:03:47Z</time>
      </trkpt>
      <trkpt lat="45.55939" lon="2.80207">
        <ele>1413.533</ele>
        <time>2013-07-17T07:04:03Z</time>
      </trkpt>
      <trkpt lat="45.55945" lon="2.80223">
        <ele>1416.661</ele>
        <time>2013-07-17T07:04:18Z</time>
      </trkpt>
      <trkpt lat="45.55949" lon="2.80235">
        <ele>1419.899</ele>
        <time>2013-07-17T07:04:32Z</time>
      </trkpt>
      <trkpt lat="45.55954" lon="2.80249">
        <ele>1422.97</ele>
        <time>2013-07-17T07:04:47Z</time>
      </trkpt>
      <trkpt lat="45.55959" lon="2.80257">
        <ele>1425.085</ele>
        <time>2013-07-17T07:04:56Z</time>
      </trkpt>
      <trkpt lat="45.55964" lon="2.80262">
        <ele>1426.274</ele>
        <time>2013-07-17T07:05:03Z</time>
      </trkpt>
      <trkpt lat="45.55978" lon="2.80282">
        <ele>1428.556</ele>
        <time>2013-07-17T07:05:24Z</time>
      </trkpt>
      <trkpt lat="45.55985" lon="2.80282">
        <ele>1429.936</ele>
        <time>2013-07-17T07:05:42Z</time>
      </trkpt>
      <trkpt lat="45.55987" lon="2.80283">
        <ele>1430.662</ele>
        <time>2013-07-17T07:06:00Z</time>
      </trkpt>
      <trkpt lat="45.55988" lon="2.80282">
        <ele>1431.89</ele>
        <time>2013-07-17T07:06:26Z</time>
      </trkpt>
      <trkpt lat="45.56001" lon="2.80287">
        <ele>1433.49</ele>
        <time>2013-07-17T07:06:41Z</time>
      </trkpt>
      <trkpt lat="45.56005" lon="2.80289">
        <ele>1434.366</ele>
        <time>2013-07-17T07:06:46Z</time>
      </trkpt>
      <trkpt lat="45.56015" lon="2.80289">
        <ele>1437.468</ele>
        <time>2013-07-17T07:06:59Z</time>
      </trkpt>
      <trkpt lat="45.56015" lon="2.80283">
        <ele>1437.874</ele>
        <time>2013-07-17T07:07:03Z</time>
      </trkpt>
      <trkpt lat="45.56016" lon="2.80273">
        <ele>1439.881</ele>
        <time>2013-07-17T07:07:12Z</time>
      </trkpt>
      <trkpt lat="45.56027" lon="2.80279">
        <ele>1442.915</ele>
        <time>2013-07-17T07:07:28Z</time>
      </trkpt>
      <trkpt lat="45.56031" lon="2.80281">
        <ele>1443.572</ele>
        <time>2013-07-17T07:07:32Z</time>
      </trkpt>
      <trkpt lat="45.56042" lon="2.8029">
        <ele>1446.664</ele>
        <time>2013-07-17T07:07:47Z</time>
      </trkpt>
      <trkpt lat="45.5605" lon="2.80292">
        <ele>1449.806</ele>
        <time>2013-07-17T07:08:00Z</time>
      </trkpt>
      <trkpt lat="45.56054" lon="2.80285">
        <ele>1452.991</ele>
        <time>2013-07-17T07:08:13Z</time>
      </trkpt>
      <trkpt lat="45.56056" lon="2.80267">
        <ele>1456.511</ele>
        <time>2013-07-17T07:08:30Z</time>
      </trkpt>
      <trkpt lat="45.56054" lon="2.80259">
        <ele>1458.711</ele>
        <time>2013-07-17T07:08:43Z</time>
      </trkpt>
      <trkpt lat="45.56055" lon="2.80253">
        <ele>1459.33</ele>
        <time>2013-07-17T07:08:47Z</time>
      </trkpt>
      <trkpt lat="45.5606" lon="2.80253">
        <ele>1460.243</ele>
        <time>2013-07-17T07:08:52Z</time>
      </trkpt>
      <trkpt lat="45.56067" lon="2.80259">
        <ele>1462.722</ele>
        <time>2013-07-17T07:09:03Z</time>
      </trkpt>
      <trkpt lat="45.56079" lon="2.80279">
        <ele>1465.576</ele>
        <time>2013-07-17T07:09:21Z</time>
      </trkpt>
      <trkpt lat="45.56088" lon="2.80294">
        <ele>1466.914</ele>
        <time>2013-07-17T07:09:35Z</time>
      </trkpt>
      <trkpt lat="45.561" lon="2.80294">
        <ele>1468.913</ele>
        <time>2013-07-17T07:09:49Z</time>
      </trkpt>
      <trkpt lat="45.56115" lon="2.80273">
        <ele>1469.99</ele>
        <time>2013-07-17T07:10:06Z</time>
      </trkpt>
      <trkpt lat="45.56118" lon="2.8027">
        <ele>1469.506</ele>
        <time>2013-07-17T07:10:21Z</time>
      </trkpt>
      <trkpt lat="45.56117" lon="2.80269">
        <ele>1469.503</ele>
        <time>2013-07-17T07:10:28Z</time>
      </trkpt>
      <trkpt lat="45.56113" lon="2.80273">
        <ele>1470.01</ele>
        <time>2013-07-17T07:10:32Z</time>
      </trkpt>
      <trkpt lat="45.56104" lon="2.80282">
        <ele>1469.93</ele>
        <time>2013-07-17T07:10:42Z</time>
      </trkpt>
      <trkpt lat="45.56101" lon="2.80289">
        <ele>1468.804</ele>
        <time>2013-07-17T07:10:56Z</time>
      </trkpt>
      <trkpt lat="45.561" lon="2.80286">
        <ele>1468.666</ele>
        <time>2013-07-17T07:11:21Z</time>
      </trkpt>
      <trkpt lat="45.56101" lon="2.80287">
        <ele>1468.62</ele>
        <time>2013-07-17T07:12:04Z</time>
      </trkpt>
      <trkpt lat="45.56101" lon="2.80287">
        <ele>1468.546</ele>
        <time>2013-07-17T07:12:51Z</time>
      </trkpt>
      <trkpt lat="45.56102" lon="2.80287">
        <ele>1469.321</ele>
        <time>2013-07-17T07:13:34Z</time>
      </trkpt>
      <trkpt lat="45.56102" lon="2.80288">
        <ele>1468.908</ele>
        <time>2013-07-17T07:13:51Z</time>
      </trkpt>
      <trkpt lat="45.56102" lon="2.80289">
        <ele>1469.457</ele>
        <time>2013-07-17T07:17:36Z</time>
      </trkpt>
      <trkpt lat="45.56101" lon="2.80288">
        <ele>1468.993</ele>
        <time>2013-07-17T07:18:15Z</time>
      </trkpt>
      <trkpt lat="45.56101" lon="2.80289">
        <ele>1469.357</ele>
        <time>2013-07-17T07:18:35Z</time>
      </trkpt>
      <trkpt lat="45.561" lon="2.80291">
        <ele>1468.975</ele>
        <time>2013-07-17T07:18:37Z</time>
      </trkpt>
      <trkpt lat="45.56092" lon="2.80293">
        <ele>1468.182</ele>
        <time>2013-07-17T07:18:50Z</time>
      </trkpt>
      <trkpt lat="45.56091" lon="2.80293">
        <ele>1467.802</ele>
        <time>2013-07-17T07:18:52Z</time>
      </trkpt>
      <trkpt lat="45.56081" lon="2.8028">
        <ele>1466.225</ele>
        <time>2013-07-17T07:19:05Z</time>
      </trkpt>
      <trkpt lat="45.56069" lon="2.80266">
        <ele>1464.243</ele>
        <time>2013-07-17T07:19:19Z</time>
      </trkpt>
      <trkpt lat="45.56068" lon="2.80264">
        <ele>1463.715</ele>
        <time>2013-07-17T07:19:21Z</time>
      </trkpt>
      <trkpt lat="45.5606" lon="2.80252">
        <ele>1461.293</ele>
        <time>2013-07-17T07:19:37Z</time>
      </trkpt>
      <trkpt lat="45.56057" lon="2.80252">
        <ele>1460.179</ele>
        <time>2013-07-17T07:19:42Z</time>
      </trkpt>
      <trkpt lat="45.56056" lon="2.80251">
        <ele>1459.75</ele>
        <time>2013-07-17T07:19:44Z</time>
      </trkpt>
      <trkpt lat="45.56054" lon="2.80253">
        <ele>1459.638</ele>
        <time>2013-07-17T07:19:47Z</time>
      </trkpt>
      <trkpt lat="45.56053" lon="2.80255">
        <ele>1459.188</ele>
        <time>2013-07-17T07:19:49Z</time>
      </trkpt>
      <trkpt lat="45.56056" lon="2.80265">
        <ele>1457.811</ele>
        <time>2013-07-17T07:20:00Z</time>
      </trkpt>
      <trkpt lat="45.56056" lon="2.80273">
        <ele>1456.141</ele>
        <time>2013-07-17T07:20:06Z</time>
      </trkpt>
      <trkpt lat="45.56057" lon="2.80289">
        <ele>1453.537</ele>
        <time>2013-07-17T07:20:19Z</time>
      </trkpt>
      <trkpt lat="45.56053" lon="2.80294">
        <ele>1451.097</ele>
        <time>2013-07-17T07:20:29Z</time>
      </trkpt>
      <trkpt lat="45.56046" lon="2.80289">
        <ele>1448.486</ele>
        <time>2013-07-17T07:20:40Z</time>
      </trkpt>
      <trkpt lat="45.56038" lon="2.80289">
        <ele>1446.404</ele>
        <time>2013-07-17T07:20:49Z</time>
      </trkpt>
      <trkpt lat="45.5603" lon="2.80281">
        <ele>1444.873</ele>
        <time>2013-07-17T07:20:57Z</time>
      </trkpt>
      <trkpt lat="45.56019" lon="2.80276">
        <ele>1442.135</ele>
        <time>2013-07-17T07:21:12Z</time>
      </trkpt>
      <trkpt lat="45.56017" lon="2.80274">
        <ele>1440.693</ele>
        <time>2013-07-17T07:21:21Z</time>
      </trkpt>
      <trkpt lat="45.56017" lon="2.8028">
        <ele>1439.443</ele>
        <time>2013-07-17T07:21:27Z</time>
      </trkpt>
      <trkpt lat="45.56017" lon="2.80286">
        <ele>1438.687</ele>
        <time>2013-07-17T07:21:31Z</time>
      </trkpt>
      <trkpt lat="45.56011" lon="2.8029">
        <ele>1436.478</ele>
        <time>2013-07-17T07:21:41Z</time>
      </trkpt>
      <trkpt lat="45.56004" lon="2.80289">
        <ele>1435.248</ele>
        <time>2013-07-17T07:21:47Z</time>
      </trkpt>
      <trkpt lat="45.55991" lon="2.80283">
        <ele>1432.674</ele>
        <time>2013-07-17T07:22:00Z</time>
      </trkpt>
      <trkpt lat="45.55981" lon="2.80282">
        <ele>1431.227</ele>
        <time>2013-07-17T07:22:17Z</time>
      </trkpt>
      <trkpt lat="45.5598" lon="2.80282">
        <ele>1430.911</ele>
        <time>2013-07-17T07:22:18Z</time>
      </trkpt>
      <trkpt lat="45.55964" lon="2.80284">
        <ele>1428.972</ele>
        <time>2013-07-17T07:22:33Z</time>
      </trkpt>
      <trkpt lat="45.55963" lon="2.80284">
        <ele>1428.666</ele>
        <time>2013-07-17T07:22:34Z</time>
      </trkpt>
      <trkpt lat="45.55948" lon="2.80283">
        <ele>1426.476</ele>
        <time>2013-07-17T07:22:47Z</time>
      </trkpt>
      <trkpt lat="45.55934" lon="2.80283">
        <ele>1425.241</ele>
        <time>2013-07-17T07:23:02Z</time>
      </trkpt>
      <trkpt lat="45.55913" lon="2.80287">
        <ele>1424.106</ele>
        <time>2013-07-17T07:23:18Z</time>
      </trkpt>
      <trkpt lat="45.55893" lon="2.80281">
        <ele>1423.622</ele>
        <time>2013-07-17T07:23:35Z</time>
      </trkpt>
      <trkpt lat="45.55883" lon="2.80278">
        <ele>1423.087</ele>
        <time>2013-07-17T07:23:42Z</time>
      </trkpt>
      <trkpt lat="45.5588" lon="2.80279">
        <ele>1423.44</ele>
        <time>2013-07-17T07:23:45Z</time>
      </trkpt>
      <trkpt lat="45.55868" lon="2.80279">
        <ele>1422.934</ele>
        <time>2013-07-17T07:23:56Z</time>
      </trkpt>
      <trkpt lat="45.55848" lon="2.80282">
        <ele>1422.019</ele>
        <time>2013-07-17T07:24:12Z</time>
      </trkpt>
      <trkpt lat="45.55835" lon="2.80282">
        <ele>1420.93</ele>
        <time>2013-07-17T07:24:23Z</time>
      </trkpt>
      <trkpt lat="45.55816" lon="2.8028">
        <ele>1421.449</ele>
        <time>2013-07-17T07:24:39Z</time>
      </trkpt>
      <trkpt lat="45.558" lon="2.80279">
        <ele>1421.507</ele>
        <time>2013-07-17T07:24:53Z</time>
      </trkpt>
      <trkpt lat="45.55783" lon="2.80278">
        <ele>1421.694</ele>
        <time>2013-07-17T07:25:08Z</time>
      </trkpt>
      <trkpt lat="45.5576" lon="2.8028">
        <ele>1422.936</ele>
        <time>2013-07-17T07:25:26Z</time>
      </trkpt>
      <trkpt lat="45.55749" lon="2.80277">
        <ele>1423.559</ele>
        <time>2013-07-17T07:25:35Z</time>
      </trkpt>
      <trkpt lat="45.55748" lon="2.80276">
        <ele>1423.423</ele>
        <time>2013-07-17T07:25:37Z</time>
      </trkpt>
      <trkpt lat="45.55729" lon="2.80272">
        <ele>1424.588</ele>
        <time>2013-07-17T07:25:54Z</time>
      </trkpt>
      <trkpt lat="45.55717" lon="2.80264">
        <ele>1424.794</ele>
        <time>2013-07-17T07:26:11Z</time>
      </trkpt>
      <trkpt lat="45.55713" lon="2.80261">
        <ele>1424.581</ele>
        <time>2013-07-17T07:26:21Z</time>
      </trkpt>
      <trkpt lat="45.55705" lon="2.80261">
        <ele>1424.964</ele>
        <time>2013-07-17T07:26:30Z</time>
      </trkpt>
      <trkpt lat="45.55702" lon="2.8026">
        <ele>1424.9</ele>
        <time>2013-07-17T07:26:33Z</time>
      </trkpt>
      <trkpt lat="45.55684" lon="2.80253">
        <ele>1425.188</ele>
        <time>2013-07-17T07:26:52Z</time>
      </trkpt>
      <trkpt lat="45.55664" lon="2.80249">
        <ele>1424.943</ele>
        <time>2013-07-17T07:27:12Z</time>
      </trkpt>
      <trkpt lat="45.55661" lon="2.80247">
        <ele>1424.289</ele>
        <time>2013-07-17T07:27:15Z</time>
      </trkpt>
      <trkpt lat="45.55654" lon="2.80241">
        <ele>1423.978</ele>
        <time>2013-07-17T07:27:21Z</time>
      </trkpt>
      <trkpt lat="45.55647" lon="2.80238">
        <ele>1424.992</ele>
        <time>2013-07-17T07:27:30Z</time>
      </trkpt>
      <trkpt lat="45.55635" lon="2.80236">
        <ele>1425.819</ele>
        <time>2013-07-17T07:27:41Z</time>
      </trkpt>
      <trkpt lat="45.5562" lon="2.80237">
        <ele>1427.667</ele>
        <time>2013-07-17T07:27:55Z</time>
      </trkpt>
      <trkpt lat="45.55605" lon="2.80237">
        <ele>1429.672</ele>
        <time>2013-07-17T07:28:10Z</time>
      </trkpt>
      <trkpt lat="45.55592" lon="2.80232">
        <ele>1431.434</ele>
        <time>2013-07-17T07:28:24Z</time>
      </trkpt>
      <trkpt lat="45.55585" lon="2.80231">
        <ele>1431.982</ele>
        <time>2013-07-17T07:28:29Z</time>
      </trkpt>
      <trkpt lat="45.55567" lon="2.80226">
        <ele>1433.519</ele>
        <time>2013-07-17T07:28:48Z</time>
      </trkpt>
      <trkpt lat="45.55553" lon="2.8022">
        <ele>1435.199</ele>
        <time>2013-07-17T07:29:02Z</time>
      </trkpt>
      <trkpt lat="45.55547" lon="2.80216">
        <ele>1436.339</ele>
        <time>2013-07-17T07:29:09Z</time>
      </trkpt>
      <trkpt lat="45.55536" lon="2.80206">
        <ele>1437.176</ele>
        <time>2013-07-17T07:29:20Z</time>
      </trkpt>
      <trkpt lat="45.55532" lon="2.80205">
        <ele>1437.602</ele>
        <time>2013-07-17T07:29:23Z</time>
      </trkpt>
      <trkpt lat="45.55526" lon="2.802">
        <ele>1438.221</ele>
        <time>2013-07-17T07:29:29Z</time>
      </trkpt>
      <trkpt lat="45.55525" lon="2.80199">
        <ele>1438.589</ele>
        <time>2013-07-17T07:29:31Z</time>
      </trkpt>
      <trkpt lat="45.55514" lon="2.80191">
        <ele>1439.924</ele>
        <time>2013-07-17T07:29:43Z</time>
      </trkpt>
      <trkpt lat="45.55508" lon="2.80187">
        <ele>1440.513</ele>
        <time>2013-07-17T07:29:49Z</time>
      </trkpt>
      <trkpt lat="45.55493" lon="2.80177">
        <ele>1441.85</ele>
        <time>2013-07-17T07:30:04Z</time>
      </trkpt>
      <trkpt lat="45.55489" lon="2.80172">
        <ele>1441.986</ele>
        <time>2013-07-17T07:30:09Z</time>
      </trkpt>
      <trkpt lat="45.55482" lon="2.80169">
        <ele>1442.688</ele>
        <time>2013-07-17T07:30:15Z</time>
      </trkpt>
      <trkpt lat="45.55478" lon="2.80166">
        <ele>1442.671</ele>
        <time>2013-07-17T07:30:19Z</time>
      </trkpt>
      <trkpt lat="45.55465" lon="2.80156">
        <ele>1444.645</ele>
        <time>2013-07-17T07:30:33Z</time>
      </trkpt>
      <trkpt lat="45.55461" lon="2.80152">
        <ele>1445.254</ele>
        <time>2013-07-17T07:30:38Z</time>
      </trkpt>
      <trkpt lat="45.55449" lon="2.80147">
        <ele>1446.34</ele>
        <time>2013-07-17T07:30:51Z</time>
      </trkpt>
      <trkpt lat="45.55432" lon="2.8014">
        <ele>1448.912</ele>
        <time>2013-07-17T07:31:09Z</time>
      </trkpt>
      <trkpt lat="45.5542" lon="2.80132">
        <ele>1451.343</ele>
        <time>2013-07-17T07:31:24Z</time>
      </trkpt>
      <trkpt lat="45.55406" lon="2.80127">
        <ele>1454.428</ele>
        <time>2013-07-17T07:31:40Z</time>
      </trkpt>
      <trkpt lat="45.55395" lon="2.80122">
        <ele>1457.535</ele>
        <time>2013-07-17T07:31:58Z</time>
      </trkpt>
      <trkpt lat="45.55383" lon="2.80114">
        <ele>1460.536</ele>
        <time>2013-07-17T07:32:14Z</time>
      </trkpt>
      <trkpt lat="45.55374" lon="2.80106">
        <ele>1463.039</ele>
        <time>2013-07-17T07:32:27Z</time>
      </trkpt>
      <trkpt lat="45.5537" lon="2.80103">
        <ele>1464.114</ele>
        <time>2013-07-17T07:32:33Z</time>
      </trkpt>
      <trkpt lat="45.55363" lon="2.80093">
        <ele>1466.314</ele>
        <time>2013-07-17T07:32:46Z</time>
      </trkpt>
      <trkpt lat="45.55363" lon="2.80092">
        <ele>1466.471</ele>
        <time>2013-07-17T07:32:47Z</time>
      </trkpt>
      <trkpt lat="45.55354" lon="2.80076">
        <ele>1468.795</ele>
        <time>2013-07-17T07:33:03Z</time>
      </trkpt>
      <trkpt lat="45.55346" lon="2.80065">
        <ele>1469.374</ele>
        <time>2013-07-17T07:33:16Z</time>
      </trkpt>
      <trkpt lat="45.55339" lon="2.80051">
        <ele>1469.723</ele>
        <time>2013-07-17T07:33:26Z</time>
      </trkpt>
      <trkpt lat="45.55333" lon="2.80021">
        <ele>1469.98</ele>
        <time>2013-07-17T07:33:45Z</time>
      </trkpt>
      <trkpt lat="45.5533" lon="2.80014">
        <ele>1469.835</ele>
        <time>2013-07-17T07:33:50Z</time>
      </trkpt>
      <trkpt lat="45.55328" lon="2.80011">
        <ele>1469.564</ele>
        <time>2013-07-17T07:33:53Z</time>
      </trkpt>
      <trkpt lat="45.55328" lon="2.80005">
        <ele>1469.801</ele>
        <time>2013-07-17T07:33:57Z</time>
      </trkpt>
      <trkpt lat="45.55317" lon="2.79992">
        <ele>1470.408</ele>
        <time>2013-07-17T07:34:11Z</time>
      </trkpt>
      <trkpt lat="45.55306" lon="2.79979">
        <ele>1472.611</ele>
        <time>2013-07-17T07:34:26Z</time>
      </trkpt>
      <trkpt lat="45.55296" lon="2.7997">
        <ele>1475.076</ele>
        <time>2013-07-17T07:34:42Z</time>
      </trkpt>
      <trkpt lat="45.55287" lon="2.79958">
        <ele>1477.089</ele>
        <time>2013-07-17T07:34:59Z</time>
      </trkpt>
      <trkpt lat="45.55284" lon="2.79954">
        <ele>1477.8</ele>
        <time>2013-07-17T07:35:04Z</time>
      </trkpt>
      <trkpt lat="45.55276" lon="2.79954">
        <ele>1480.53</ele>
        <time>2013-07-17T07:35:18Z</time>
      </trkpt>
      <trkpt lat="45.55267" lon="2.79961">
        <ele>1482.788</ele>
        <time>2013-07-17T07:35:34Z</time>
      </trkpt>
      <trkpt lat="45.55261" lon="2.7996">
        <ele>1484.005</ele>
        <time>2013-07-17T07:35:42Z</time>
      </trkpt>
      <trkpt lat="45.5525" lon="2.7996">
        <ele>1484.655</ele>
        <time>2013-07-17T07:35:52Z</time>
      </trkpt>
      <trkpt lat="45.55246" lon="2.79963">
        <ele>1484.1</ele>
        <time>2013-07-17T07:35:58Z</time>
      </trkpt>
      <trkpt lat="45.55248" lon="2.79972">
        <ele>1484.964</ele>
        <time>2013-07-17T07:36:05Z</time>
      </trkpt>
      <trkpt lat="45.5524" lon="2.79993">
        <ele>1487.493</ele>
        <time>2013-07-17T07:36:22Z</time>
      </trkpt>
      <trkpt lat="45.55227" lon="2.80002">
        <ele>1491.083</ele>
        <time>2013-07-17T07:36:37Z</time>
      </trkpt>
      <trkpt lat="45.55216" lon="2.80009">
        <ele>1493.693</ele>
        <time>2013-07-17T07:36:52Z</time>
      </trkpt>
      <trkpt lat="45.55203" lon="2.8001">
        <ele>1495.255</ele>
        <time>2013-07-17T07:37:09Z</time>
      </trkpt>
      <trkpt lat="45.55189" lon="2.80018">
        <ele>1498.357</ele>
        <time>2013-07-17T07:37:26Z</time>
      </trkpt>
      <trkpt lat="45.55173" lon="2.80022">
        <ele>1501.432</ele>
        <time>2013-07-17T07:37:47Z</time>
      </trkpt>
      <trkpt lat="45.5516" lon="2.80016">
        <ele>1502.997</ele>
        <time>2013-07-17T07:38:02Z</time>
      </trkpt>
      <trkpt lat="45.55148" lon="2.8001">
        <ele>1506.079</ele>
        <time>2013-07-17T07:38:20Z</time>
      </trkpt>
      <trkpt lat="45.55134" lon="2.80011">
        <ele>1508.953</ele>
        <time>2013-07-17T07:38:40Z</time>
      </trkpt>
      <trkpt lat="45.55123" lon="2.80016">
        <ele>1510.944</ele>
        <time>2013-07-17T07:38:54Z</time>
      </trkpt>
      <trkpt lat="45.5511" lon="2.80013">
        <ele>1512.661</ele>
        <time>2013-07-17T07:39:08Z</time>
      </trkpt>
      <trkpt lat="45.55096" lon="2.80005">
        <ele>1514.14</ele>
        <time>2013-07-17T07:39:24Z</time>
      </trkpt>
      <trkpt lat="45.55083" lon="2.79994">
        <ele>1515.343</ele>
        <time>2013-07-17T07:39:41Z</time>
      </trkpt>
      <trkpt lat="45.55069" lon="2.79988">
        <ele>1516.292</ele>
        <time>2013-07-17T07:39:57Z</time>
      </trkpt>
      <trkpt lat="45.55053" lon="2.79989">
        <ele>1519.53</ele>
        <time>2013-07-17T07:40:14Z</time>
      </trkpt>
      <trkpt lat="45.55046" lon="2.79999">
        <ele>1521.908</ele>
        <time>2013-07-17T07:40:27Z</time>
      </trkpt>
      <trkpt lat="45.55041" lon="2.80014">
        <ele>1523.96</ele>
        <time>2013-07-17T07:40:41Z</time>
      </trkpt>
      <trkpt lat="45.55038" lon="2.8002">
        <ele>1525.21</ele>
        <time>2013-07-17T07:40:49Z</time>
      </trkpt>
      <trkpt lat="45.55037" lon="2.80026">
        <ele>1525.938</ele>
        <time>2013-07-17T07:40:54Z</time>
      </trkpt>
      <trkpt lat="45.55026" lon="2.80049">
        <ele>1528.635</ele>
        <time>2013-07-17T07:41:14Z</time>
      </trkpt>
      <trkpt lat="45.55001" lon="2.80042">
        <ele>1528.785</ele>
        <time>2013-07-17T07:41:35Z</time>
      </trkpt>
      <trkpt lat="45.54983" lon="2.80031">
        <ele>1530.792</ele>
        <time>2013-07-17T07:41:51Z</time>
      </trkpt>
      <trkpt lat="45.54971" lon="2.80017">
        <ele>1532.758</ele>
        <time>2013-07-17T07:42:05Z</time>
      </trkpt>
      <trkpt lat="45.5496" lon="2.80001">
        <ele>1533.716</ele>
        <time>2013-07-17T07:42:21Z</time>
      </trkpt>
      <trkpt lat="45.54954" lon="2.7999">
        <ele>1533.598</ele>
        <time>2013-07-17T07:42:29Z</time>
      </trkpt>
      <trkpt lat="45.5495" lon="2.79987">
        <ele>1533.923</ele>
        <time>2013-07-17T07:42:33Z</time>
      </trkpt>
      <trkpt lat="45.54938" lon="2.79972">
        <ele>1535.726</ele>
        <time>2013-07-17T07:42:49Z</time>
      </trkpt>
      <trkpt lat="45.54925" lon="2.79951">
        <ele>1536.548</ele>
        <time>2013-07-17T07:43:06Z</time>
      </trkpt>
      <trkpt lat="45.54921" lon="2.79942">
        <ele>1537.028</ele>
        <time>2013-07-17T07:43:13Z</time>
      </trkpt>
      <trkpt lat="45.54906" lon="2.79929">
        <ele>1537.46</ele>
        <time>2013-07-17T07:43:29Z</time>
      </trkpt>
      <trkpt lat="45.54888" lon="2.79916">
        <ele>1538.099</ele>
        <time>2013-07-17T07:43:48Z</time>
      </trkpt>
      <trkpt lat="45.54885" lon="2.79915">
        <ele>1538.758</ele>
        <time>2013-07-17T07:44:02Z</time>
      </trkpt>
      <trkpt lat="45.54872" lon="2.7992">
        <ele>1540.372</ele>
        <time>2013-07-17T07:44:27Z</time>
      </trkpt>
      <trkpt lat="45.54863" lon="2.79931">
        <ele>1543.466</ele>
        <time>2013-07-17T07:44:42Z</time>
      </trkpt>
      <trkpt lat="45.54858" lon="2.79939">
        <ele>1546.53</ele>
        <time>2013-07-17T07:44:55Z</time>
      </trkpt>
      <trkpt lat="45.54854" lon="2.79948">
        <ele>1549.657</ele>
        <time>2013-07-17T07:45:06Z</time>
      </trkpt>
      <trkpt lat="45.54853" lon="2.79951">
        <ele>1549.993</ele>
        <time>2013-07-17T07:45:10Z</time>
      </trkpt>
      <trkpt lat="45.54846" lon="2.79959">
        <ele>1552.052</ele>
        <time>2013-07-17T07:45:25Z</time>
      </trkpt>
      <trkpt lat="45.54839" lon="2.7997">
        <ele>1554.025</ele>
        <time>2013-07-17T07:45:39Z</time>
      </trkpt>
      <trkpt lat="45.5483" lon="2.79979">
        <ele>1556.871</ele>
        <time>2013-07-17T07:45:53Z</time>
      </trkpt>
      <trkpt lat="45.54822" lon="2.79991">
        <ele>1560.08</ele>
        <time>2013-07-17T07:46:08Z</time>
      </trkpt>
      <trkpt lat="45.54811" lon="2.79996">
        <ele>1563.146</ele>
        <time>2013-07-17T07:46:24Z</time>
      </trkpt>
      <trkpt lat="45.54797" lon="2.8001">
        <ele>1566.434</ele>
        <time>2013-07-17T07:46:42Z</time>
      </trkpt>
      <trkpt lat="45.54791" lon="2.79996">
        <ele>1569.635</ele>
        <time>2013-07-17T07:46:56Z</time>
      </trkpt>
      <trkpt lat="45.54791" lon="2.7999">
        <ele>1570.376</ele>
        <time>2013-07-17T07:47:00Z</time>
      </trkpt>
      <trkpt lat="45.54783" lon="2.79974">
        <ele>1573.63</ele>
        <time>2013-07-17T07:47:17Z</time>
      </trkpt>
      <trkpt lat="45.54775" lon="2.79962">
        <ele>1576.777</ele>
        <time>2013-07-17T07:47:32Z</time>
      </trkpt>
      <trkpt lat="45.54762" lon="2.7995">
        <ele>1579.608</ele>
        <time>2013-07-17T07:47:49Z</time>
      </trkpt>
      <trkpt lat="45.54753" lon="2.79939">
        <ele>1581.891</ele>
        <time>2013-07-17T07:48:03Z</time>
      </trkpt>
      <trkpt lat="45.54749" lon="2.79933">
        <ele>1583.334</ele>
        <time>2013-07-17T07:48:10Z</time>
      </trkpt>
      <trkpt lat="45.54739" lon="2.79913">
        <ele>1586.643</ele>
        <time>2013-07-17T07:48:26Z</time>
      </trkpt>
      <trkpt lat="45.54731" lon="2.79905">
        <ele>1588.517</ele>
        <time>2013-07-17T07:48:39Z</time>
      </trkpt>
      <trkpt lat="45.5473" lon="2.79913">
        <ele>1590.419</ele>
        <time>2013-07-17T07:48:48Z</time>
      </trkpt>
      <trkpt lat="45.54729" lon="2.79932">
        <ele>1593.507</ele>
        <time>2013-07-17T07:49:04Z</time>
      </trkpt>
      <trkpt lat="45.54725" lon="2.79951">
        <ele>1596.403</ele>
        <time>2013-07-17T07:49:18Z</time>
      </trkpt>
      <trkpt lat="45.54725" lon="2.79961">
        <ele>1597.474</ele>
        <time>2013-07-17T07:49:26Z</time>
      </trkpt>
      <trkpt lat="45.5472" lon="2.79981">
        <ele>1600.754</ele>
        <time>2013-07-17T07:49:44Z</time>
      </trkpt>
      <trkpt lat="45.5472" lon="2.79983">
        <ele>1601.259</ele>
        <time>2013-07-17T07:49:46Z</time>
      </trkpt>
      <trkpt lat="45.54712" lon="2.80002">
        <ele>1603.862</ele>
        <time>2013-07-17T07:50:01Z</time>
      </trkpt>
      <trkpt lat="45.54708" lon="2.80009">
        <ele>1605.073</ele>
        <time>2013-07-17T07:50:07Z</time>
      </trkpt>
      <trkpt lat="45.54704" lon="2.80014">
        <ele>1605.927</ele>
        <time>2013-07-17T07:50:12Z</time>
      </trkpt>
      <trkpt lat="45.54689" lon="2.80026">
        <ele>1609.351</ele>
        <time>2013-07-17T07:50:31Z</time>
      </trkpt>
      <trkpt lat="45.54687" lon="2.80022">
        <ele>1609.574</ele>
        <time>2013-07-17T07:50:34Z</time>
      </trkpt>
      <trkpt lat="45.54686" lon="2.80019">
        <ele>1610.317</ele>
        <time>2013-07-17T07:50:37Z</time>
      </trkpt>
      <trkpt lat="45.54687" lon="2.80018">
        <ele>1610.6</ele>
        <time>2013-07-17T07:50:48Z</time>
      </trkpt>
      <trkpt lat="45.54689" lon="2.80017">
        <ele>1608.323</ele>
        <time>2013-07-17T07:51:08Z</time>
      </trkpt>
      <trkpt lat="45.54689" lon="2.80017">
        <ele>1612.611</ele>
        <time>2013-07-17T07:52:10Z</time>
      </trkpt>
      <trkpt lat="45.5469" lon="2.80017">
        <ele>1610.427</ele>
        <time>2013-07-17T07:52:50Z</time>
      </trkpt>
      <trkpt lat="45.5469" lon="2.80017">
        <ele>1610.713</ele>
        <time>2013-07-17T07:53:07Z</time>
      </trkpt>
      <trkpt lat="45.5469" lon="2.80016">
        <ele>1610.965</ele>
        <time>2013-07-17T07:53:30Z</time>
      </trkpt>
      <trkpt lat="45.5469" lon="2.80015">
        <ele>1611.116</ele>
        <time>2013-07-17T07:54:02Z</time>
      </trkpt>
      <trkpt lat="45.54687" lon="2.80001">
        <ele>1613.464</ele>
        <time>2013-07-17T07:54:17Z</time>
      </trkpt>
      <trkpt lat="45.54683" lon="2.79988">
        <ele>1614.855</ele>
        <time>2013-07-17T07:54:31Z</time>
      </trkpt>
      <trkpt lat="45.54675" lon="2.79972">
        <ele>1617.429</ele>
        <time>2013-07-17T07:54:47Z</time>
      </trkpt>
      <trkpt lat="45.54669" lon="2.79962">
        <ele>1619.245</ele>
        <time>2013-07-17T07:54:57Z</time>
      </trkpt>
      <trkpt lat="45.54662" lon="2.79946">
        <ele>1621.467</ele>
        <time>2013-07-17T07:55:09Z</time>
      </trkpt>
      <trkpt lat="45.54662" lon="2.79942">
        <ele>1622.266</ele>
        <time>2013-07-17T07:55:13Z</time>
      </trkpt>
      <trkpt lat="45.54659" lon="2.79936">
        <ele>1623.048</ele>
        <time>2013-07-17T07:55:18Z</time>
      </trkpt>
      <trkpt lat="45.54654" lon="2.79941">
        <ele>1625.887</ele>
        <time>2013-07-17T07:55:32Z</time>
      </trkpt>
      <trkpt lat="45.54648" lon="2.79957">
        <ele>1628.416</ele>
        <time>2013-07-17T07:55:47Z</time>
      </trkpt>
      <trkpt lat="45.5464" lon="2.79975">
        <ele>1631.325</ele>
        <time>2013-07-17T07:56:02Z</time>
      </trkpt>
      <trkpt lat="45.54634" lon="2.79987">
        <ele>1633.433</ele>
        <time>2013-07-17T07:56:15Z</time>
      </trkpt>
      <trkpt lat="45.54629" lon="2.79998">
        <ele>1634.959</ele>
        <time>2013-07-17T07:56:25Z</time>
      </trkpt>
      <trkpt lat="45.54625" lon="2.80012">
        <ele>1638.382</ele>
        <time>2013-07-17T07:56:41Z</time>
      </trkpt>
      <trkpt lat="45.54622" lon="2.80025">
        <ele>1641.206</ele>
        <time>2013-07-17T07:56:53Z</time>
      </trkpt>
      <trkpt lat="45.54623" lon="2.80041">
        <ele>1644.145</ele>
        <time>2013-07-17T07:57:07Z</time>
      </trkpt>
      <trkpt lat="45.54613" lon="2.80047">
        <ele>1645.834</ele>
        <time>2013-07-17T07:57:22Z</time>
      </trkpt>
      <trkpt lat="45.54605" lon="2.80047">
        <ele>1648.419</ele>
        <time>2013-07-17T07:57:38Z</time>
      </trkpt>
      <trkpt lat="45.54597" lon="2.80049">
        <ele>1651.49</ele>
        <time>2013-07-17T07:57:49Z</time>
      </trkpt>
      <trkpt lat="45.54586" lon="2.80055">
        <ele>1654.312</ele>
        <time>2013-07-17T07:58:04Z</time>
      </trkpt>
      <trkpt lat="45.54576" lon="2.80073">
        <ele>1656.426</ele>
        <time>2013-07-17T07:58:22Z</time>
      </trkpt>
      <trkpt lat="45.54565" lon="2.80096">
        <ele>1658.966</ele>
        <time>2013-07-17T07:58:41Z</time>
      </trkpt>
      <trkpt lat="45.54559" lon="2.80109">
        <ele>1661.585</ele>
        <time>2013-07-17T07:58:57Z</time>
      </trkpt>
      <trkpt lat="45.5456" lon="2.80111">
        <ele>1661.725</ele>
        <time>2013-07-17T07:59:17Z</time>
      </trkpt>
      <trkpt lat="45.5456" lon="2.80109">
        <ele>1661.692</ele>
        <time>2013-07-17T07:59:41Z</time>
      </trkpt>
      <trkpt lat="45.54559" lon="2.80108">
        <ele>1661.998</ele>
        <time>2013-07-17T07:59:54Z</time>
      </trkpt>
      <trkpt lat="45.54558" lon="2.80107">
        <ele>1661.817</ele>
        <time>2013-07-17T08:00:14Z</time>
      </trkpt>
      <trkpt lat="45.54557" lon="2.80107">
        <ele>1661.969</ele>
        <time>2013-07-17T08:00:31Z</time>
      </trkpt>
      <trkpt lat="45.54557" lon="2.80107">
        <ele>1661.687</ele>
        <time>2013-07-17T08:00:45Z</time>
      </trkpt>
      <trkpt lat="45.54556" lon="2.80107">
        <ele>1661.798</ele>
        <time>2013-07-17T08:00:46Z</time>
      </trkpt>
      <trkpt lat="45.5454" lon="2.80124">
        <ele>1663.532</ele>
        <time>2013-07-17T08:01:03Z</time>
      </trkpt>
      <trkpt lat="45.54523" lon="2.80142">
        <ele>1666.729</ele>
        <time>2013-07-17T08:01:22Z</time>
      </trkpt>
      <trkpt lat="45.54504" lon="2.80156">
        <ele>1669.85</ele>
        <time>2013-07-17T08:01:40Z</time>
      </trkpt>
      <trkpt lat="45.54484" lon="2.80166">
        <ele>1671.956</ele>
        <time>2013-07-17T08:01:59Z</time>
      </trkpt>
      <trkpt lat="45.5448" lon="2.80168">
        <ele>1671.807</ele>
        <time>2013-07-17T08:02:14Z</time>
      </trkpt>
      <trkpt lat="45.54479" lon="2.80166">
        <ele>1671.98</ele>
        <time>2013-07-17T08:02:42Z</time>
      </trkpt>
      <trkpt lat="45.54478" lon="2.80163">
        <ele>1672.188</ele>
        <time>2013-07-17T08:03:05Z</time>
      </trkpt>
      <trkpt lat="45.54477" lon="2.80163">
        <ele>1671.853</ele>
        <time>2013-07-17T08:03:29Z</time>
      </trkpt>
      <trkpt lat="45.54474" lon="2.80161">
        <ele>1671.878</ele>
        <time>2013-07-17T08:03:46Z</time>
      </trkpt>
      <trkpt lat="45.54453" lon="2.80152">
        <ele>1672.34</ele>
        <time>2013-07-17T08:04:05Z</time>
      </trkpt>
      <trkpt lat="45.5445" lon="2.80152">
        <ele>1672.529</ele>
        <time>2013-07-17T08:04:09Z</time>
      </trkpt>
      <trkpt lat="45.54449" lon="2.80145">
        <ele>1672.004</ele>
        <time>2013-07-17T08:04:14Z</time>
      </trkpt>
      <trkpt lat="45.54433" lon="2.80135">
        <ele>1671.644</ele>
        <time>2013-07-17T08:04:28Z</time>
      </trkpt>
      <trkpt lat="45.54428" lon="2.80134">
        <ele>1671.821</ele>
        <time>2013-07-17T08:04:32Z</time>
      </trkpt>
      <trkpt lat="45.54419" lon="2.80139">
        <ele>1675.249</ele>
        <time>2013-07-17T08:04:49Z</time>
      </trkpt>
      <trkpt lat="45.54418" lon="2.80149">
        <ele>1678.29</ele>
        <time>2013-07-17T08:05:00Z</time>
      </trkpt>
      <trkpt lat="45.54415" lon="2.80159">
        <ele>1681.421</ele>
        <time>2013-07-17T08:05:14Z</time>
      </trkpt>
      <trkpt lat="45.54402" lon="2.80161">
        <ele>1684.575</ele>
        <time>2013-07-17T08:05:30Z</time>
      </trkpt>
      <trkpt lat="45.54381" lon="2.80171">
        <ele>1687.599</ele>
        <time>2013-07-17T08:05:51Z</time>
      </trkpt>
      <trkpt lat="45.54361" lon="2.80175">
        <ele>1688.69</ele>
        <time>2013-07-17T08:06:09Z</time>
      </trkpt>
      <trkpt lat="45.54333" lon="2.80178">
        <ele>1689.083</ele>
        <time>2013-07-17T08:06:32Z</time>
      </trkpt>
      <trkpt lat="45.54322" lon="2.8018">
        <ele>1689.178</ele>
        <time>2013-07-17T08:06:42Z</time>
      </trkpt>
      <trkpt lat="45.54319" lon="2.80183">
        <ele>1689.83</ele>
        <time>2013-07-17T08:06:45Z</time>
      </trkpt>
      <trkpt lat="45.54309" lon="2.8019">
        <ele>1691.003</ele>
        <time>2013-07-17T08:07:04Z</time>
      </trkpt>
      <trkpt lat="45.54309" lon="2.80189">
        <ele>1691.141</ele>
        <time>2013-07-17T08:07:33Z</time>
      </trkpt>
      <trkpt lat="45.54303" lon="2.80187">
        <ele>1691.07</ele>
        <time>2013-07-17T08:07:46Z</time>
      </trkpt>
      <trkpt lat="45.5429" lon="2.80187">
        <ele>1690.238</ele>
        <time>2013-07-17T08:07:59Z</time>
      </trkpt>
      <trkpt lat="45.54273" lon="2.80181">
        <ele>1688.19</ele>
        <time>2013-07-17T08:08:16Z</time>
      </trkpt>
      <trkpt lat="45.54255" lon="2.80172">
        <ele>1684.996</ele>
        <time>2013-07-17T08:08:34Z</time>
      </trkpt>
      <trkpt lat="45.54245" lon="2.80164">
        <ele>1683.1</ele>
        <time>2013-07-17T08:08:44Z</time>
      </trkpt>
      <trkpt lat="45.5424" lon="2.80163">
        <ele>1682.391</ele>
        <time>2013-07-17T08:08:49Z</time>
      </trkpt>
      <trkpt lat="45.54229" lon="2.80157">
        <ele>1681.103</ele>
        <time>2013-07-17T08:09:01Z</time>
      </trkpt>
      <trkpt lat="45.54227" lon="2.80156">
        <ele>1680.598</ele>
        <time>2013-07-17T08:09:03Z</time>
      </trkpt>
      <trkpt lat="45.54219" lon="2.80151">
        <ele>1679.201</ele>
        <time>2013-07-17T08:09:12Z</time>
      </trkpt>
      <trkpt lat="45.54215" lon="2.80151">
        <ele>1678.438</ele>
        <time>2013-07-17T08:09:16Z</time>
      </trkpt>
      <trkpt lat="45.54193" lon="2.8014">
        <ele>1675.515</ele>
        <time>2013-07-17T08:09:35Z</time>
      </trkpt>
      <trkpt lat="45.54186" lon="2.80138">
        <ele>1674.551</ele>
        <time>2013-07-17T08:09:41Z</time>
      </trkpt>
      <trkpt lat="45.54184" lon="2.80138">
        <ele>1674.113</ele>
        <time>2013-07-17T08:09:43Z</time>
      </trkpt>
      <trkpt lat="45.54169" lon="2.80128">
        <ele>1670.862</ele>
        <time>2013-07-17T08:09:56Z</time>
      </trkpt>
      <trkpt lat="45.54168" lon="2.80127">
        <ele>1670.755</ele>
        <time>2013-07-17T08:09:57Z</time>
      </trkpt>
      <trkpt lat="45.54162" lon="2.80122">
        <ele>1669.181</ele>
        <time>2013-07-17T08:10:04Z</time>
      </trkpt>
      <trkpt lat="45.54149" lon="2.80116">
        <ele>1666.653</ele>
        <time>2013-07-17T08:10:15Z</time>
      </trkpt>
      <trkpt lat="45.54143" lon="2.80112">
        <ele>1664.855</ele>
        <time>2013-07-17T08:10:21Z</time>
      </trkpt>
      <trkpt lat="45.54141" lon="2.80111">
        <ele>1664.472</ele>
        <time>2013-07-17T08:10:23Z</time>
      </trkpt>
      <trkpt lat="45.54138" lon="2.8011">
        <ele>1663.874</ele>
        <time>2013-07-17T08:10:26Z</time>
      </trkpt>
      <trkpt lat="45.54121" lon="2.80101">
        <ele>1660.665</ele>
        <time>2013-07-17T08:10:40Z</time>
      </trkpt>
      <trkpt lat="45.54101" lon="2.801">
        <ele>1657.714</ele>
        <time>2013-07-17T08:10:57Z</time>
      </trkpt>
      <trkpt lat="45.5408" lon="2.80106">
        <ele>1655.825</ele>
        <time>2013-07-17T08:11:14Z</time>
      </trkpt>
      <trkpt lat="45.54069" lon="2.80115">
        <ele>1655.805</ele>
        <time>2013-07-17T08:11:33Z</time>
      </trkpt>
      <trkpt lat="45.54059" lon="2.80123">
        <ele>1656.374</ele>
        <time>2013-07-17T08:11:43Z</time>
      </trkpt>
      <trkpt lat="45.54036" lon="2.80128">
        <ele>1655.134</ele>
        <time>2013-07-17T08:12:01Z</time>
      </trkpt>
      <trkpt lat="45.54011" lon="2.80133">
        <ele>1656.071</ele>
        <time>2013-07-17T08:12:21Z</time>
      </trkpt>
      <trkpt lat="45.53993" lon="2.80134">
        <ele>1656.391</ele>
        <time>2013-07-17T08:12:35Z</time>
      </trkpt>
      <trkpt lat="45.53971" lon="2.80134">
        <ele>1658.726</ele>
        <time>2013-07-17T08:12:55Z</time>
      </trkpt>
      <trkpt lat="45.53948" lon="2.8013">
        <ele>1661.951</ele>
        <time>2013-07-17T08:13:17Z</time>
      </trkpt>
      <trkpt lat="45.53931" lon="2.80128">
        <ele>1664.293</ele>
        <time>2013-07-17T08:13:36Z</time>
      </trkpt>
      <trkpt lat="45.53915" lon="2.80119">
        <ele>1666.854</ele>
        <time>2013-07-17T08:13:53Z</time>
      </trkpt>
      <trkpt lat="45.53893" lon="2.80116">
        <ele>1668.365</ele>
        <time>2013-07-17T08:14:13Z</time>
      </trkpt>
      <trkpt lat="45.53868" lon="2.80108">
        <ele>1670.734</ele>
        <time>2013-07-17T08:14:37Z</time>
      </trkpt>
      <trkpt lat="45.53847" lon="2.80104">
        <ele>1673.341</ele>
        <time>2013-07-17T08:14:57Z</time>
      </trkpt>
      <trkpt lat="45.53828" lon="2.80101">
        <ele>1673.623</ele>
        <time>2013-07-17T08:15:15Z</time>
      </trkpt>
      <trkpt lat="45.53798" lon="2.80097">
        <ele>1675.477</ele>
        <time>2013-07-17T08:15:39Z</time>
      </trkpt>
      <trkpt lat="45.53775" lon="2.80096">
        <ele>1677.177</ele>
        <time>2013-07-17T08:15:59Z</time>
      </trkpt>
      <trkpt lat="45.53755" lon="2.80092">
        <ele>1680.179</ele>
        <time>2013-07-17T08:16:18Z</time>
      </trkpt>
      <trkpt lat="45.53736" lon="2.80086">
        <ele>1681.941</ele>
        <time>2013-07-17T08:16:37Z</time>
      </trkpt>
      <trkpt lat="45.53734" lon="2.80084">
        <ele>1682.517</ele>
        <time>2013-07-17T08:16:56Z</time>
      </trkpt>
      <trkpt lat="45.5372" lon="2.80078">
        <ele>1685.086</ele>
        <time>2013-07-17T08:17:52Z</time>
      </trkpt>
      <trkpt lat="45.53703" lon="2.80069">
        <ele>1688.39</ele>
        <time>2013-07-17T08:18:11Z</time>
      </trkpt>
      <trkpt lat="45.53692" lon="2.80062">
        <ele>1689.132</ele>
        <time>2013-07-17T08:18:21Z</time>
      </trkpt>
      <trkpt lat="45.53673" lon="2.80046">
        <ele>1689.184</ele>
        <time>2013-07-17T08:18:40Z</time>
      </trkpt>
      <trkpt lat="45.53664" lon="2.80044">
        <ele>1689.292</ele>
        <time>2013-07-17T08:18:48Z</time>
      </trkpt>
      <trkpt lat="45.53654" lon="2.80037">
        <ele>1688.798</ele>
        <time>2013-07-17T08:19:03Z</time>
      </trkpt>
      <trkpt lat="45.53649" lon="2.80036">
        <ele>1689.141</ele>
        <time>2013-07-17T08:19:08Z</time>
      </trkpt>
      <trkpt lat="45.53636" lon="2.80027">
        <ele>1689.735</ele>
        <time>2013-07-17T08:19:22Z</time>
      </trkpt>
      <trkpt lat="45.53612" lon="2.8002">
        <ele>1690.828</ele>
        <time>2013-07-17T08:19:43Z</time>
      </trkpt>
      <trkpt lat="45.5359" lon="2.80012">
        <ele>1690.625</ele>
        <time>2013-07-17T08:20:02Z</time>
      </trkpt>
      <trkpt lat="45.53575" lon="2.80002">
        <ele>1688.345</ele>
        <time>2013-07-17T08:20:19Z</time>
      </trkpt>
      <trkpt lat="45.53564" lon="2.79996">
        <ele>1686.374</ele>
        <time>2013-07-17T08:20:30Z</time>
      </trkpt>
      <trkpt lat="45.5354" lon="2.79987">
        <ele>1684.716</ele>
        <time>2013-07-17T08:20:52Z</time>
      </trkpt>
      <trkpt lat="45.53535" lon="2.79985">
        <ele>1685.547</ele>
        <time>2013-07-17T08:20:56Z</time>
      </trkpt>
      <trkpt lat="45.53533" lon="2.79981">
        <ele>1685.987</ele>
        <time>2013-07-17T08:20:59Z</time>
      </trkpt>
      <trkpt lat="45.5353" lon="2.79979">
        <ele>1686.367</ele>
        <time>2013-07-17T08:21:02Z</time>
      </trkpt>
      <trkpt lat="45.5352" lon="2.79972">
        <ele>1689.858</ele>
        <time>2013-07-17T08:21:16Z</time>
      </trkpt>
      <trkpt lat="45.53509" lon="2.79969">
        <ele>1690.969</ele>
        <time>2013-07-17T08:21:30Z</time>
      </trkpt>
      <trkpt lat="45.53507" lon="2.79969">
        <ele>1690.754</ele>
        <time>2013-07-17T08:21:33Z</time>
      </trkpt>
      <trkpt lat="45.53503" lon="2.79974">
        <ele>1690.809</ele>
        <time>2013-07-17T08:21:42Z</time>
      </trkpt>
      <trkpt lat="45.53488" lon="2.79978">
        <ele>1688.15</ele>
        <time>2013-07-17T08:21:56Z</time>
      </trkpt>
      <trkpt lat="45.53476" lon="2.79979">
        <ele>1688.222</ele>
        <time>2013-07-17T08:22:05Z</time>
      </trkpt>
      <trkpt lat="45.53459" lon="2.79971">
        <ele>1691.447</ele>
        <time>2013-07-17T08:22:21Z</time>
      </trkpt>
      <trkpt lat="45.53442" lon="2.7996">
        <ele>1694.68</ele>
        <time>2013-07-17T08:22:38Z</time>
      </trkpt>
      <trkpt lat="45.53438" lon="2.79958">
        <ele>1695.943</ele>
        <time>2013-07-17T08:22:44Z</time>
      </trkpt>
      <trkpt lat="45.53423" lon="2.79954">
        <ele>1699.071</ele>
        <time>2013-07-17T08:22:59Z</time>
      </trkpt>
      <trkpt lat="45.53416" lon="2.79954">
        <ele>1702.167</ele>
        <time>2013-07-17T08:23:09Z</time>
      </trkpt>
      <trkpt lat="45.5341" lon="2.79958">
        <ele>1705.399</ele>
        <time>2013-07-17T08:23:20Z</time>
      </trkpt>
      <trkpt lat="45.53403" lon="2.79964">
        <ele>1708.628</ele>
        <time>2013-07-17T08:23:35Z</time>
      </trkpt>
      <trkpt lat="45.53398" lon="2.79971">
        <ele>1711.798</ele>
        <time>2013-07-17T08:23:48Z</time>
      </trkpt>
      <trkpt lat="45.53391" lon="2.79977">
        <ele>1715.16</ele>
        <time>2013-07-17T08:24:01Z</time>
      </trkpt>
      <trkpt lat="45.53379" lon="2.79979">
        <ele>1718.23</ele>
        <time>2013-07-17T08:24:18Z</time>
      </trkpt>
      <trkpt lat="45.5338" lon="2.79979">
        <ele>1718.729</ele>
        <time>2013-07-17T08:24:52Z</time>
      </trkpt>
      <trkpt lat="45.53378" lon="2.7998">
        <ele>1717.862</ele>
        <time>2013-07-17T08:25:14Z</time>
      </trkpt>
      <trkpt lat="45.53367" lon="2.79976">
        <ele>1719.982</ele>
        <time>2013-07-17T08:27:15Z</time>
      </trkpt>
      <trkpt lat="45.53354" lon="2.79976">
        <ele>1722.982</ele>
        <time>2013-07-17T08:27:30Z</time>
      </trkpt>
      <trkpt lat="45.53346" lon="2.79979">
        <ele>1726.077</ele>
        <time>2013-07-17T08:27:42Z</time>
      </trkpt>
      <trkpt lat="45.53339" lon="2.79981">
        <ele>1729.156</ele>
        <time>2013-07-17T08:27:57Z</time>
      </trkpt>
      <trkpt lat="45.53331" lon="2.79985">
        <ele>1732.581</ele>
        <time>2013-07-17T08:28:11Z</time>
      </trkpt>
      <trkpt lat="45.53324" lon="2.79988">
        <ele>1736.158</ele>
        <time>2013-07-17T08:28:26Z</time>
      </trkpt>
      <trkpt lat="45.53319" lon="2.79992">
        <ele>1738.373</ele>
        <time>2013-07-17T08:28:36Z</time>
      </trkpt>
      <trkpt lat="45.53322" lon="2.80005">
        <ele>1741.073</ele>
        <time>2013-07-17T08:28:54Z</time>
      </trkpt>
      <trkpt lat="45.53322" lon="2.80006">
        <ele>1741.17</ele>
        <time>2013-07-17T08:28:55Z</time>
      </trkpt>
      <trkpt lat="45.53324" lon="2.80013">
        <ele>1741.198</ele>
        <time>2013-07-17T08:29:11Z</time>
      </trkpt>
      <trkpt lat="45.5332" lon="2.8002">
        <ele>1738.246</ele>
        <time>2013-07-17T08:30:27Z</time>
      </trkpt>
      <trkpt lat="45.53316" lon="2.80028">
        <ele>1735.166</ele>
        <time>2013-07-17T08:30:37Z</time>
      </trkpt>
      <trkpt lat="45.5331" lon="2.80038">
        <ele>1732.032</ele>
        <time>2013-07-17T08:30:50Z</time>
      </trkpt>
      <trkpt lat="45.53305" lon="2.8005">
        <ele>1728.869</ele>
        <time>2013-07-17T08:31:05Z</time>
      </trkpt>
      <trkpt lat="45.53302" lon="2.80059">
        <ele>1725.987</ele>
        <time>2013-07-17T08:31:17Z</time>
      </trkpt>
      <trkpt lat="45.53298" lon="2.80069">
        <ele>1723.318</ele>
        <time>2013-07-17T08:31:27Z</time>
      </trkpt>
      <trkpt lat="45.53295" lon="2.80086">
        <ele>1719.358</ele>
        <time>2013-07-17T08:31:39Z</time>
      </trkpt>
      <trkpt lat="45.53293" lon="2.80096">
        <ele>1718.008</ele>
        <time>2013-07-17T08:31:45Z</time>
      </trkpt>
      <trkpt lat="45.53292" lon="2.80105">
        <ele>1717.224</ele>
        <time>2013-07-17T08:31:50Z</time>
      </trkpt>
      <trkpt lat="45.53285" lon="2.8013">
        <ele>1717.773</ele>
        <time>2013-07-17T08:32:10Z</time>
      </trkpt>
      <trkpt lat="45.53284" lon="2.8013">
        <ele>1718.274</ele>
        <time>2013-07-17T08:32:33Z</time>
      </trkpt>
      <trkpt lat="45.53282" lon="2.80153">
        <ele>1720.875</ele>
        <time>2013-07-17T08:32:50Z</time>
      </trkpt>
      <trkpt lat="45.53281" lon="2.80159">
        <ele>1720.698</ele>
        <time>2013-07-17T08:32:54Z</time>
      </trkpt>
      <trkpt lat="45.5328" lon="2.80162">
        <ele>1720.722</ele>
        <time>2013-07-17T08:32:56Z</time>
      </trkpt>
      <trkpt lat="45.5328" lon="2.80165">
        <ele>1720.575</ele>
        <time>2013-07-17T08:32:58Z</time>
      </trkpt>
      <trkpt lat="45.5328" lon="2.8017">
        <ele>1720.916</ele>
        <time>2013-07-17T08:33:01Z</time>
      </trkpt>
      <trkpt lat="45.5328" lon="2.8018">
        <ele>1720.579</ele>
        <time>2013-07-17T08:33:10Z</time>
      </trkpt>
      <trkpt lat="45.53277" lon="2.80183">
        <ele>1719.272</ele>
        <time>2013-07-17T08:33:14Z</time>
      </trkpt>
      <trkpt lat="45.53276" lon="2.80184">
        <ele>1719.151</ele>
        <time>2013-07-17T08:33:15Z</time>
      </trkpt>
      <trkpt lat="45.53266" lon="2.80201">
        <ele>1715.73</ele>
        <time>2013-07-17T08:33:29Z</time>
      </trkpt>
      <trkpt lat="45.53265" lon="2.80204">
        <ele>1715.268</ele>
        <time>2013-07-17T08:33:31Z</time>
      </trkpt>
      <trkpt lat="45.53263" lon="2.80209">
        <ele>1715.269</ele>
        <time>2013-07-17T08:33:34Z</time>
      </trkpt>
      <trkpt lat="45.53258" lon="2.80217">
        <ele>1715.275</ele>
        <time>2013-07-17T08:33:40Z</time>
      </trkpt>
      <trkpt lat="45.53256" lon="2.80233">
        <ele>1716.263</ele>
        <time>2013-07-17T08:33:50Z</time>
      </trkpt>
      <trkpt lat="45.53242" lon="2.80265">
        <ele>1717.749</ele>
        <time>2013-07-17T08:34:12Z</time>
      </trkpt>
      <trkpt lat="45.53241" lon="2.80272">
        <ele>1717.593</ele>
        <time>2013-07-17T08:34:16Z</time>
      </trkpt>
      <trkpt lat="45.53232" lon="2.80291">
        <ele>1717.995</ele>
        <time>2013-07-17T08:34:30Z</time>
      </trkpt>
      <trkpt lat="45.53218" lon="2.80312">
        <ele>1716.222</ele>
        <time>2013-07-17T08:34:46Z</time>
      </trkpt>
      <trkpt lat="45.53213" lon="2.80322">
        <ele>1715.046</ele>
        <time>2013-07-17T08:34:53Z</time>
      </trkpt>
      <trkpt lat="45.53206" lon="2.80356">
        <ele>1712.197</ele>
        <time>2013-07-17T08:35:13Z</time>
      </trkpt>
      <trkpt lat="45.53199" lon="2.80378">
        <ele>1709.123</ele>
        <time>2013-07-17T08:35:28Z</time>
      </trkpt>
      <trkpt lat="45.53193" lon="2.80395">
        <ele>1706.374</ele>
        <time>2013-07-17T08:35:40Z</time>
      </trkpt>
      <trkpt lat="45.53186" lon="2.80404">
        <ele>1707.725</ele>
        <time>2013-07-17T08:35:52Z</time>
      </trkpt>
      <trkpt lat="45.53186" lon="2.80405">
        <ele>1708.051</ele>
        <time>2013-07-17T08:35:56Z</time>
      </trkpt>
      <trkpt lat="45.53186" lon="2.80416">
        <ele>1708.446</ele>
        <time>2013-07-17T08:36:04Z</time>
      </trkpt>
      <trkpt lat="45.53195" lon="2.80421">
        <ele>1708.025</ele>
        <time>2013-07-17T08:36:18Z</time>
      </trkpt>
      <trkpt lat="45.53193" lon="2.8042">
        <ele>1707.868</ele>
        <time>2013-07-17T08:37:00Z</time>
      </trkpt>
      <trkpt lat="45.53195" lon="2.8042">
        <ele>1707.598</ele>
        <time>2013-07-17T08:37:15Z</time>
      </trkpt>
      <trkpt lat="45.53194" lon="2.80423">
        <ele>1707.782</ele>
        <time>2013-07-17T08:37:34Z</time>
      </trkpt>
      <trkpt lat="45.53188" lon="2.80426">
        <ele>1708.6</ele>
        <time>2013-07-17T08:37:49Z</time>
      </trkpt>
      <trkpt lat="45.53184" lon="2.80426">
        <ele>1708.814</ele>
        <time>2013-07-17T08:37:56Z</time>
      </trkpt>
      <trkpt lat="45.53184" lon="2.80428">
        <ele>1708.809</ele>
        <time>2013-07-17T08:37:58Z</time>
      </trkpt>
      <trkpt lat="45.53181" lon="2.80435">
        <ele>1709.872</ele>
        <time>2013-07-17T08:38:04Z</time>
      </trkpt>
      <trkpt lat="45.53181" lon="2.80447">
        <ele>1710.837</ele>
        <time>2013-07-17T08:38:13Z</time>
      </trkpt>
      <trkpt lat="45.53179" lon="2.80458">
        <ele>1710.385</ele>
        <time>2013-07-17T08:38:20Z</time>
      </trkpt>
      <trkpt lat="45.53175" lon="2.80465">
        <ele>1710.816</ele>
        <time>2013-07-17T08:38:25Z</time>
      </trkpt>
      <trkpt lat="45.53174" lon="2.80485">
        <ele>1711.851</ele>
        <time>2013-07-17T08:38:36Z</time>
      </trkpt>
      <trkpt lat="45.53171" lon="2.8049">
        <ele>1712.716</ele>
        <time>2013-07-17T08:38:40Z</time>
      </trkpt>
      <trkpt lat="45.53162" lon="2.8051">
        <ele>1713.02</ele>
        <time>2013-07-17T08:38:53Z</time>
      </trkpt>
      <trkpt lat="45.53152" lon="2.80537">
        <ele>1711.913</ele>
        <time>2013-07-17T08:39:10Z</time>
      </trkpt>
      <trkpt lat="45.53153" lon="2.80558">
        <ele>1712.124</ele>
        <time>2013-07-17T08:39:21Z</time>
      </trkpt>
      <trkpt lat="45.53156" lon="2.80563">
        <ele>1712.449</ele>
        <time>2013-07-17T08:39:24Z</time>
      </trkpt>
      <trkpt lat="45.53155" lon="2.80587">
        <ele>1715.56</ele>
        <time>2013-07-17T08:39:41Z</time>
      </trkpt>
      <trkpt lat="45.53154" lon="2.80588">
        <ele>1715.972</ele>
        <time>2013-07-17T08:39:42Z</time>
      </trkpt>
      <trkpt lat="45.53152" lon="2.80596">
        <ele>1716.588</ele>
        <time>2013-07-17T08:39:47Z</time>
      </trkpt>
      <trkpt lat="45.53153" lon="2.80608">
        <ele>1718.231</ele>
        <time>2013-07-17T08:39:57Z</time>
      </trkpt>
      <trkpt lat="45.53154" lon="2.80612">
        <ele>1718.375</ele>
        <time>2013-07-17T08:39:59Z</time>
      </trkpt>
      <trkpt lat="45.53154" lon="2.80616">
        <ele>1718.944</ele>
        <time>2013-07-17T08:40:02Z</time>
      </trkpt>
      <trkpt lat="45.53153" lon="2.80621">
        <ele>1719.386</ele>
        <time>2013-07-17T08:40:06Z</time>
      </trkpt>
      <trkpt lat="45.53151" lon="2.80641">
        <ele>1722.014</ele>
        <time>2013-07-17T08:40:20Z</time>
      </trkpt>
      <trkpt lat="45.53151" lon="2.80667">
        <ele>1724.601</ele>
        <time>2013-07-17T08:40:36Z</time>
      </trkpt>
      <trkpt lat="45.5315" lon="2.8067">
        <ele>1725.103</ele>
        <time>2013-07-17T08:40:39Z</time>
      </trkpt>
      <trkpt lat="45.53147" lon="2.8069">
        <ele>1727.807</ele>
        <time>2013-07-17T08:40:54Z</time>
      </trkpt>
      <trkpt lat="45.53149" lon="2.80694">
        <ele>1728.343</ele>
        <time>2013-07-17T08:40:57Z</time>
      </trkpt>
      <trkpt lat="45.53149" lon="2.80707">
        <ele>1731.819</ele>
        <time>2013-07-17T08:41:10Z</time>
      </trkpt>
      <trkpt lat="45.53148" lon="2.80711">
        <ele>1733.187</ele>
        <time>2013-07-17T08:41:15Z</time>
      </trkpt>
      <trkpt lat="45.5314" lon="2.80722">
        <ele>1736.837</ele>
        <time>2013-07-17T08:41:30Z</time>
      </trkpt>
      <trkpt lat="45.53142" lon="2.80728">
        <ele>1738.402</ele>
        <time>2013-07-17T08:41:37Z</time>
      </trkpt>
      <trkpt lat="45.5314" lon="2.80738">
        <ele>1741.708</ele>
        <time>2013-07-17T08:41:52Z</time>
      </trkpt>
      <trkpt lat="45.53141" lon="2.80742">
        <ele>1742.596</ele>
        <time>2013-07-17T08:41:57Z</time>
      </trkpt>
      <trkpt lat="45.53138" lon="2.8075">
        <ele>1745.995</ele>
        <time>2013-07-17T08:42:12Z</time>
      </trkpt>
      <trkpt lat="45.53128" lon="2.80749">
        <ele>1749.174</ele>
        <time>2013-07-17T08:42:29Z</time>
      </trkpt>
      <trkpt lat="45.53118" lon="2.80753">
        <ele>1752.372</ele>
        <time>2013-07-17T08:42:43Z</time>
      </trkpt>
      <trkpt lat="45.53109" lon="2.8075">
        <ele>1755.628</ele>
        <time>2013-07-17T08:42:59Z</time>
      </trkpt>
      <trkpt lat="45.53104" lon="2.80755">
        <ele>1758.722</ele>
        <time>2013-07-17T08:43:10Z</time>
      </trkpt>
      <trkpt lat="45.53102" lon="2.80765">
        <ele>1761.665</ele>
        <time>2013-07-17T08:43:24Z</time>
      </trkpt>
      <trkpt lat="45.531" lon="2.80765">
        <ele>1762.328</ele>
        <time>2013-07-17T08:43:45Z</time>
      </trkpt>
      <trkpt lat="45.531" lon="2.8077">
        <ele>1762.897</ele>
        <time>2013-07-17T08:44:21Z</time>
      </trkpt>
      <trkpt lat="45.531" lon="2.80779">
        <ele>1765.653</ele>
        <time>2013-07-17T08:44:39Z</time>
      </trkpt>
      <trkpt lat="45.53098" lon="2.80787">
        <ele>1768.49</ele>
        <time>2013-07-17T08:44:55Z</time>
      </trkpt>
      <trkpt lat="45.53097" lon="2.80791">
        <ele>1765.936</ele>
        <time>2013-07-17T08:45:06Z</time>
      </trkpt>
      <trkpt lat="45.53097" lon="2.8078">
        <ele>1768.342</ele>
        <time>2013-07-17T08:45:45Z</time>
      </trkpt>
      <trkpt lat="45.53098" lon="2.80789">
        <ele>1766.137</ele>
        <time>2013-07-17T08:46:00Z</time>
      </trkpt>
      <trkpt lat="45.53098" lon="2.80789">
        <ele>1766.092</ele>
        <time>2013-07-17T08:46:15Z</time>
      </trkpt>
      <trkpt lat="45.53099" lon="2.80794">
        <ele>1765.451</ele>
        <time>2013-07-17T08:46:42Z</time>
      </trkpt>
      <trkpt lat="45.53092" lon="2.80827">
        <ele>1765.054</ele>
        <time>2013-07-17T08:47:02Z</time>
      </trkpt>
      <trkpt lat="45.53093" lon="2.80833">
        <ele>1766.602</ele>
        <time>2013-07-17T08:47:10Z</time>
      </trkpt>
      <trkpt lat="45.53093" lon="2.80835">
        <ele>1766.677</ele>
        <time>2013-07-17T08:47:12Z</time>
      </trkpt>
      <trkpt lat="45.53089" lon="2.80848">
        <ele>1768.975</ele>
        <time>2013-07-17T08:47:24Z</time>
      </trkpt>
      <trkpt lat="45.5309" lon="2.80852">
        <ele>1770.991</ele>
        <time>2013-07-17T08:47:37Z</time>
      </trkpt>
      <trkpt lat="45.5309" lon="2.80866">
        <ele>1774.104</ele>
        <time>2013-07-17T08:47:53Z</time>
      </trkpt>
      <trkpt lat="45.53085" lon="2.80874">
        <ele>1777.487</ele>
        <time>2013-07-17T08:48:08Z</time>
      </trkpt>
      <trkpt lat="45.53085" lon="2.80875">
        <ele>1777.882</ele>
        <time>2013-07-17T08:48:09Z</time>
      </trkpt>
      <trkpt lat="45.53083" lon="2.80882">
        <ele>1777.705</ele>
        <time>2013-07-17T08:48:23Z</time>
      </trkpt>
      <trkpt lat="45.53079" lon="2.80897">
        <ele>1779.456</ele>
        <time>2013-07-17T08:48:37Z</time>
      </trkpt>
      <trkpt lat="45.53076" lon="2.80899">
        <ele>1780.185</ele>
        <time>2013-07-17T08:48:41Z</time>
      </trkpt>
      <trkpt lat="45.53063" lon="2.80907">
        <ele>1781.929</ele>
        <time>2013-07-17T08:48:57Z</time>
      </trkpt>
      <trkpt lat="45.5306" lon="2.80918">
        <ele>1784.068</ele>
        <time>2013-07-17T08:49:09Z</time>
      </trkpt>
      <trkpt lat="45.53053" lon="2.80936">
        <ele>1787.487</ele>
        <time>2013-07-17T08:49:26Z</time>
      </trkpt>
      <trkpt lat="45.5305" lon="2.80943">
        <ele>1789.035</ele>
        <time>2013-07-17T08:49:34Z</time>
      </trkpt>
      <trkpt lat="45.53048" lon="2.80946">
        <ele>1789.988</ele>
        <time>2013-07-17T08:49:38Z</time>
      </trkpt>
      <trkpt lat="45.53043" lon="2.80956">
        <ele>1792.467</ele>
        <time>2013-07-17T08:49:53Z</time>
      </trkpt>
      <trkpt lat="45.53036" lon="2.80969">
        <ele>1795.184</ele>
        <time>2013-07-17T08:50:07Z</time>
      </trkpt>
      <trkpt lat="45.53025" lon="2.80985">
        <ele>1798.264</ele>
        <time>2013-07-17T08:50:25Z</time>
      </trkpt>
      <trkpt lat="45.53023" lon="2.80999">
        <ele>1800.457</ele>
        <time>2013-07-17T08:50:39Z</time>
      </trkpt>
      <trkpt lat="45.53025" lon="2.81004">
        <ele>1800.756</ele>
        <time>2013-07-17T08:50:43Z</time>
      </trkpt>
      <trkpt lat="45.53032" lon="2.81022">
        <ele>1801.331</ele>
        <time>2013-07-17T08:50:57Z</time>
      </trkpt>
      <trkpt lat="45.53035" lon="2.81023">
        <ele>1802.592</ele>
        <time>2013-07-17T08:51:04Z</time>
      </trkpt>
      <trkpt lat="45.53039" lon="2.81037">
        <ele>1805.195</ele>
        <time>2013-07-17T08:51:18Z</time>
      </trkpt>
      <trkpt lat="45.53043" lon="2.81047">
        <ele>1807.038</ele>
        <time>2013-07-17T08:51:27Z</time>
      </trkpt>
      <trkpt lat="45.53044" lon="2.81051">
        <ele>1806.92</ele>
        <time>2013-07-17T08:51:30Z</time>
      </trkpt>
      <trkpt lat="45.53046" lon="2.81054">
        <ele>1806.771</ele>
        <time>2013-07-17T08:51:33Z</time>
      </trkpt>
      <trkpt lat="45.53049" lon="2.81065">
        <ele>1806.391</ele>
        <time>2013-07-17T08:51:39Z</time>
      </trkpt>
      <trkpt lat="45.5305" lon="2.81083">
        <ele>1806.642</ele>
        <time>2013-07-17T08:51:49Z</time>
      </trkpt>
      <trkpt lat="45.53043" lon="2.81107">
        <ele>1806.771</ele>
        <time>2013-07-17T08:52:03Z</time>
      </trkpt>
      <trkpt lat="45.53045" lon="2.81113">
        <ele>1807.251</ele>
        <time>2013-07-17T08:52:07Z</time>
      </trkpt>
      <trkpt lat="45.53045" lon="2.81118">
        <ele>1807.477</ele>
        <time>2013-07-17T08:52:10Z</time>
      </trkpt>
      <trkpt lat="45.53041" lon="2.81136">
        <ele>1808.43</ele>
        <time>2013-07-17T08:52:20Z</time>
      </trkpt>
      <trkpt lat="45.5303" lon="2.81154">
        <ele>1811.397</ele>
        <time>2013-07-17T08:52:40Z</time>
      </trkpt>
      <trkpt lat="45.53021" lon="2.81155">
        <ele>1810.922</ele>
        <time>2013-07-17T08:52:53Z</time>
      </trkpt>
      <trkpt lat="45.5302" lon="2.81156">
        <ele>1810.853</ele>
        <time>2013-07-17T08:52:54Z</time>
      </trkpt>
      <trkpt lat="45.53018" lon="2.81159">
        <ele>1810.673</ele>
        <time>2013-07-17T08:52:57Z</time>
      </trkpt>
      <trkpt lat="45.53005" lon="2.81164">
        <ele>1810.197</ele>
        <time>2013-07-17T08:53:10Z</time>
      </trkpt>
      <trkpt lat="45.53" lon="2.81168">
        <ele>1810.144</ele>
        <time>2013-07-17T08:53:26Z</time>
      </trkpt>
      <trkpt lat="45.52999" lon="2.81165">
        <ele>1809.831</ele>
        <time>2013-07-17T08:53:43Z</time>
      </trkpt>
      <trkpt lat="45.52999" lon="2.81166">
        <ele>1810.198</ele>
        <time>2013-07-17T08:56:59Z</time>
      </trkpt>
      <trkpt lat="45.52991" lon="2.8118">
        <ele>1807.739</ele>
        <time>2013-07-17T08:57:14Z</time>
      </trkpt>
      <trkpt lat="45.52979" lon="2.81198">
        <ele>1808.138</ele>
        <time>2013-07-17T08:57:31Z</time>
      </trkpt>
      <trkpt lat="45.52965" lon="2.81215">
        <ele>1809.719</ele>
        <time>2013-07-17T08:57:49Z</time>
      </trkpt>
      <trkpt lat="45.52957" lon="2.8123">
        <ele>1810.219</ele>
        <time>2013-07-17T08:58:03Z</time>
      </trkpt>
      <trkpt lat="45.52946" lon="2.81244">
        <ele>1812.454</ele>
        <time>2013-07-17T08:58:22Z</time>
      </trkpt>
      <trkpt lat="45.52942" lon="2.81254">
        <ele>1815.626</ele>
        <time>2013-07-17T08:58:36Z</time>
      </trkpt>
      <trkpt lat="45.52936" lon="2.81268">
        <ele>1818.682</ele>
        <time>2013-07-17T08:58:57Z</time>
      </trkpt>
      <trkpt lat="45.52931" lon="2.8128">
        <ele>1821.776</ele>
        <time>2013-07-17T08:59:13Z</time>
      </trkpt>
      <trkpt lat="45.52924" lon="2.81288">
        <ele>1824.912</ele>
        <time>2013-07-17T08:59:26Z</time>
      </trkpt>
      <trkpt lat="45.52921" lon="2.81294">
        <ele>1828.232</ele>
        <time>2013-07-17T08:59:40Z</time>
      </trkpt>
      <trkpt lat="45.52916" lon="2.81297">
        <ele>1831.059</ele>
        <time>2013-07-17T08:59:56Z</time>
      </trkpt>
      <trkpt lat="45.52911" lon="2.81299">
        <ele>1834.313</ele>
        <time>2013-07-17T09:00:11Z</time>
      </trkpt>
      <trkpt lat="45.52906" lon="2.81301">
        <ele>1837.605</ele>
        <time>2013-07-17T09:00:24Z</time>
      </trkpt>
      <trkpt lat="45.52899" lon="2.81303">
        <ele>1840.658</ele>
        <time>2013-07-17T09:00:37Z</time>
      </trkpt>
      <trkpt lat="45.52892" lon="2.81307">
        <ele>1843.686</ele>
        <time>2013-07-17T09:00:53Z</time>
      </trkpt>
      <trkpt lat="45.52887" lon="2.81312">
        <ele>1846.901</ele>
        <time>2013-07-17T09:01:10Z</time>
      </trkpt>
      <trkpt lat="45.52882" lon="2.81318">
        <ele>1850.032</ele>
        <time>2013-07-17T09:01:28Z</time>
      </trkpt>
      <trkpt lat="45.5288" lon="2.81326">
        <ele>1853.146</ele>
        <time>2013-07-17T09:01:43Z</time>
      </trkpt>
      <trkpt lat="45.52871" lon="2.8134">
        <ele>1856.184</ele>
        <time>2013-07-17T09:01:55Z</time>
      </trkpt>
      <trkpt lat="45.52862" lon="2.81351">
        <ele>1858.602</ele>
        <time>2013-07-17T09:02:10Z</time>
      </trkpt>
      <trkpt lat="45.5286" lon="2.8134">
        <ele>1858.906</ele>
        <time>2013-07-17T09:02:23Z</time>
      </trkpt>
      <trkpt lat="45.52862" lon="2.81341">
        <ele>1859.033</ele>
        <time>2013-07-17T09:02:45Z</time>
      </trkpt>
      <trkpt lat="45.52859" lon="2.81347">
        <ele>1858.914</ele>
        <time>2013-07-17T09:02:57Z</time>
      </trkpt>
      <trkpt lat="45.5286" lon="2.81347">
        <ele>1860.089</ele>
        <time>2013-07-17T09:03:11Z</time>
      </trkpt>
      <trkpt lat="45.52856" lon="2.8136">
        <ele>1860.931</ele>
        <time>2013-07-17T09:03:24Z</time>
      </trkpt>
      <trkpt lat="45.52848" lon="2.81371">
        <ele>1863.957</ele>
        <time>2013-07-17T09:03:40Z</time>
      </trkpt>
      <trkpt lat="45.5284" lon="2.81377">
        <ele>1867.214</ele>
        <time>2013-07-17T09:03:55Z</time>
      </trkpt>
      <trkpt lat="45.52831" lon="2.81384">
        <ele>1869.539</ele>
        <time>2013-07-17T09:04:13Z</time>
      </trkpt>
      <trkpt lat="45.52821" lon="2.81392">
        <ele>1872.571</ele>
        <time>2013-07-17T09:04:27Z</time>
      </trkpt>
      <trkpt lat="45.52826" lon="2.81398">
        <ele>1875.912</ele>
        <time>2013-07-17T09:04:40Z</time>
      </trkpt>
      <trkpt lat="45.52828" lon="2.814">
        <ele>1875.965</ele>
        <time>2013-07-17T09:04:56Z</time>
      </trkpt>
      <trkpt lat="45.52828" lon="2.814">
        <ele>1876.291</ele>
        <time>2013-07-17T09:05:33Z</time>
      </trkpt>
      <trkpt lat="45.52827" lon="2.81399">
        <ele>1876.291</ele>
        <time>2013-07-17T09:05:48Z</time>
      </trkpt>
      <trkpt lat="45.52827" lon="2.81399">
        <ele>1876.358</ele>
        <time>2013-07-17T09:06:07Z</time>
      </trkpt>
      <trkpt lat="45.52827" lon="2.81401">
        <ele>1876.371</ele>
        <time>2013-07-17T09:06:36Z</time>
      </trkpt>
      <trkpt lat="45.52825" lon="2.81402">
        <ele>1876.446</ele>
        <time>2013-07-17T09:06:58Z</time>
      </trkpt>
      <trkpt lat="45.52826" lon="2.814">
        <ele>1876.558</ele>
        <time>2013-07-17T09:07:23Z</time>
      </trkpt>
      <trkpt lat="45.52827" lon="2.814">
        <ele>1876.761</ele>
        <time>2013-07-17T09:07:53Z</time>
      </trkpt>
      <trkpt lat="45.52827" lon="2.81401">
        <ele>1877.031</ele>
        <time>2013-07-17T09:08:16Z</time>
      </trkpt>
      <trkpt lat="45.52827" lon="2.81401">
        <ele>1877.05</ele>
        <time>2013-07-17T09:08:45Z</time>
      </trkpt>
      <trkpt lat="45.52827" lon="2.81401">
        <ele>1877.24</ele>
        <time>2013-07-17T09:09:41Z</time>
      </trkpt>
      <trkpt lat="45.52826" lon="2.814">
        <ele>1877.257</ele>
        <time>2013-07-17T09:10:07Z</time>
      </trkpt>
      <trkpt lat="45.52822" lon="2.81397">
        <ele>1875.899</ele>
        <time>2013-07-17T09:10:20Z</time>
      </trkpt>
      <trkpt lat="45.52818" lon="2.81403">
        <ele>1874.832</ele>
        <time>2013-07-17T09:10:33Z</time>
      </trkpt>
      <trkpt lat="45.52819" lon="2.81405">
        <ele>1874.904</ele>
        <time>2013-07-17T09:10:38Z</time>
      </trkpt>
      <trkpt lat="45.52814" lon="2.81401">
        <ele>1873.275</ele>
        <time>2013-07-17T09:10:51Z</time>
      </trkpt>
      <trkpt lat="45.52809" lon="2.81407">
        <ele>1871.261</ele>
        <time>2013-07-17T09:11:05Z</time>
      </trkpt>
      <trkpt lat="45.52802" lon="2.81416">
        <ele>1868.355</ele>
        <time>2013-07-17T09:11:17Z</time>
      </trkpt>
      <trkpt lat="45.52802" lon="2.81418">
        <ele>1867.962</ele>
        <time>2013-07-17T09:11:19Z</time>
      </trkpt>
      <trkpt lat="45.52801" lon="2.81432">
        <ele>1864.85</ele>
        <time>2013-07-17T09:11:32Z</time>
      </trkpt>
      <trkpt lat="45.52801" lon="2.81439">
        <ele>1863.174</ele>
        <time>2013-07-17T09:11:41Z</time>
      </trkpt>
      <trkpt lat="45.52811" lon="2.81449">
        <ele>1861.627</ele>
        <time>2013-07-17T09:11:53Z</time>
      </trkpt>
      <trkpt lat="45.52814" lon="2.81448">
        <ele>1860.646</ele>
        <time>2013-07-17T09:11:58Z</time>
      </trkpt>
      <trkpt lat="45.5281" lon="2.81452">
        <ele>1859.945</ele>
        <time>2013-07-17T09:12:11Z</time>
      </trkpt>
      <trkpt lat="45.52806" lon="2.81456">
        <ele>1858.594</ele>
        <time>2013-07-17T09:12:29Z</time>
      </trkpt>
      <trkpt lat="45.52802" lon="2.81458">
        <ele>1856.393</ele>
        <time>2013-07-17T09:12:42Z</time>
      </trkpt>
      <trkpt lat="45.52798" lon="2.81463">
        <ele>1854.316</ele>
        <time>2013-07-17T09:12:56Z</time>
      </trkpt>
      <trkpt lat="45.52798" lon="2.81464">
        <ele>1853.827</ele>
        <time>2013-07-17T09:12:58Z</time>
      </trkpt>
      <trkpt lat="45.52798" lon="2.81466">
        <ele>1852.991</ele>
        <time>2013-07-17T09:13:00Z</time>
      </trkpt>
      <trkpt lat="45.52794" lon="2.81464">
        <ele>1851.706</ele>
        <time>2013-07-17T09:13:05Z</time>
      </trkpt>
      <trkpt lat="45.5278" lon="2.8146">
        <ele>1848.336</ele>
        <time>2013-07-17T09:13:20Z</time>
      </trkpt>
      <trkpt lat="45.52774" lon="2.8146">
        <ele>1845.165</ele>
        <time>2013-07-17T09:13:31Z</time>
      </trkpt>
      <trkpt lat="45.52775" lon="2.81477">
        <ele>1842.152</ele>
        <time>2013-07-17T09:13:43Z</time>
      </trkpt>
      <trkpt lat="45.52777" lon="2.81486">
        <ele>1840.87</ele>
        <time>2013-07-17T09:13:49Z</time>
      </trkpt>
      <trkpt lat="45.52777" lon="2.81489">
        <ele>1839.908</ele>
        <time>2013-07-17T09:13:51Z</time>
      </trkpt>
      <trkpt lat="45.52779" lon="2.81492">
        <ele>1839.73</ele>
        <time>2013-07-17T09:13:53Z</time>
      </trkpt>
      <trkpt lat="45.52782" lon="2.81501">
        <ele>1838.544</ele>
        <time>2013-07-17T09:13:59Z</time>
      </trkpt>
      <trkpt lat="45.52783" lon="2.81507">
        <ele>1837.758</ele>
        <time>2013-07-17T09:14:03Z</time>
      </trkpt>
      <trkpt lat="45.52774" lon="2.81504">
        <ele>1835.933</ele>
        <time>2013-07-17T09:14:15Z</time>
      </trkpt>
      <trkpt lat="45.5277" lon="2.815">
        <ele>1835.181</ele>
        <time>2013-07-17T09:14:19Z</time>
      </trkpt>
      <trkpt lat="45.52766" lon="2.81499">
        <ele>1833.491</ele>
        <time>2013-07-17T09:14:23Z</time>
      </trkpt>
      <trkpt lat="45.52758" lon="2.81491">
        <ele>1831.011</ele>
        <time>2013-07-17T09:14:33Z</time>
      </trkpt>
      <trkpt lat="45.52758" lon="2.81499">
        <ele>1827.983</ele>
        <time>2013-07-17T09:14:42Z</time>
      </trkpt>
      <trkpt lat="45.52758" lon="2.81506">
        <ele>1825.996</ele>
        <time>2013-07-17T09:14:50Z</time>
      </trkpt>
      <trkpt lat="45.5276" lon="2.81511">
        <ele>1824.284</ele>
        <time>2013-07-17T09:14:56Z</time>
      </trkpt>
      <trkpt lat="45.5276" lon="2.81514">
        <ele>1823.517</ele>
        <time>2013-07-17T09:14:58Z</time>
      </trkpt>
      <trkpt lat="45.52763" lon="2.81526">
        <ele>1820.945</ele>
        <time>2013-07-17T09:15:09Z</time>
      </trkpt>
      <trkpt lat="45.52765" lon="2.81542">
        <ele>1817.66</ele>
        <time>2013-07-17T09:15:21Z</time>
      </trkpt>
      <trkpt lat="45.52768" lon="2.81552">
        <ele>1815.175</ele>
        <time>2013-07-17T09:15:30Z</time>
      </trkpt>
      <trkpt lat="45.5277" lon="2.81561">
        <ele>1813.114</ele>
        <time>2013-07-17T09:15:38Z</time>
      </trkpt>
      <trkpt lat="45.52769" lon="2.81566">
        <ele>1811.626</ele>
        <time>2013-07-17T09:15:43Z</time>
      </trkpt>
      <trkpt lat="45.52772" lon="2.81576">
        <ele>1807.739</ele>
        <time>2013-07-17T09:15:55Z</time>
      </trkpt>
      <trkpt lat="45.52773" lon="2.81578">
        <ele>1806.883</ele>
        <time>2013-07-17T09:15:59Z</time>
      </trkpt>
      <trkpt lat="45.52773" lon="2.8158">
        <ele>1805.929</ele>
        <time>2013-07-17T09:16:01Z</time>
      </trkpt>
      <trkpt lat="45.52781" lon="2.81593">
        <ele>1802.758</ele>
        <time>2013-07-17T09:16:11Z</time>
      </trkpt>
      <trkpt lat="45.52783" lon="2.81595">
        <ele>1802.599</ele>
        <time>2013-07-17T09:16:13Z</time>
      </trkpt>
      <trkpt lat="45.5278" lon="2.81602">
        <ele>1801.075</ele>
        <time>2013-07-17T09:16:18Z</time>
      </trkpt>
      <trkpt lat="45.52774" lon="2.81604">
        <ele>1799.547</ele>
        <time>2013-07-17T09:16:24Z</time>
      </trkpt>
      <trkpt lat="45.52766" lon="2.81609">
        <ele>1796.784</ele>
        <time>2013-07-17T09:16:33Z</time>
      </trkpt>
      <trkpt lat="45.52762" lon="2.81609">
        <ele>1795.676</ele>
        <time>2013-07-17T09:16:37Z</time>
      </trkpt>
      <trkpt lat="45.52757" lon="2.81611">
        <ele>1794.667</ele>
        <time>2013-07-17T09:16:41Z</time>
      </trkpt>
      <trkpt lat="45.52752" lon="2.81615">
        <ele>1793.211</ele>
        <time>2013-07-17T09:16:47Z</time>
      </trkpt>
      <trkpt lat="45.52749" lon="2.81629">
        <ele>1790.979</ele>
        <time>2013-07-17T09:16:56Z</time>
      </trkpt>
      <trkpt lat="45.52748" lon="2.81632">
        <ele>1790.756</ele>
        <time>2013-07-17T09:16:58Z</time>
      </trkpt>
      <trkpt lat="45.52746" lon="2.81647">
        <ele>1788.548</ele>
        <time>2013-07-17T09:17:07Z</time>
      </trkpt>
      <trkpt lat="45.52745" lon="2.81667">
        <ele>1788.3</ele>
        <time>2013-07-17T09:17:22Z</time>
      </trkpt>
      <trkpt lat="45.52748" lon="2.81673">
        <ele>1788.113</ele>
        <time>2013-07-17T09:17:48Z</time>
      </trkpt>
      <trkpt lat="45.52748" lon="2.81677">
        <ele>1787.699</ele>
        <time>2013-07-17T09:17:51Z</time>
      </trkpt>
      <trkpt lat="45.52743" lon="2.81707">
        <ele>1785.313</ele>
        <time>2013-07-17T09:18:09Z</time>
      </trkpt>
      <trkpt lat="45.52736" lon="2.81723">
        <ele>1784.406</ele>
        <time>2013-07-17T09:18:27Z</time>
      </trkpt>
      <trkpt lat="45.52733" lon="2.8173">
        <ele>1783.799</ele>
        <time>2013-07-17T09:18:31Z</time>
      </trkpt>
      <trkpt lat="45.52733" lon="2.81734">
        <ele>1783.246</ele>
        <time>2013-07-17T09:18:34Z</time>
      </trkpt>
      <trkpt lat="45.52734" lon="2.81762">
        <ele>1780.989</ele>
        <time>2013-07-17T09:18:50Z</time>
      </trkpt>
      <trkpt lat="45.52733" lon="2.81769">
        <ele>1780.111</ele>
        <time>2013-07-17T09:18:54Z</time>
      </trkpt>
      <trkpt lat="45.5273" lon="2.81783">
        <ele>1780.502</ele>
        <time>2013-07-17T09:19:09Z</time>
      </trkpt>
      <trkpt lat="45.52731" lon="2.81785">
        <ele>1780.59</ele>
        <time>2013-07-17T09:19:31Z</time>
      </trkpt>
      <trkpt lat="45.52731" lon="2.81796">
        <ele>1781.982</ele>
        <time>2013-07-17T09:19:41Z</time>
      </trkpt>
      <trkpt lat="45.52721" lon="2.8183">
        <ele>1782.213</ele>
        <time>2013-07-17T09:20:02Z</time>
      </trkpt>
      <trkpt lat="45.52713" lon="2.81854">
        <ele>1784.355</ele>
        <time>2013-07-17T09:20:20Z</time>
      </trkpt>
      <trkpt lat="45.52701" lon="2.81894">
        <ele>1787.289</ele>
        <time>2013-07-17T09:20:47Z</time>
      </trkpt>
      <trkpt lat="45.52691" lon="2.81911">
        <ele>1790.3</ele>
        <time>2013-07-17T09:21:03Z</time>
      </trkpt>
      <trkpt lat="45.52681" lon="2.8192">
        <ele>1793.611</ele>
        <time>2013-07-17T09:21:18Z</time>
      </trkpt>
      <trkpt lat="45.52669" lon="2.81932">
        <ele>1796.233</ele>
        <time>2013-07-17T09:21:37Z</time>
      </trkpt>
      <trkpt lat="45.52667" lon="2.81934">
        <ele>1796.531</ele>
        <time>2013-07-17T09:21:39Z</time>
      </trkpt>
      <trkpt lat="45.52655" lon="2.8195">
        <ele>1800.032</ele>
        <time>2013-07-17T09:21:57Z</time>
      </trkpt>
      <trkpt lat="45.52649" lon="2.81962">
        <ele>1803.099</ele>
        <time>2013-07-17T09:22:10Z</time>
      </trkpt>
      <trkpt lat="45.5264" lon="2.8198">
        <ele>1806.372</ele>
        <time>2013-07-17T09:22:27Z</time>
      </trkpt>
      <trkpt lat="45.52631" lon="2.82">
        <ele>1807.404</ele>
        <time>2013-07-17T09:22:43Z</time>
      </trkpt>
      <trkpt lat="45.52622" lon="2.82014">
        <ele>1809.252</ele>
        <time>2013-07-17T09:22:56Z</time>
      </trkpt>
      <trkpt lat="45.52617" lon="2.8202">
        <ele>1810.398</ele>
        <time>2013-07-17T09:23:02Z</time>
      </trkpt>
      <trkpt lat="45.52603" lon="2.82039">
        <ele>1813.691</ele>
        <time>2013-07-17T09:23:20Z</time>
      </trkpt>
      <trkpt lat="45.52588" lon="2.82051">
        <ele>1815.863</ele>
        <time>2013-07-17T09:23:36Z</time>
      </trkpt>
      <trkpt lat="45.52581" lon="2.82057">
        <ele>1817.453</ele>
        <time>2013-07-17T09:23:50Z</time>
      </trkpt>
      <trkpt lat="45.52572" lon="2.82069">
        <ele>1819.911</ele>
        <time>2013-07-17T09:24:05Z</time>
      </trkpt>
      <trkpt lat="45.52566" lon="2.8208">
        <ele>1821.597</ele>
        <time>2013-07-17T09:24:18Z</time>
      </trkpt>
      <trkpt lat="45.52561" lon="2.8209">
        <ele>1823.474</ele>
        <time>2013-07-17T09:24:28Z</time>
      </trkpt>
      <trkpt lat="45.52551" lon="2.82113">
        <ele>1825.918</ele>
        <time>2013-07-17T09:24:46Z</time>
      </trkpt>
      <trkpt lat="45.52547" lon="2.82117">
        <ele>1826.074</ele>
        <time>2013-07-17T09:24:51Z</time>
      </trkpt>
      <trkpt lat="45.5254" lon="2.82139">
        <ele>1827.815</ele>
        <time>2013-07-17T09:25:06Z</time>
      </trkpt>
      <trkpt lat="45.52538" lon="2.82149">
        <ele>1828.216</ele>
        <time>2013-07-17T09:25:13Z</time>
      </trkpt>
      <trkpt lat="45.52533" lon="2.82166">
        <ele>1829.69</ele>
        <time>2013-07-17T09:25:24Z</time>
      </trkpt>
      <trkpt lat="45.52531" lon="2.82175">
        <ele>1829.931</ele>
        <time>2013-07-17T09:25:30Z</time>
      </trkpt>
      <trkpt lat="45.5253" lon="2.82182">
        <ele>1829.787</ele>
        <time>2013-07-17T09:25:35Z</time>
      </trkpt>
      <trkpt lat="45.52523" lon="2.82197">
        <ele>1830.105</ele>
        <time>2013-07-17T09:25:46Z</time>
      </trkpt>
      <trkpt lat="45.52517" lon="2.82206">
        <ele>1829.727</ele>
        <time>2013-07-17T09:25:54Z</time>
      </trkpt>
      <trkpt lat="45.52512" lon="2.82227">
        <ele>1829.027</ele>
        <time>2013-07-17T09:26:07Z</time>
      </trkpt>
      <trkpt lat="45.52507" lon="2.82243">
        <ele>1828.01</ele>
        <time>2013-07-17T09:26:17Z</time>
      </trkpt>
      <trkpt lat="45.525" lon="2.8226">
        <ele>1827.418</ele>
        <time>2013-07-17T09:26:32Z</time>
      </trkpt>
      <trkpt lat="45.52497" lon="2.8227">
        <ele>1827.705</ele>
        <time>2013-07-17T09:26:41Z</time>
      </trkpt>
      <trkpt lat="45.52493" lon="2.82274">
        <ele>1828.595</ele>
        <time>2013-07-17T09:26:56Z</time>
      </trkpt>
      <trkpt lat="45.52492" lon="2.82277">
        <ele>1829.127</ele>
        <time>2013-07-17T09:26:59Z</time>
      </trkpt>
      <trkpt lat="45.52486" lon="2.82295">
        <ele>1830.945</ele>
        <time>2013-07-17T09:27:12Z</time>
      </trkpt>
      <trkpt lat="45.52482" lon="2.82301">
        <ele>1831.467</ele>
        <time>2013-07-17T09:27:18Z</time>
      </trkpt>
      <trkpt lat="45.52474" lon="2.82326">
        <ele>1834.125</ele>
        <time>2013-07-17T09:27:36Z</time>
      </trkpt>
      <trkpt lat="45.52471" lon="2.8233">
        <ele>1834.533</ele>
        <time>2013-07-17T09:27:39Z</time>
      </trkpt>
      <trkpt lat="45.52469" lon="2.82336">
        <ele>1834.001</ele>
        <time>2013-07-17T09:27:43Z</time>
      </trkpt>
      <trkpt lat="45.52466" lon="2.82351">
        <ele>1833.817</ele>
        <time>2013-07-17T09:27:55Z</time>
      </trkpt>
      <trkpt lat="45.5247" lon="2.82386">
        <ele>1835.586</ele>
        <time>2013-07-17T09:28:17Z</time>
      </trkpt>
      <trkpt lat="45.52474" lon="2.82392">
        <ele>1837.046</ele>
        <time>2013-07-17T09:28:22Z</time>
      </trkpt>
      <trkpt lat="45.52472" lon="2.82405">
        <ele>1837.257</ele>
        <time>2013-07-17T09:28:30Z</time>
      </trkpt>
      <trkpt lat="45.52462" lon="2.82437">
        <ele>1836.845</ele>
        <time>2013-07-17T09:28:49Z</time>
      </trkpt>
      <trkpt lat="45.52458" lon="2.8245">
        <ele>1837.021</ele>
        <time>2013-07-17T09:28:57Z</time>
      </trkpt>
      <trkpt lat="45.52458" lon="2.82455">
        <ele>1837.139</ele>
        <time>2013-07-17T09:29:00Z</time>
      </trkpt>
      <trkpt lat="45.52457" lon="2.82463">
        <ele>1837.007</ele>
        <time>2013-07-17T09:29:05Z</time>
      </trkpt>
      <trkpt lat="45.52456" lon="2.82484">
        <ele>1838.468</ele>
        <time>2013-07-17T09:29:17Z</time>
      </trkpt>
      <trkpt lat="45.52452" lon="2.8252">
        <ele>1841.441</ele>
        <time>2013-07-17T09:29:39Z</time>
      </trkpt>
      <trkpt lat="45.52452" lon="2.82549">
        <ele>1843.57</ele>
        <time>2013-07-17T09:29:57Z</time>
      </trkpt>
      <trkpt lat="45.52452" lon="2.82558">
        <ele>1844.802</ele>
        <time>2013-07-17T09:30:03Z</time>
      </trkpt>
      <trkpt lat="45.52452" lon="2.82565">
        <ele>1845.654</ele>
        <time>2013-07-17T09:30:08Z</time>
      </trkpt>
      <trkpt lat="45.52453" lon="2.82568">
        <ele>1845.917</ele>
        <time>2013-07-17T09:30:10Z</time>
      </trkpt>
      <trkpt lat="45.52458" lon="2.82594">
        <ele>1848.35</ele>
        <time>2013-07-17T09:30:29Z</time>
      </trkpt>
      <trkpt lat="45.5246" lon="2.82598">
        <ele>1848.913</ele>
        <time>2013-07-17T09:30:32Z</time>
      </trkpt>
      <trkpt lat="45.52468" lon="2.82632">
        <ele>1849.665</ele>
        <time>2013-07-17T09:30:53Z</time>
      </trkpt>
      <trkpt lat="45.52471" lon="2.82638">
        <ele>1849.621</ele>
        <time>2013-07-17T09:30:57Z</time>
      </trkpt>
      <trkpt lat="45.52483" lon="2.82654">
        <ele>1848.123</ele>
        <time>2013-07-17T09:31:13Z</time>
      </trkpt>
      <trkpt lat="45.52478" lon="2.82653">
        <ele>1848.811</ele>
        <time>2013-07-17T09:31:25Z</time>
      </trkpt>
      <trkpt lat="45.52478" lon="2.82654">
        <ele>1849.446</ele>
        <time>2013-07-17T09:31:26Z</time>
      </trkpt>
      <trkpt lat="45.52472" lon="2.82661">
        <ele>1849.067</ele>
        <time>2013-07-17T09:31:39Z</time>
      </trkpt>
      <trkpt lat="45.52472" lon="2.82661">
        <ele>1848.994</ele>
        <time>2013-07-17T09:32:02Z</time>
      </trkpt>
      <trkpt lat="45.52469" lon="2.82664">
        <ele>1848.604</ele>
        <time>2013-07-17T09:32:19Z</time>
      </trkpt>
      <trkpt lat="45.52471" lon="2.82659">
        <ele>1848.855</ele>
        <time>2013-07-17T09:32:46Z</time>
      </trkpt>
      <trkpt lat="45.52477" lon="2.8265">
        <ele>1849.554</ele>
        <time>2013-07-17T09:32:54Z</time>
      </trkpt>
      <trkpt lat="45.52484" lon="2.82649">
        <ele>1848.803</ele>
        <time>2013-07-17T09:33:00Z</time>
      </trkpt>
      <trkpt lat="45.52488" lon="2.82646">
        <ele>1848.4</ele>
        <time>2013-07-17T09:33:23Z</time>
      </trkpt>
      <trkpt lat="45.52486" lon="2.82647">
        <ele>1848.644</ele>
        <time>2013-07-17T09:33:26Z</time>
      </trkpt>
      <trkpt lat="45.52484" lon="2.82649">
        <ele>1848.544</ele>
        <time>2013-07-17T09:33:28Z</time>
      </trkpt>
      <trkpt lat="45.52477" lon="2.82653">
        <ele>1849.477</ele>
        <time>2013-07-17T09:33:34Z</time>
      </trkpt>
      <trkpt lat="45.52475" lon="2.82655">
        <ele>1849.753</ele>
        <time>2013-07-17T09:33:37Z</time>
      </trkpt>
      <trkpt lat="45.52468" lon="2.82655">
        <ele>1849.321</ele>
        <time>2013-07-17T09:33:54Z</time>
      </trkpt>
      <trkpt lat="45.52474" lon="2.82655">
        <ele>1849.992</ele>
        <time>2013-07-17T09:34:09Z</time>
      </trkpt>
      <trkpt lat="45.52475" lon="2.82654">
        <ele>1849.897</ele>
        <time>2013-07-17T09:34:27Z</time>
      </trkpt>
      <trkpt lat="45.52476" lon="2.82653">
        <ele>1850.309</ele>
        <time>2013-07-17T09:34:43Z</time>
      </trkpt>
      <trkpt lat="45.52477" lon="2.82655">
        <ele>1850.191</ele>
        <time>2013-07-17T09:35:01Z</time>
      </trkpt>
      <trkpt lat="45.52476" lon="2.82655">
        <ele>1849.037</ele>
        <time>2013-07-17T09:35:16Z</time>
      </trkpt>
      <trkpt lat="45.52476" lon="2.82655">
        <ele>1849.35</ele>
        <time>2013-07-17T09:35:56Z</time>
      </trkpt>
      <trkpt lat="45.52476" lon="2.82655">
        <ele>1846.349</ele>
        <time>2013-07-17T09:36:09Z</time>
      </trkpt>
      <trkpt lat="45.52476" lon="2.82655">
        <ele>1850.119</ele>
        <time>2013-07-17T09:36:11Z</time>
      </trkpt>
      <trkpt lat="45.52476" lon="2.82655">
        <ele>1849.157</ele>
        <time>2013-07-17T09:36:12Z</time>
      </trkpt>
      <trkpt lat="45.52476" lon="2.82655">
        <ele>1855.033</ele>
        <time>2013-07-17T09:39:05Z</time>
      </trkpt>
      <trkpt lat="45.52476" lon="2.82655">
        <ele>1850.97</ele>
        <time>2013-07-17T09:39:06Z</time>
      </trkpt>
      <trkpt lat="45.52476" lon="2.82655">
        <ele>1847.926</ele>
        <time>2013-07-17T09:39:23Z</time>
      </trkpt>
      <trkpt lat="45.52476" lon="2.82655">
        <ele>1850.139</ele>
        <time>2013-07-17T09:39:26Z</time>
      </trkpt>
      <trkpt lat="45.52474" lon="2.82654">
        <ele>1851.091</ele>
        <time>2013-07-17T09:40:13Z</time>
      </trkpt>
      <trkpt lat="45.52474" lon="2.82655">
        <ele>1850.601</ele>
        <time>2013-07-17T09:40:47Z</time>
      </trkpt>
      <trkpt lat="45.52472" lon="2.82653">
        <ele>1851.115</ele>
        <time>2013-07-17T09:41:07Z</time>
      </trkpt>
      <trkpt lat="45.52472" lon="2.82652">
        <ele>1851.216</ele>
        <time>2013-07-17T09:41:09Z</time>
      </trkpt>
      <trkpt lat="45.52473" lon="2.82643">
        <ele>1851.777</ele>
        <time>2013-07-17T09:41:16Z</time>
      </trkpt>
      <trkpt lat="45.52473" lon="2.82638">
        <ele>1851.418</ele>
        <time>2013-07-17T09:41:19Z</time>
      </trkpt>
      <trkpt lat="45.52474" lon="2.8264">
        <ele>1851.559</ele>
        <time>2013-07-17T09:41:21Z</time>
      </trkpt>
      <trkpt lat="45.52479" lon="2.8265">
        <ele>1851.111</ele>
        <time>2013-07-17T09:41:27Z</time>
      </trkpt>
      <trkpt lat="45.52482" lon="2.82659">
        <ele>1850.691</ele>
        <time>2013-07-17T09:41:44Z</time>
      </trkpt>
      <trkpt lat="45.52482" lon="2.82659">
        <ele>1850.604</ele>
        <time>2013-07-17T09:42:01Z</time>
      </trkpt>
      <trkpt lat="45.52479" lon="2.82653">
        <ele>1851.1</ele>
        <time>2013-07-17T09:42:05Z</time>
      </trkpt>
      <trkpt lat="45.52471" lon="2.82627">
        <ele>1851.998</ele>
        <time>2013-07-17T09:42:18Z</time>
      </trkpt>
      <trkpt lat="45.52469" lon="2.82625">
        <ele>1852.131</ele>
        <time>2013-07-17T09:42:20Z</time>
      </trkpt>
      <trkpt lat="45.52458" lon="2.82589">
        <ele>1851.183</ele>
        <time>2013-07-17T09:42:39Z</time>
      </trkpt>
      <trkpt lat="45.52453" lon="2.82572">
        <ele>1849.756</ele>
        <time>2013-07-17T09:42:48Z</time>
      </trkpt>
      <trkpt lat="45.52454" lon="2.82544">
        <ele>1846.113</ele>
        <time>2013-07-17T09:43:02Z</time>
      </trkpt>
      <trkpt lat="45.52454" lon="2.82504">
        <ele>1843.507</ele>
        <time>2013-07-17T09:43:21Z</time>
      </trkpt>
      <trkpt lat="45.52458" lon="2.82476">
        <ele>1840.985</ele>
        <time>2013-07-17T09:43:33Z</time>
      </trkpt>
      <trkpt lat="45.52464" lon="2.82428">
        <ele>1839.995</ele>
        <time>2013-07-17T09:43:54Z</time>
      </trkpt>
      <trkpt lat="45.52464" lon="2.82422">
        <ele>1840.165</ele>
        <time>2013-07-17T09:43:56Z</time>
      </trkpt>
      <trkpt lat="45.52474" lon="2.82388">
        <ele>1839.915</ele>
        <time>2013-07-17T09:44:13Z</time>
      </trkpt>
      <trkpt lat="45.5247" lon="2.82382">
        <ele>1838.653</ele>
        <time>2013-07-17T09:44:17Z</time>
      </trkpt>
      <trkpt lat="45.52465" lon="2.82345">
        <ele>1837.39</ele>
        <time>2013-07-17T09:44:37Z</time>
      </trkpt>
      <trkpt lat="45.52464" lon="2.82345">
        <ele>1837.661</ele>
        <time>2013-07-17T09:44:48Z</time>
      </trkpt>
      <trkpt lat="45.52466" lon="2.82342">
        <ele>1837.727</ele>
        <time>2013-07-17T09:44:51Z</time>
      </trkpt>
      <trkpt lat="45.52477" lon="2.82319">
        <ele>1837.375</ele>
        <time>2013-07-17T09:45:03Z</time>
      </trkpt>
      <trkpt lat="45.52482" lon="2.82302">
        <ele>1835.516</ele>
        <time>2013-07-17T09:45:12Z</time>
      </trkpt>
      <trkpt lat="45.52484" lon="2.82295">
        <ele>1835.356</ele>
        <time>2013-07-17T09:45:15Z</time>
      </trkpt>
      <trkpt lat="45.5249" lon="2.82282">
        <ele>1833.555</ele>
        <time>2013-07-17T09:45:22Z</time>
      </trkpt>
      <trkpt lat="45.52492" lon="2.82277">
        <ele>1833.177</ele>
        <time>2013-07-17T09:45:25Z</time>
      </trkpt>
      <trkpt lat="45.52505" lon="2.82266">
        <ele>1830.343</ele>
        <time>2013-07-17T09:45:38Z</time>
      </trkpt>
      <trkpt lat="45.52509" lon="2.82264">
        <ele>1829.121</ele>
        <time>2013-07-17T09:45:54Z</time>
      </trkpt>
      <trkpt lat="45.52513" lon="2.82262">
        <ele>1827.396</ele>
        <time>2013-07-17T09:46:02Z</time>
      </trkpt>
      <trkpt lat="45.5252" lon="2.8226">
        <ele>1824.838</ele>
        <time>2013-07-17T09:46:11Z</time>
      </trkpt>
      <trkpt lat="45.52529" lon="2.82257">
        <ele>1821.66</ele>
        <time>2013-07-17T09:46:22Z</time>
      </trkpt>
      <trkpt lat="45.52536" lon="2.82256">
        <ele>1818.41</ele>
        <time>2013-07-17T09:46:35Z</time>
      </trkpt>
      <trkpt lat="45.52536" lon="2.82264">
        <ele>1816.455</ele>
        <time>2013-07-17T09:46:42Z</time>
      </trkpt>
      <trkpt lat="45.52536" lon="2.8227">
        <ele>1814.683</ele>
        <time>2013-07-17T09:46:47Z</time>
      </trkpt>
      <trkpt lat="45.52538" lon="2.82273">
        <ele>1813.271</ele>
        <time>2013-07-17T09:46:54Z</time>
      </trkpt>
      <trkpt lat="45.52544" lon="2.82284">
        <ele>1809.678</ele>
        <time>2013-07-17T09:47:06Z</time>
      </trkpt>
      <trkpt lat="45.52548" lon="2.8229">
        <ele>1807.537</ele>
        <time>2013-07-17T09:47:14Z</time>
      </trkpt>
      <trkpt lat="45.5255" lon="2.82294">
        <ele>1806.829</ele>
        <time>2013-07-17T09:47:17Z</time>
      </trkpt>
      <trkpt lat="45.52554" lon="2.82295">
        <ele>1805.249</ele>
        <time>2013-07-17T09:47:22Z</time>
      </trkpt>
      <trkpt lat="45.52561" lon="2.82301">
        <ele>1801.884</ele>
        <time>2013-07-17T09:47:34Z</time>
      </trkpt>
      <trkpt lat="45.52568" lon="2.82308">
        <ele>1799.022</ele>
        <time>2013-07-17T09:47:48Z</time>
      </trkpt>
      <trkpt lat="45.52576" lon="2.82313">
        <ele>1795.963</ele>
        <time>2013-07-17T09:48:00Z</time>
      </trkpt>
      <trkpt lat="45.52581" lon="2.82318">
        <ele>1794.437</ele>
        <time>2013-07-17T09:48:07Z</time>
      </trkpt>
      <trkpt lat="45.5259" lon="2.82321">
        <ele>1790.932</ele>
        <time>2013-07-17T09:48:20Z</time>
      </trkpt>
      <trkpt lat="45.52593" lon="2.82318">
        <ele>1789.145</ele>
        <time>2013-07-17T09:48:27Z</time>
      </trkpt>
      <trkpt lat="45.52598" lon="2.82311">
        <ele>1785.738</ele>
        <time>2013-07-17T09:48:40Z</time>
      </trkpt>
      <trkpt lat="45.52599" lon="2.82304">
        <ele>1783.78</ele>
        <time>2013-07-17T09:48:48Z</time>
      </trkpt>
      <trkpt lat="45.52609" lon="2.82299">
        <ele>1780.531</ele>
        <time>2013-07-17T09:48:58Z</time>
      </trkpt>
      <trkpt lat="45.5261" lon="2.82298">
        <ele>1780.26</ele>
        <time>2013-07-17T09:48:59Z</time>
      </trkpt>
      <trkpt lat="45.52618" lon="2.8229">
        <ele>1777.251</ele>
        <time>2013-07-17T09:49:07Z</time>
      </trkpt>
      <trkpt lat="45.5262" lon="2.82286">
        <ele>1776.361</ele>
        <time>2013-07-17T09:49:11Z</time>
      </trkpt>
      <trkpt lat="45.52623" lon="2.82283">
        <ele>1775.907</ele>
        <time>2013-07-17T09:49:14Z</time>
      </trkpt>
      <trkpt lat="45.52636" lon="2.82269">
        <ele>1772.619</ele>
        <time>2013-07-17T09:49:28Z</time>
      </trkpt>
      <trkpt lat="45.52645" lon="2.82258">
        <ele>1769.895</ele>
        <time>2013-07-17T09:49:40Z</time>
      </trkpt>
      <trkpt lat="45.52651" lon="2.8225">
        <ele>1768.161</ele>
        <time>2013-07-17T09:49:59Z</time>
      </trkpt>
      <trkpt lat="45.52668" lon="2.8223">
        <ele>1765.016</ele>
        <time>2013-07-17T09:50:17Z</time>
      </trkpt>
      <trkpt lat="45.52683" lon="2.82219">
        <ele>1761.934</ele>
        <time>2013-07-17T09:50:32Z</time>
      </trkpt>
      <trkpt lat="45.52701" lon="2.82204">
        <ele>1758.752</ele>
        <time>2013-07-17T09:50:48Z</time>
      </trkpt>
      <trkpt lat="45.52722" lon="2.82188">
        <ele>1755.604</ele>
        <time>2013-07-17T09:51:05Z</time>
      </trkpt>
      <trkpt lat="45.52732" lon="2.8218">
        <ele>1753.901</ele>
        <time>2013-07-17T09:51:22Z</time>
      </trkpt>
      <trkpt lat="45.52734" lon="2.82175">
        <ele>1753.727</ele>
        <time>2013-07-17T09:51:41Z</time>
      </trkpt>
      <trkpt lat="45.52738" lon="2.82173">
        <ele>1753.185</ele>
        <time>2013-07-17T09:51:48Z</time>
      </trkpt>
      <trkpt lat="45.5274" lon="2.82177">
        <ele>1752.648</ele>
        <time>2013-07-17T09:51:51Z</time>
      </trkpt>
      <trkpt lat="45.52742" lon="2.82188">
        <ele>1750.955</ele>
        <time>2013-07-17T09:51:59Z</time>
      </trkpt>
      <trkpt lat="45.52742" lon="2.82193">
        <ele>1750.306</ele>
        <time>2013-07-17T09:52:02Z</time>
      </trkpt>
      <trkpt lat="45.52744" lon="2.82199">
        <ele>1749.209</ele>
        <time>2013-07-17T09:52:06Z</time>
      </trkpt>
      <trkpt lat="45.52745" lon="2.82203">
        <ele>1747.899</ele>
        <time>2013-07-17T09:52:11Z</time>
      </trkpt>
      <trkpt lat="45.52749" lon="2.82202">
        <ele>1747.156</ele>
        <time>2013-07-17T09:52:16Z</time>
      </trkpt>
      <trkpt lat="45.52759" lon="2.82206">
        <ele>1743.621</ele>
        <time>2013-07-17T09:52:26Z</time>
      </trkpt>
      <trkpt lat="45.52771" lon="2.82207">
        <ele>1740.11</ele>
        <time>2013-07-17T09:52:37Z</time>
      </trkpt>
      <trkpt lat="45.52785" lon="2.82211">
        <ele>1736.932</ele>
        <time>2013-07-17T09:52:49Z</time>
      </trkpt>
      <trkpt lat="45.52792" lon="2.82215">
        <ele>1735.531</ele>
        <time>2013-07-17T09:52:55Z</time>
      </trkpt>
      <trkpt lat="45.52796" lon="2.82218">
        <ele>1734.186</ele>
        <time>2013-07-17T09:52:59Z</time>
      </trkpt>
      <trkpt lat="45.52811" lon="2.82226">
        <ele>1731.189</ele>
        <time>2013-07-17T09:53:12Z</time>
      </trkpt>
      <trkpt lat="45.52828" lon="2.82235">
        <ele>1727.879</ele>
        <time>2013-07-17T09:53:28Z</time>
      </trkpt>
      <trkpt lat="45.52844" lon="2.82243">
        <ele>1724.825</ele>
        <time>2013-07-17T09:53:42Z</time>
      </trkpt>
      <trkpt lat="45.52854" lon="2.82251">
        <ele>1721.409</ele>
        <time>2013-07-17T09:53:55Z</time>
      </trkpt>
      <trkpt lat="45.52856" lon="2.82253">
        <ele>1720.668</ele>
        <time>2013-07-17T09:53:57Z</time>
      </trkpt>
      <trkpt lat="45.52864" lon="2.82261">
        <ele>1718.859</ele>
        <time>2013-07-17T09:54:13Z</time>
      </trkpt>
      <trkpt lat="45.52864" lon="2.82259">
        <ele>1715.374</ele>
        <time>2013-07-17T09:54:17Z</time>
      </trkpt>
      <trkpt lat="45.52864" lon="2.8226">
        <ele>1718.87</ele>
        <time>2013-07-17T09:54:18Z</time>
      </trkpt>
      <trkpt lat="45.52863" lon="2.8226">
        <ele>1718.824</ele>
        <time>2013-07-17T09:54:19Z</time>
      </trkpt>
      <trkpt lat="45.52864" lon="2.82265">
        <ele>1718.892</ele>
        <time>2013-07-17T09:54:43Z</time>
      </trkpt>
      <trkpt lat="45.52874" lon="2.82275">
        <ele>1719.193</ele>
        <time>2013-07-17T09:54:53Z</time>
      </trkpt>
      <trkpt lat="45.52877" lon="2.82285">
        <ele>1720.642</ele>
        <time>2013-07-17T09:55:01Z</time>
      </trkpt>
      <trkpt lat="45.52884" lon="2.823">
        <ele>1722.26</ele>
        <time>2013-07-17T09:55:13Z</time>
      </trkpt>
      <trkpt lat="45.52885" lon="2.82305">
        <ele>1722.633</ele>
        <time>2013-07-17T09:55:16Z</time>
      </trkpt>
      <trkpt lat="45.52896" lon="2.82332">
        <ele>1725.341</ele>
        <time>2013-07-17T09:55:37Z</time>
      </trkpt>
      <trkpt lat="45.52895" lon="2.82335">
        <ele>1725.503</ele>
        <time>2013-07-17T09:55:39Z</time>
      </trkpt>
      <trkpt lat="45.529" lon="2.82348">
        <ele>1725.977</ele>
        <time>2013-07-17T09:55:48Z</time>
      </trkpt>
      <trkpt lat="45.52909" lon="2.82373">
        <ele>1728.547</ele>
        <time>2013-07-17T09:56:06Z</time>
      </trkpt>
      <trkpt lat="45.52917" lon="2.82396">
        <ele>1730.802</ele>
        <time>2013-07-17T09:56:21Z</time>
      </trkpt>
      <trkpt lat="45.52933" lon="2.82411">
        <ele>1731.992</ele>
        <time>2013-07-17T09:56:37Z</time>
      </trkpt>
      <trkpt lat="45.52934" lon="2.82412">
        <ele>1731.832</ele>
        <time>2013-07-17T09:56:38Z</time>
      </trkpt>
      <trkpt lat="45.52937" lon="2.82415">
        <ele>1731.124</ele>
        <time>2013-07-17T09:56:42Z</time>
      </trkpt>
      <trkpt lat="45.52953" lon="2.82417">
        <ele>1730.867</ele>
        <time>2013-07-17T09:56:56Z</time>
      </trkpt>
      <trkpt lat="45.52958" lon="2.82418">
        <ele>1730.41</ele>
        <time>2013-07-17T09:57:01Z</time>
      </trkpt>
      <trkpt lat="45.52977" lon="2.82424">
        <ele>1729.313</ele>
        <time>2013-07-17T09:57:15Z</time>
      </trkpt>
      <trkpt lat="45.52989" lon="2.8243">
        <ele>1728.282</ele>
        <time>2013-07-17T09:57:24Z</time>
      </trkpt>
      <trkpt lat="45.53001" lon="2.82434">
        <ele>1726.874</ele>
        <time>2013-07-17T09:57:32Z</time>
      </trkpt>
      <trkpt lat="45.53008" lon="2.82443">
        <ele>1726.042</ele>
        <time>2013-07-17T09:57:39Z</time>
      </trkpt>
      <trkpt lat="45.53011" lon="2.82447">
        <ele>1725.127</ele>
        <time>2013-07-17T09:57:43Z</time>
      </trkpt>
      <trkpt lat="45.53014" lon="2.82455">
        <ele>1724.679</ele>
        <time>2013-07-17T09:57:47Z</time>
      </trkpt>
      <trkpt lat="45.53016" lon="2.82458">
        <ele>1724.436</ele>
        <time>2013-07-17T09:57:49Z</time>
      </trkpt>
      <trkpt lat="45.53018" lon="2.82474">
        <ele>1722.828</ele>
        <time>2013-07-17T09:57:57Z</time>
      </trkpt>
      <trkpt lat="45.53019" lon="2.82481">
        <ele>1722.241</ele>
        <time>2013-07-17T09:58:01Z</time>
      </trkpt>
      <trkpt lat="45.53026" lon="2.82499">
        <ele>1719.968</ele>
        <time>2013-07-17T09:58:13Z</time>
      </trkpt>
      <trkpt lat="45.53038" lon="2.82504">
        <ele>1718.428</ele>
        <time>2013-07-17T09:58:22Z</time>
      </trkpt>
      <trkpt lat="45.53041" lon="2.82514">
        <ele>1717.97</ele>
        <time>2013-07-17T09:58:27Z</time>
      </trkpt>
      <trkpt lat="45.53039" lon="2.82528">
        <ele>1717.462</ele>
        <time>2013-07-17T09:58:32Z</time>
      </trkpt>
      <trkpt lat="45.53056" lon="2.82535">
        <ele>1716.494</ele>
        <time>2013-07-17T09:58:46Z</time>
      </trkpt>
      <trkpt lat="45.53069" lon="2.82528">
        <ele>1715.989</ele>
        <time>2013-07-17T09:58:59Z</time>
      </trkpt>
      <trkpt lat="45.53073" lon="2.82527">
        <ele>1715.783</ele>
        <time>2013-07-17T09:59:03Z</time>
      </trkpt>
      <trkpt lat="45.53075" lon="2.82527">
        <ele>1715.527</ele>
        <time>2013-07-17T09:59:05Z</time>
      </trkpt>
      <trkpt lat="45.53085" lon="2.82525">
        <ele>1714.864</ele>
        <time>2013-07-17T09:59:14Z</time>
      </trkpt>
      <trkpt lat="45.53098" lon="2.82521">
        <ele>1714.094</ele>
        <time>2013-07-17T09:59:22Z</time>
      </trkpt>
      <trkpt lat="45.53111" lon="2.82517">
        <ele>1713.232</ele>
        <time>2013-07-17T09:59:33Z</time>
      </trkpt>
      <trkpt lat="45.53122" lon="2.82515">
        <ele>1713.968</ele>
        <time>2013-07-17T09:59:41Z</time>
      </trkpt>
      <trkpt lat="45.53134" lon="2.82516">
        <ele>1714.961</ele>
        <time>2013-07-17T09:59:52Z</time>
      </trkpt>
      <trkpt lat="45.53163" lon="2.82511">
        <ele>1715.27</ele>
        <time>2013-07-17T10:00:14Z</time>
      </trkpt>
      <trkpt lat="45.53175" lon="2.82521">
        <ele>1718.109</ele>
        <time>2013-07-17T10:00:27Z</time>
      </trkpt>
      <trkpt lat="45.53176" lon="2.82526">
        <ele>1719.05</ele>
        <time>2013-07-17T10:00:31Z</time>
      </trkpt>
      <trkpt lat="45.53178" lon="2.82529">
        <ele>1719.542</ele>
        <time>2013-07-17T10:00:34Z</time>
      </trkpt>
      <trkpt lat="45.53185" lon="2.82534">
        <ele>1720.312</ele>
        <time>2013-07-17T10:00:41Z</time>
      </trkpt>
      <trkpt lat="45.53194" lon="2.82535">
        <ele>1721.796</ele>
        <time>2013-07-17T10:00:53Z</time>
      </trkpt>
      <trkpt lat="45.53201" lon="2.82543">
        <ele>1721.451</ele>
        <time>2013-07-17T10:01:05Z</time>
      </trkpt>
      <trkpt lat="45.53203" lon="2.82545">
        <ele>1721.35</ele>
        <time>2013-07-17T10:01:07Z</time>
      </trkpt>
      <trkpt lat="45.53205" lon="2.82546">
        <ele>1721.625</ele>
        <time>2013-07-17T10:01:09Z</time>
      </trkpt>
      <trkpt lat="45.53217" lon="2.82559">
        <ele>1722.126</ele>
        <time>2013-07-17T10:01:25Z</time>
      </trkpt>
      <trkpt lat="45.53218" lon="2.82565">
        <ele>1721.837</ele>
        <time>2013-07-17T10:01:28Z</time>
      </trkpt>
      <trkpt lat="45.53224" lon="2.8257">
        <ele>1722.514</ele>
        <time>2013-07-17T10:01:38Z</time>
      </trkpt>
      <trkpt lat="45.5323" lon="2.82574">
        <ele>1721.979</ele>
        <time>2013-07-17T10:01:43Z</time>
      </trkpt>
      <trkpt lat="45.53242" lon="2.82572">
        <ele>1724.889</ele>
        <time>2013-07-17T10:01:55Z</time>
      </trkpt>
      <trkpt lat="45.53253" lon="2.82585">
        <ele>1726.158</ele>
        <time>2013-07-17T10:02:11Z</time>
      </trkpt>
      <trkpt lat="45.53271" lon="2.82596">
        <ele>1728.719</ele>
        <time>2013-07-17T10:02:29Z</time>
      </trkpt>
      <trkpt lat="45.5328" lon="2.82604">
        <ele>1728.207</ele>
        <time>2013-07-17T10:02:42Z</time>
      </trkpt>
      <trkpt lat="45.53291" lon="2.82612">
        <ele>1725.639</ele>
        <time>2013-07-17T10:02:57Z</time>
      </trkpt>
      <trkpt lat="45.53312" lon="2.82618">
        <ele>1723.995</ele>
        <time>2013-07-17T10:03:14Z</time>
      </trkpt>
      <trkpt lat="45.53323" lon="2.8262">
        <ele>1723.774</ele>
        <time>2013-07-17T10:03:23Z</time>
      </trkpt>
      <trkpt lat="45.5335" lon="2.82626">
        <ele>1724.937</ele>
        <time>2013-07-17T10:03:44Z</time>
      </trkpt>
      <trkpt lat="45.5337" lon="2.82643">
        <ele>1724.359</ele>
        <time>2013-07-17T10:04:03Z</time>
      </trkpt>
      <trkpt lat="45.53378" lon="2.82663">
        <ele>1721.468</ele>
        <time>2013-07-17T10:04:22Z</time>
      </trkpt>
      <trkpt lat="45.53378" lon="2.82669">
        <ele>1720.184</ele>
        <time>2013-07-17T10:04:36Z</time>
      </trkpt>
      <trkpt lat="45.53385" lon="2.82686">
        <ele>1717.138</ele>
        <time>2013-07-17T10:04:50Z</time>
      </trkpt>
      <trkpt lat="45.53385" lon="2.8269">
        <ele>1716.56</ele>
        <time>2013-07-17T10:05:07Z</time>
      </trkpt>
      <trkpt lat="45.53386" lon="2.8269">
        <ele>1716.446</ele>
        <time>2013-07-17T10:05:23Z</time>
      </trkpt>
      <trkpt lat="45.53385" lon="2.82689">
        <ele>1715.801</ele>
        <time>2013-07-17T10:05:34Z</time>
      </trkpt>
      <trkpt lat="45.53385" lon="2.8269">
        <ele>1715.872</ele>
        <time>2013-07-17T10:07:50Z</time>
      </trkpt>
      <trkpt lat="45.53387" lon="2.82692">
        <ele>1715.398</ele>
        <time>2013-07-17T10:07:54Z</time>
      </trkpt>
      <trkpt lat="45.534" lon="2.82715">
        <ele>1712.064</ele>
        <time>2013-07-17T10:08:11Z</time>
      </trkpt>
      <trkpt lat="45.53418" lon="2.82743">
        <ele>1711.035</ele>
        <time>2013-07-17T10:08:32Z</time>
      </trkpt>
      <trkpt lat="45.53428" lon="2.82753">
        <ele>1710.687</ele>
        <time>2013-07-17T10:08:50Z</time>
      </trkpt>
      <trkpt lat="45.53445" lon="2.82756">
        <ele>1711.372</ele>
        <time>2013-07-17T10:09:18Z</time>
      </trkpt>
      <trkpt lat="45.53464" lon="2.82758">
        <ele>1713.514</ele>
        <time>2013-07-17T10:09:34Z</time>
      </trkpt>
      <trkpt lat="45.53479" lon="2.82763">
        <ele>1716.676</ele>
        <time>2013-07-17T10:09:50Z</time>
      </trkpt>
      <trkpt lat="45.53491" lon="2.82766">
        <ele>1719.867</ele>
        <time>2013-07-17T10:10:03Z</time>
      </trkpt>
      <trkpt lat="45.53509" lon="2.82765">
        <ele>1722.824</ele>
        <time>2013-07-17T10:10:21Z</time>
      </trkpt>
      <trkpt lat="45.53514" lon="2.82764">
        <ele>1723.401</ele>
        <time>2013-07-17T10:10:26Z</time>
      </trkpt>
      <trkpt lat="45.53519" lon="2.82763">
        <ele>1724.628</ele>
        <time>2013-07-17T10:10:32Z</time>
      </trkpt>
      <trkpt lat="45.53537" lon="2.8276">
        <ele>1728.282</ele>
        <time>2013-07-17T10:10:51Z</time>
      </trkpt>
      <trkpt lat="45.5355" lon="2.82759">
        <ele>1731.375</ele>
        <time>2013-07-17T10:11:06Z</time>
      </trkpt>
      <trkpt lat="45.53554" lon="2.82758">
        <ele>1732.358</ele>
        <time>2013-07-17T10:11:11Z</time>
      </trkpt>
      <trkpt lat="45.53558" lon="2.82757">
        <ele>1733.114</ele>
        <time>2013-07-17T10:11:15Z</time>
      </trkpt>
      <trkpt lat="45.53572" lon="2.82763">
        <ele>1736.535</ele>
        <time>2013-07-17T10:11:33Z</time>
      </trkpt>
      <trkpt lat="45.53584" lon="2.82767">
        <ele>1739.589</ele>
        <time>2013-07-17T10:11:47Z</time>
      </trkpt>
      <trkpt lat="45.53598" lon="2.82767">
        <ele>1742.7</ele>
        <time>2013-07-17T10:12:04Z</time>
      </trkpt>
      <trkpt lat="45.53609" lon="2.82762">
        <ele>1745.952</ele>
        <time>2013-07-17T10:12:19Z</time>
      </trkpt>
      <trkpt lat="45.53618" lon="2.82763">
        <ele>1748.413</ele>
        <time>2013-07-17T10:12:30Z</time>
      </trkpt>
      <trkpt lat="45.53628" lon="2.82766">
        <ele>1751.536</ele>
        <time>2013-07-17T10:12:43Z</time>
      </trkpt>
      <trkpt lat="45.53637" lon="2.82769">
        <ele>1754.287</ele>
        <time>2013-07-17T10:12:57Z</time>
      </trkpt>
      <trkpt lat="45.53648" lon="2.8277">
        <ele>1757.386</ele>
        <time>2013-07-17T10:13:09Z</time>
      </trkpt>
      <trkpt lat="45.53653" lon="2.82766">
        <ele>1759.573</ele>
        <time>2013-07-17T10:13:22Z</time>
      </trkpt>
      <trkpt lat="45.53655" lon="2.82763">
        <ele>1759.883</ele>
        <time>2013-07-17T10:13:25Z</time>
      </trkpt>
      <trkpt lat="45.5366" lon="2.82756">
        <ele>1760.35</ele>
        <time>2013-07-17T10:13:33Z</time>
      </trkpt>
      <trkpt lat="45.53662" lon="2.82758">
        <ele>1760.367</ele>
        <time>2013-07-17T10:13:35Z</time>
      </trkpt>
      <trkpt lat="45.5367" lon="2.82761">
        <ele>1760.795</ele>
        <time>2013-07-17T10:13:44Z</time>
      </trkpt>
      <trkpt lat="45.53676" lon="2.82767">
        <ele>1760.511</ele>
        <time>2013-07-17T10:13:52Z</time>
      </trkpt>
      <trkpt lat="45.53678" lon="2.82768">
        <ele>1760.433</ele>
        <time>2013-07-17T10:13:54Z</time>
      </trkpt>
      <trkpt lat="45.5368" lon="2.82769">
        <ele>1760.161</ele>
        <time>2013-07-17T10:13:56Z</time>
      </trkpt>
      <trkpt lat="45.53691" lon="2.82783">
        <ele>1759.216</ele>
        <time>2013-07-17T10:14:14Z</time>
      </trkpt>
      <trkpt lat="45.53692" lon="2.82783">
        <ele>1759.297</ele>
        <time>2013-07-17T10:14:28Z</time>
      </trkpt>
      <trkpt lat="45.53695" lon="2.82786">
        <ele>1759.041</ele>
        <time>2013-07-17T10:14:45Z</time>
      </trkpt>
      <trkpt lat="45.5371" lon="2.828">
        <ele>1756.93</ele>
        <time>2013-07-17T10:15:04Z</time>
      </trkpt>
      <trkpt lat="45.53723" lon="2.82815">
        <ele>1755.487</ele>
        <time>2013-07-17T10:15:21Z</time>
      </trkpt>
      <trkpt lat="45.53737" lon="2.8284">
        <ele>1752.85</ele>
        <time>2013-07-17T10:15:39Z</time>
      </trkpt>
      <trkpt lat="45.53747" lon="2.82859">
        <ele>1751.158</ele>
        <time>2013-07-17T10:15:57Z</time>
      </trkpt>
      <trkpt lat="45.53756" lon="2.8288">
        <ele>1748.045</ele>
        <time>2013-07-17T10:16:13Z</time>
      </trkpt>
      <trkpt lat="45.53765" lon="2.82905">
        <ele>1745.568</ele>
        <time>2013-07-17T10:16:30Z</time>
      </trkpt>
      <trkpt lat="45.53769" lon="2.82921">
        <ele>1743.139</ele>
        <time>2013-07-17T10:16:40Z</time>
      </trkpt>
      <trkpt lat="45.53771" lon="2.82926">
        <ele>1742.546</ele>
        <time>2013-07-17T10:16:43Z</time>
      </trkpt>
      <trkpt lat="45.53773" lon="2.82938">
        <ele>1741.188</ele>
        <time>2013-07-17T10:16:51Z</time>
      </trkpt>
      <trkpt lat="45.53773" lon="2.82942">
        <ele>1740.926</ele>
        <time>2013-07-17T10:16:53Z</time>
      </trkpt>
      <trkpt lat="45.53784" lon="2.82967">
        <ele>1737.744</ele>
        <time>2013-07-17T10:17:09Z</time>
      </trkpt>
      <trkpt lat="45.53788" lon="2.82978">
        <ele>1736.431</ele>
        <time>2013-07-17T10:17:16Z</time>
      </trkpt>
      <trkpt lat="45.53791" lon="2.82988">
        <ele>1735.647</ele>
        <time>2013-07-17T10:17:24Z</time>
      </trkpt>
      <trkpt lat="45.53795" lon="2.82993">
        <ele>1735.048</ele>
        <time>2013-07-17T10:17:29Z</time>
      </trkpt>
      <trkpt lat="45.53809" lon="2.83018">
        <ele>1733.675</ele>
        <time>2013-07-17T10:17:47Z</time>
      </trkpt>
      <trkpt lat="45.53835" lon="2.8304">
        <ele>1733.728</ele>
        <time>2013-07-17T10:18:09Z</time>
      </trkpt>
      <trkpt lat="45.5385" lon="2.83063">
        <ele>1732.353</ele>
        <time>2013-07-17T10:18:27Z</time>
      </trkpt>
      <trkpt lat="45.53868" lon="2.83087">
        <ele>1732.346</ele>
        <time>2013-07-17T10:18:46Z</time>
      </trkpt>
      <trkpt lat="45.53892" lon="2.83105">
        <ele>1732.848</ele>
        <time>2013-07-17T10:19:07Z</time>
      </trkpt>
      <trkpt lat="45.5391" lon="2.83119">
        <ele>1736.242</ele>
        <time>2013-07-17T10:19:26Z</time>
      </trkpt>
      <trkpt lat="45.53913" lon="2.83122">
        <ele>1736.685</ele>
        <time>2013-07-17T10:19:29Z</time>
      </trkpt>
      <trkpt lat="45.53924" lon="2.8313">
        <ele>1740.131</ele>
        <time>2013-07-17T10:19:43Z</time>
      </trkpt>
      <trkpt lat="45.53939" lon="2.8314">
        <ele>1742.414</ele>
        <time>2013-07-17T10:19:59Z</time>
      </trkpt>
      <trkpt lat="45.53961" lon="2.8315">
        <ele>1744.714</ele>
        <time>2013-07-17T10:20:18Z</time>
      </trkpt>
      <trkpt lat="45.53977" lon="2.83157">
        <ele>1747.832</ele>
        <time>2013-07-17T10:20:34Z</time>
      </trkpt>
      <trkpt lat="45.53979" lon="2.83157">
        <ele>1748.359</ele>
        <time>2013-07-17T10:20:36Z</time>
      </trkpt>
      <trkpt lat="45.53986" lon="2.83157">
        <ele>1750.095</ele>
        <time>2013-07-17T10:20:44Z</time>
      </trkpt>
      <trkpt lat="45.53988" lon="2.83157">
        <ele>1750.229</ele>
        <time>2013-07-17T10:20:46Z</time>
      </trkpt>
      <trkpt lat="45.53994" lon="2.83159">
        <ele>1751.958</ele>
        <time>2013-07-17T10:20:53Z</time>
      </trkpt>
      <trkpt lat="45.54002" lon="2.83169">
        <ele>1754.757</ele>
        <time>2013-07-17T10:21:08Z</time>
      </trkpt>
      <trkpt lat="45.54" lon="2.83176">
        <ele>1755.343</ele>
        <time>2013-07-17T10:21:22Z</time>
      </trkpt>
      <trkpt lat="45.54002" lon="2.83176">
        <ele>1755.672</ele>
        <time>2013-07-17T10:22:04Z</time>
      </trkpt>
      <trkpt lat="45.54003" lon="2.83176">
        <ele>1755.937</ele>
        <time>2013-07-17T10:22:06Z</time>
      </trkpt>
      <trkpt lat="45.54022" lon="2.83175">
        <ele>1759.414</ele>
        <time>2013-07-17T10:22:26Z</time>
      </trkpt>
      <trkpt lat="45.54034" lon="2.83183">
        <ele>1759.432</ele>
        <time>2013-07-17T10:22:42Z</time>
      </trkpt>
      <trkpt lat="45.54041" lon="2.83184">
        <ele>1757.332</ele>
        <time>2013-07-17T10:22:56Z</time>
      </trkpt>
      <trkpt lat="45.54042" lon="2.83184">
        <ele>1756.752</ele>
        <time>2013-07-17T10:22:58Z</time>
      </trkpt>
      <trkpt lat="45.54045" lon="2.83189">
        <ele>1755.903</ele>
        <time>2013-07-17T10:23:03Z</time>
      </trkpt>
      <trkpt lat="45.54053" lon="2.83194">
        <ele>1752.687</ele>
        <time>2013-07-17T10:23:12Z</time>
      </trkpt>
      <trkpt lat="45.54064" lon="2.83198">
        <ele>1749.439</ele>
        <time>2013-07-17T10:23:23Z</time>
      </trkpt>
      <trkpt lat="45.54065" lon="2.83198">
        <ele>1749.192</ele>
        <time>2013-07-17T10:23:24Z</time>
      </trkpt>
      <trkpt lat="45.54066" lon="2.83199">
        <ele>1748.905</ele>
        <time>2013-07-17T10:23:25Z</time>
      </trkpt>
      <trkpt lat="45.54078" lon="2.83203">
        <ele>1745.695</ele>
        <time>2013-07-17T10:23:35Z</time>
      </trkpt>
      <trkpt lat="45.54079" lon="2.83204">
        <ele>1745.612</ele>
        <time>2013-07-17T10:23:36Z</time>
      </trkpt>
      <trkpt lat="45.5408" lon="2.83205">
        <ele>1745.243</ele>
        <time>2013-07-17T10:23:37Z</time>
      </trkpt>
      <trkpt lat="45.54094" lon="2.83211">
        <ele>1742.171</ele>
        <time>2013-07-17T10:23:49Z</time>
      </trkpt>
      <trkpt lat="45.54099" lon="2.83211">
        <ele>1741.043</ele>
        <time>2013-07-17T10:23:54Z</time>
      </trkpt>
      <trkpt lat="45.54113" lon="2.83216">
        <ele>1737.87</ele>
        <time>2013-07-17T10:24:07Z</time>
      </trkpt>
      <trkpt lat="45.54125" lon="2.83219">
        <ele>1735.229</ele>
        <time>2013-07-17T10:24:20Z</time>
      </trkpt>
      <trkpt lat="45.54127" lon="2.83223">
        <ele>1734.778</ele>
        <time>2013-07-17T10:24:23Z</time>
      </trkpt>
      <trkpt lat="45.54131" lon="2.83223">
        <ele>1733.368</ele>
        <time>2013-07-17T10:24:27Z</time>
      </trkpt>
      <trkpt lat="45.54134" lon="2.83222">
        <ele>1732.568</ele>
        <time>2013-07-17T10:24:30Z</time>
      </trkpt>
      <trkpt lat="45.5414" lon="2.83223">
        <ele>1731.613</ele>
        <time>2013-07-17T10:24:35Z</time>
      </trkpt>
      <trkpt lat="45.54147" lon="2.83221">
        <ele>1730.628</ele>
        <time>2013-07-17T10:24:50Z</time>
      </trkpt>
      <trkpt lat="45.54149" lon="2.83221">
        <ele>1729.967</ele>
        <time>2013-07-17T10:25:30Z</time>
      </trkpt>
      <trkpt lat="45.54175" lon="2.83224">
        <ele>1726.764</ele>
        <time>2013-07-17T10:25:51Z</time>
      </trkpt>
      <trkpt lat="45.54193" lon="2.83228">
        <ele>1723.51</ele>
        <time>2013-07-17T10:26:06Z</time>
      </trkpt>
      <trkpt lat="45.54218" lon="2.83231">
        <ele>1720.441</ele>
        <time>2013-07-17T10:26:26Z</time>
      </trkpt>
      <trkpt lat="45.54232" lon="2.83232">
        <ele>1718.68</ele>
        <time>2013-07-17T10:26:43Z</time>
      </trkpt>
      <trkpt lat="45.54245" lon="2.83228">
        <ele>1717.225</ele>
        <time>2013-07-17T10:26:56Z</time>
      </trkpt>
      <trkpt lat="45.54261" lon="2.83222">
        <ele>1715.19</ele>
        <time>2013-07-17T10:27:11Z</time>
      </trkpt>
      <trkpt lat="45.54281" lon="2.83229">
        <ele>1712.695</ele>
        <time>2013-07-17T10:27:27Z</time>
      </trkpt>
      <trkpt lat="45.54308" lon="2.83239">
        <ele>1709.611</ele>
        <time>2013-07-17T10:27:49Z</time>
      </trkpt>
      <trkpt lat="45.54325" lon="2.83246">
        <ele>1706.592</ele>
        <time>2013-07-17T10:28:02Z</time>
      </trkpt>
      <trkpt lat="45.54337" lon="2.83253">
        <ele>1705.369</ele>
        <time>2013-07-17T10:28:11Z</time>
      </trkpt>
      <trkpt lat="45.54366" lon="2.83259">
        <ele>1705.902</ele>
        <time>2013-07-17T10:28:33Z</time>
      </trkpt>
      <trkpt lat="45.54401" lon="2.83264">
        <ele>1705.487</ele>
        <time>2013-07-17T10:28:59Z</time>
      </trkpt>
      <trkpt lat="45.54418" lon="2.83263">
        <ele>1705.665</ele>
        <time>2013-07-17T10:29:16Z</time>
      </trkpt>
      <trkpt lat="45.54421" lon="2.83265">
        <ele>1705.076</ele>
        <time>2013-07-17T10:29:20Z</time>
      </trkpt>
      <trkpt lat="45.54429" lon="2.83288">
        <ele>1701.998</ele>
        <time>2013-07-17T10:29:35Z</time>
      </trkpt>
      <trkpt lat="45.54437" lon="2.83299">
        <ele>1698.771</ele>
        <time>2013-07-17T10:29:45Z</time>
      </trkpt>
      <trkpt lat="45.54441" lon="2.83299">
        <ele>1698.573</ele>
        <time>2013-07-17T10:29:47Z</time>
      </trkpt>
      <trkpt lat="45.54452" lon="2.83302">
        <ele>1695.297</ele>
        <time>2013-07-17T10:29:59Z</time>
      </trkpt>
      <trkpt lat="45.54461" lon="2.83299">
        <ele>1692.934</ele>
        <time>2013-07-17T10:30:08Z</time>
      </trkpt>
      <trkpt lat="45.54464" lon="2.83298">
        <ele>1692.406</ele>
        <time>2013-07-17T10:30:10Z</time>
      </trkpt>
      <trkpt lat="45.54469" lon="2.833">
        <ele>1690.488</ele>
        <time>2013-07-17T10:30:16Z</time>
      </trkpt>
      <trkpt lat="45.54483" lon="2.83292">
        <ele>1687.335</ele>
        <time>2013-07-17T10:30:31Z</time>
      </trkpt>
      <trkpt lat="45.54487" lon="2.83288">
        <ele>1686.203</ele>
        <time>2013-07-17T10:30:36Z</time>
      </trkpt>
      <trkpt lat="45.54496" lon="2.83281">
        <ele>1682.468</ele>
        <time>2013-07-17T10:30:48Z</time>
      </trkpt>
      <trkpt lat="45.54498" lon="2.83281">
        <ele>1682.036</ele>
        <time>2013-07-17T10:30:50Z</time>
      </trkpt>
      <trkpt lat="45.54508" lon="2.83276">
        <ele>1678.355</ele>
        <time>2013-07-17T10:31:02Z</time>
      </trkpt>
      <trkpt lat="45.54517" lon="2.83281">
        <ele>1675.228</ele>
        <time>2013-07-17T10:31:13Z</time>
      </trkpt>
      <trkpt lat="45.54521" lon="2.83286">
        <ele>1672.22</ele>
        <time>2013-07-17T10:31:22Z</time>
      </trkpt>
      <trkpt lat="45.54522" lon="2.83286">
        <ele>1672.269</ele>
        <time>2013-07-17T10:31:23Z</time>
      </trkpt>
      <trkpt lat="45.54526" lon="2.83287">
        <ele>1668.518</ele>
        <time>2013-07-17T10:31:33Z</time>
      </trkpt>
      <trkpt lat="45.54535" lon="2.83285">
        <ele>1665.427</ele>
        <time>2013-07-17T10:31:44Z</time>
      </trkpt>
      <trkpt lat="45.5454" lon="2.83288">
        <ele>1662.248</ele>
        <time>2013-07-17T10:31:53Z</time>
      </trkpt>
      <trkpt lat="45.54549" lon="2.83284">
        <ele>1659.022</ele>
        <time>2013-07-17T10:32:05Z</time>
      </trkpt>
      <trkpt lat="45.54553" lon="2.83283">
        <ele>1657.327</ele>
        <time>2013-07-17T10:32:10Z</time>
      </trkpt>
      <trkpt lat="45.54564" lon="2.83281">
        <ele>1653.971</ele>
        <time>2013-07-17T10:32:22Z</time>
      </trkpt>
      <trkpt lat="45.54576" lon="2.83279">
        <ele>1651.781</ele>
        <time>2013-07-17T10:32:36Z</time>
      </trkpt>
      <trkpt lat="45.54595" lon="2.8328">
        <ele>1649.146</ele>
        <time>2013-07-17T10:32:51Z</time>
      </trkpt>
      <trkpt lat="45.54596" lon="2.8328">
        <ele>1648.642</ele>
        <time>2013-07-17T10:33:03Z</time>
      </trkpt>
      <trkpt lat="45.54597" lon="2.83278">
        <ele>1648.633</ele>
        <time>2013-07-17T10:33:19Z</time>
      </trkpt>
      <trkpt lat="45.54607" lon="2.83253">
        <ele>1647.299</ele>
        <time>2013-07-17T10:33:36Z</time>
      </trkpt>
      <trkpt lat="45.54609" lon="2.83241">
        <ele>1646.513</ele>
        <time>2013-07-17T10:33:43Z</time>
      </trkpt>
      <trkpt lat="45.54609" lon="2.83227">
        <ele>1645.984</ele>
        <time>2013-07-17T10:34:01Z</time>
      </trkpt>
      <trkpt lat="45.54609" lon="2.83227">
        <ele>1645.903</ele>
        <time>2013-07-17T10:34:24Z</time>
      </trkpt>
      <trkpt lat="45.54608" lon="2.83223">
        <ele>1644.936</ele>
        <time>2013-07-17T10:34:55Z</time>
      </trkpt>
      <trkpt lat="45.54617" lon="2.8323">
        <ele>1644.889</ele>
        <time>2013-07-17T10:35:32Z</time>
      </trkpt>
      <trkpt lat="45.54615" lon="2.83228">
        <ele>1645.484</ele>
        <time>2013-07-17T10:36:16Z</time>
      </trkpt>
      <trkpt lat="45.54612" lon="2.83231">
        <ele>1646.068</ele>
        <time>2013-07-17T10:36:53Z</time>
      </trkpt>
      <trkpt lat="45.54609" lon="2.8324">
        <ele>1646.013</ele>
        <time>2013-07-17T10:37:00Z</time>
      </trkpt>
      <trkpt lat="45.54609" lon="2.83248">
        <ele>1646.782</ele>
        <time>2013-07-17T10:37:04Z</time>
      </trkpt>
      <trkpt lat="45.54611" lon="2.83264">
        <ele>1647.819</ele>
        <time>2013-07-17T10:37:20Z</time>
      </trkpt>
      <trkpt lat="45.54617" lon="2.83262">
        <ele>1650.893</ele>
        <time>2013-07-17T10:37:31Z</time>
      </trkpt>
      <trkpt lat="45.54625" lon="2.83253">
        <ele>1653.98</ele>
        <time>2013-07-17T10:37:42Z</time>
      </trkpt>
      <trkpt lat="45.54631" lon="2.8325">
        <ele>1657.118</ele>
        <time>2013-07-17T10:37:53Z</time>
      </trkpt>
      <trkpt lat="45.54641" lon="2.83252">
        <ele>1660.237</ele>
        <time>2013-07-17T10:38:07Z</time>
      </trkpt>
      <trkpt lat="45.54645" lon="2.83251">
        <ele>1661.19</ele>
        <time>2013-07-17T10:38:12Z</time>
      </trkpt>
      <trkpt lat="45.54645" lon="2.83239">
        <ele>1663.998</ele>
        <time>2013-07-17T10:38:23Z</time>
      </trkpt>
      <trkpt lat="45.54649" lon="2.83226">
        <ele>1666.953</ele>
        <time>2013-07-17T10:38:40Z</time>
      </trkpt>
      <trkpt lat="45.54655" lon="2.83215">
        <ele>1670.196</ele>
        <time>2013-07-17T10:38:52Z</time>
      </trkpt>
      <trkpt lat="45.5466" lon="2.83204">
        <ele>1673.603</ele>
        <time>2013-07-17T10:39:08Z</time>
      </trkpt>
      <trkpt lat="45.54661" lon="2.83203">
        <ele>1674.028</ele>
        <time>2013-07-17T10:39:10Z</time>
      </trkpt>
      <trkpt lat="45.54672" lon="2.83203">
        <ele>1676.34</ele>
        <time>2013-07-17T10:39:24Z</time>
      </trkpt>
      <trkpt lat="45.54677" lon="2.832">
        <ele>1678.165</ele>
        <time>2013-07-17T10:39:32Z</time>
      </trkpt>
      <trkpt lat="45.54692" lon="2.83193">
        <ele>1681.234</ele>
        <time>2013-07-17T10:39:48Z</time>
      </trkpt>
      <trkpt lat="45.54708" lon="2.83197">
        <ele>1684.381</ele>
        <time>2013-07-17T10:40:06Z</time>
      </trkpt>
      <trkpt lat="45.54725" lon="2.83193">
        <ele>1687.201</ele>
        <time>2013-07-17T10:40:26Z</time>
      </trkpt>
      <trkpt lat="45.54728" lon="2.83192">
        <ele>1687.058</ele>
        <time>2013-07-17T10:40:29Z</time>
      </trkpt>
      <trkpt lat="45.54733" lon="2.83191">
        <ele>1687.963</ele>
        <time>2013-07-17T10:40:49Z</time>
      </trkpt>
      <trkpt lat="45.54736" lon="2.83191">
        <ele>1688.121</ele>
        <time>2013-07-17T10:41:59Z</time>
      </trkpt>
      <trkpt lat="45.54738" lon="2.83193">
        <ele>1688.142</ele>
        <time>2013-07-17T10:42:16Z</time>
      </trkpt>
      <trkpt lat="45.54748" lon="2.83193">
        <ele>1689.501</ele>
        <time>2013-07-17T10:42:27Z</time>
      </trkpt>
      <trkpt lat="45.54753" lon="2.8319">
        <ele>1690.183</ele>
        <time>2013-07-17T10:42:32Z</time>
      </trkpt>
      <trkpt lat="45.54769" lon="2.83185">
        <ele>1691.501</ele>
        <time>2013-07-17T10:42:49Z</time>
      </trkpt>
      <trkpt lat="45.54787" lon="2.83177">
        <ele>1693.601</ele>
        <time>2013-07-17T10:43:04Z</time>
      </trkpt>
      <trkpt lat="45.54798" lon="2.83169">
        <ele>1696.61</ele>
        <time>2013-07-17T10:43:17Z</time>
      </trkpt>
      <trkpt lat="45.54804" lon="2.8316">
        <ele>1699.774</ele>
        <time>2013-07-17T10:43:28Z</time>
      </trkpt>
      <trkpt lat="45.54814" lon="2.83152">
        <ele>1703.08</ele>
        <time>2013-07-17T10:43:43Z</time>
      </trkpt>
      <trkpt lat="45.54817" lon="2.8315">
        <ele>1704.494</ele>
        <time>2013-07-17T10:43:49Z</time>
      </trkpt>
      <trkpt lat="45.54834" lon="2.83144">
        <ele>1707.407</ele>
        <time>2013-07-17T10:44:08Z</time>
      </trkpt>
      <trkpt lat="45.54852" lon="2.83136">
        <ele>1709.85</ele>
        <time>2013-07-17T10:44:26Z</time>
      </trkpt>
      <trkpt lat="45.54868" lon="2.83128">
        <ele>1710.766</ele>
        <time>2013-07-17T10:44:40Z</time>
      </trkpt>
      <trkpt lat="45.54882" lon="2.83119">
        <ele>1713.416</ele>
        <time>2013-07-17T10:44:57Z</time>
      </trkpt>
      <trkpt lat="45.54897" lon="2.83115">
        <ele>1716.511</ele>
        <time>2013-07-17T10:45:11Z</time>
      </trkpt>
      <trkpt lat="45.54902" lon="2.83112">
        <ele>1717.51</ele>
        <time>2013-07-17T10:45:15Z</time>
      </trkpt>
      <trkpt lat="45.54905" lon="2.83112">
        <ele>1718.635</ele>
        <time>2013-07-17T10:45:19Z</time>
      </trkpt>
      <trkpt lat="45.54913" lon="2.83106">
        <ele>1721.659</ele>
        <time>2013-07-17T10:45:27Z</time>
      </trkpt>
      <trkpt lat="45.54921" lon="2.83095">
        <ele>1724.809</ele>
        <time>2013-07-17T10:45:37Z</time>
      </trkpt>
      <trkpt lat="45.54933" lon="2.8307">
        <ele>1727.751</ele>
        <time>2013-07-17T10:45:56Z</time>
      </trkpt>
      <trkpt lat="45.54936" lon="2.83055">
        <ele>1730.039</ele>
        <time>2013-07-17T10:46:05Z</time>
      </trkpt>
      <trkpt lat="45.54939" lon="2.83051">
        <ele>1731.383</ele>
        <time>2013-07-17T10:46:09Z</time>
      </trkpt>
      <trkpt lat="45.5494" lon="2.83043">
        <ele>1731.53</ele>
        <time>2013-07-17T10:46:24Z</time>
      </trkpt>
      <trkpt lat="45.5494" lon="2.83043">
        <ele>1731.349</ele>
        <time>2013-07-17T10:46:26Z</time>
      </trkpt>
      <trkpt lat="45.5494" lon="2.83041">
        <ele>1731.243</ele>
        <time>2013-07-17T10:46:34Z</time>
      </trkpt>
      <trkpt lat="45.54938" lon="2.83037">
        <ele>1731.317</ele>
        <time>2013-07-17T10:46:46Z</time>
      </trkpt>
      <trkpt lat="45.5494" lon="2.83044">
        <ele>1731.494</ele>
        <time>2013-07-17T10:46:56Z</time>
      </trkpt>
      <trkpt lat="45.54942" lon="2.83045">
        <ele>1731.374</ele>
        <time>2013-07-17T10:47:01Z</time>
      </trkpt>
      <trkpt lat="45.54942" lon="2.83049">
        <ele>1730.69</ele>
        <time>2013-07-17T10:47:21Z</time>
      </trkpt>
      <trkpt lat="45.5494" lon="2.83047">
        <ele>1731.285</ele>
        <time>2013-07-17T10:47:39Z</time>
      </trkpt>
      <trkpt lat="45.54939" lon="2.83045">
        <ele>1731.601</ele>
        <time>2013-07-17T10:48:02Z</time>
      </trkpt>
      <trkpt lat="45.5494" lon="2.83046">
        <ele>1730.836</ele>
        <time>2013-07-17T10:48:32Z</time>
      </trkpt>
      <trkpt lat="45.54941" lon="2.83042">
        <ele>1731.057</ele>
        <time>2013-07-17T10:49:16Z</time>
      </trkpt>
      <trkpt lat="45.54941" lon="2.83042">
        <ele>1731.119</ele>
        <time>2013-07-17T10:49:30Z</time>
      </trkpt>
      <trkpt lat="45.54941" lon="2.83042">
        <ele>1731.15</ele>
        <time>2013-07-17T10:49:36Z</time>
      </trkpt>
      <trkpt lat="45.54945" lon="2.8304">
        <ele>1729.432</ele>
        <time>2013-07-17T10:49:52Z</time>
      </trkpt>
      <trkpt lat="45.54944" lon="2.8304">
        <ele>1730.548</ele>
        <time>2013-07-17T10:50:57Z</time>
      </trkpt>
      <trkpt lat="45.54943" lon="2.83043">
        <ele>1730.882</ele>
        <time>2013-07-17T10:51:16Z</time>
      </trkpt>
      <trkpt lat="45.5494" lon="2.83045">
        <ele>1731.492</ele>
        <time>2013-07-17T10:51:39Z</time>
      </trkpt>
      <trkpt lat="45.54948" lon="2.8303">
        <ele>1729.831</ele>
        <time>2013-07-17T10:51:50Z</time>
      </trkpt>
      <trkpt lat="45.54953" lon="2.83015">
        <ele>1728.498</ele>
        <time>2013-07-17T10:52:06Z</time>
      </trkpt>
      <trkpt lat="45.54953" lon="2.83015">
        <ele>1728.168</ele>
        <time>2013-07-17T10:52:34Z</time>
      </trkpt>
      <trkpt lat="45.54954" lon="2.83014">
        <ele>1729.057</ele>
        <time>2013-07-17T10:53:03Z</time>
      </trkpt>
      <trkpt lat="45.54959" lon="2.83011">
        <ele>1727.07</ele>
        <time>2013-07-17T10:53:15Z</time>
      </trkpt>
      <trkpt lat="45.54964" lon="2.83005">
        <ele>1725.162</ele>
        <time>2013-07-17T10:53:31Z</time>
      </trkpt>
      <trkpt lat="45.54966" lon="2.83004">
        <ele>1723.558</ele>
        <time>2013-07-17T10:53:45Z</time>
      </trkpt>
      <trkpt lat="45.54971" lon="2.82997">
        <ele>1721.06</ele>
        <time>2013-07-17T10:53:54Z</time>
      </trkpt>
      <trkpt lat="45.54977" lon="2.82988">
        <ele>1717.995</ele>
        <time>2013-07-17T10:54:04Z</time>
      </trkpt>
      <trkpt lat="45.54983" lon="2.82982">
        <ele>1714.977</ele>
        <time>2013-07-17T10:54:15Z</time>
      </trkpt>
      <trkpt lat="45.54988" lon="2.82974">
        <ele>1712.604</ele>
        <time>2013-07-17T10:54:24Z</time>
      </trkpt>
      <trkpt lat="45.54991" lon="2.82967">
        <ele>1711.465</ele>
        <time>2013-07-17T10:54:29Z</time>
      </trkpt>
      <trkpt lat="45.54994" lon="2.82962">
        <ele>1709.927</ele>
        <time>2013-07-17T10:54:35Z</time>
      </trkpt>
      <trkpt lat="45.54999" lon="2.82951">
        <ele>1706.522</ele>
        <time>2013-07-17T10:54:49Z</time>
      </trkpt>
      <trkpt lat="45.55004" lon="2.8294">
        <ele>1703.461</ele>
        <time>2013-07-17T10:55:00Z</time>
      </trkpt>
      <trkpt lat="45.55005" lon="2.82938">
        <ele>1702.675</ele>
        <time>2013-07-17T10:55:02Z</time>
      </trkpt>
      <trkpt lat="45.55007" lon="2.82934">
        <ele>1701.07</ele>
        <time>2013-07-17T10:55:07Z</time>
      </trkpt>
      <trkpt lat="45.55013" lon="2.82937">
        <ele>1698.65</ele>
        <time>2013-07-17T10:55:15Z</time>
      </trkpt>
      <trkpt lat="45.55017" lon="2.82934">
        <ele>1696.401</ele>
        <time>2013-07-17T10:55:22Z</time>
      </trkpt>
      <trkpt lat="45.55024" lon="2.82927">
        <ele>1692.911</ele>
        <time>2013-07-17T10:55:32Z</time>
      </trkpt>
      <trkpt lat="45.55026" lon="2.82925">
        <ele>1692.796</ele>
        <time>2013-07-17T10:55:33Z</time>
      </trkpt>
      <trkpt lat="45.55029" lon="2.82922">
        <ele>1690.92</ele>
        <time>2013-07-17T10:55:38Z</time>
      </trkpt>
      <trkpt lat="45.55034" lon="2.8292">
        <ele>1688.561</ele>
        <time>2013-07-17T10:55:45Z</time>
      </trkpt>
      <trkpt lat="45.55039" lon="2.82914">
        <ele>1686.49</ele>
        <time>2013-07-17T10:55:52Z</time>
      </trkpt>
      <trkpt lat="45.55043" lon="2.8291">
        <ele>1683.392</ele>
        <time>2013-07-17T10:56:00Z</time>
      </trkpt>
      <trkpt lat="45.55051" lon="2.82905">
        <ele>1679.862</ele>
        <time>2013-07-17T10:56:12Z</time>
      </trkpt>
      <trkpt lat="45.55053" lon="2.82902">
        <ele>1677.474</ele>
        <time>2013-07-17T10:56:18Z</time>
      </trkpt>
      <trkpt lat="45.55053" lon="2.82901">
        <ele>1677.185</ele>
        <time>2013-07-17T10:56:20Z</time>
      </trkpt>
      <trkpt lat="45.5506" lon="2.82894">
        <ele>1673.374</ele>
        <time>2013-07-17T10:56:31Z</time>
      </trkpt>
      <trkpt lat="45.55061" lon="2.82891">
        <ele>1672.541</ele>
        <time>2013-07-17T10:56:34Z</time>
      </trkpt>
      <trkpt lat="45.55064" lon="2.82885">
        <ele>1670.991</ele>
        <time>2013-07-17T10:56:39Z</time>
      </trkpt>
      <trkpt lat="45.55067" lon="2.82884">
        <ele>1669.601</ele>
        <time>2013-07-17T10:56:43Z</time>
      </trkpt>
      <trkpt lat="45.55067" lon="2.82879">
        <ele>1668.785</ele>
        <time>2013-07-17T10:56:47Z</time>
      </trkpt>
      <trkpt lat="45.55071" lon="2.82865">
        <ele>1665.178</ele>
        <time>2013-07-17T10:56:57Z</time>
      </trkpt>
      <trkpt lat="45.55077" lon="2.82862">
        <ele>1662.122</ele>
        <time>2013-07-17T10:57:05Z</time>
      </trkpt>
      <trkpt lat="45.55082" lon="2.82859">
        <ele>1660.211</ele>
        <time>2013-07-17T10:57:10Z</time>
      </trkpt>
      <trkpt lat="45.55084" lon="2.82857">
        <ele>1659.313</ele>
        <time>2013-07-17T10:57:13Z</time>
      </trkpt>
      <trkpt lat="45.55088" lon="2.82851">
        <ele>1656.758</ele>
        <time>2013-07-17T10:57:20Z</time>
      </trkpt>
      <trkpt lat="45.5509" lon="2.82848">
        <ele>1655.527</ele>
        <time>2013-07-17T10:57:23Z</time>
      </trkpt>
      <trkpt lat="45.55094" lon="2.82843">
        <ele>1653.603</ele>
        <time>2013-07-17T10:57:29Z</time>
      </trkpt>
      <trkpt lat="45.55097" lon="2.82843">
        <ele>1652.206</ele>
        <time>2013-07-17T10:57:33Z</time>
      </trkpt>
      <trkpt lat="45.55099" lon="2.82839">
        <ele>1651.435</ele>
        <time>2013-07-17T10:57:37Z</time>
      </trkpt>
      <trkpt lat="45.55101" lon="2.82835">
        <ele>1650.686</ele>
        <time>2013-07-17T10:57:40Z</time>
      </trkpt>
      <trkpt lat="45.5511" lon="2.82836">
        <ele>1646.956</ele>
        <time>2013-07-17T10:57:51Z</time>
      </trkpt>
      <trkpt lat="45.55112" lon="2.82833">
        <ele>1645.732</ele>
        <time>2013-07-17T10:57:54Z</time>
      </trkpt>
      <trkpt lat="45.55118" lon="2.82828">
        <ele>1642.312</ele>
        <time>2013-07-17T10:58:06Z</time>
      </trkpt>
      <trkpt lat="45.5512" lon="2.8282">
        <ele>1640.53</ele>
        <time>2013-07-17T10:58:12Z</time>
      </trkpt>
      <trkpt lat="45.55133" lon="2.82797">
        <ele>1637.617</ele>
        <time>2013-07-17T10:58:29Z</time>
      </trkpt>
      <trkpt lat="45.55137" lon="2.82798">
        <ele>1636.659</ele>
        <time>2013-07-17T10:58:32Z</time>
      </trkpt>
      <trkpt lat="45.55142" lon="2.82794">
        <ele>1633.639</ele>
        <time>2013-07-17T10:58:39Z</time>
      </trkpt>
      <trkpt lat="45.55145" lon="2.82789">
        <ele>1632.055</ele>
        <time>2013-07-17T10:58:43Z</time>
      </trkpt>
      <trkpt lat="45.55148" lon="2.8279">
        <ele>1631.052</ele>
        <time>2013-07-17T10:58:46Z</time>
      </trkpt>
      <trkpt lat="45.5515" lon="2.82785">
        <ele>1629.861</ele>
        <time>2013-07-17T10:58:50Z</time>
      </trkpt>
      <trkpt lat="45.55159" lon="2.82779">
        <ele>1626.828</ele>
        <time>2013-07-17T10:58:59Z</time>
      </trkpt>
      <trkpt lat="45.55161" lon="2.82779">
        <ele>1625.839</ele>
        <time>2013-07-17T10:59:02Z</time>
      </trkpt>
      <trkpt lat="45.55164" lon="2.82773">
        <ele>1624.684</ele>
        <time>2013-07-17T10:59:07Z</time>
      </trkpt>
      <trkpt lat="45.55167" lon="2.82773">
        <ele>1623.767</ele>
        <time>2013-07-17T10:59:09Z</time>
      </trkpt>
      <trkpt lat="45.55169" lon="2.82773">
        <ele>1623.145</ele>
        <time>2013-07-17T10:59:11Z</time>
      </trkpt>
      <trkpt lat="45.55173" lon="2.82766">
        <ele>1621.318</ele>
        <time>2013-07-17T10:59:18Z</time>
      </trkpt>
      <trkpt lat="45.55179" lon="2.82767">
        <ele>1618.472</ele>
        <time>2013-07-17T10:59:27Z</time>
      </trkpt>
      <trkpt lat="45.55183" lon="2.82759">
        <ele>1616.059</ele>
        <time>2013-07-17T10:59:38Z</time>
      </trkpt>
      <trkpt lat="45.55184" lon="2.82753">
        <ele>1614.857</ele>
        <time>2013-07-17T10:59:42Z</time>
      </trkpt>
      <trkpt lat="45.55186" lon="2.82746">
        <ele>1613.854</ele>
        <time>2013-07-17T10:59:47Z</time>
      </trkpt>
      <trkpt lat="45.55194" lon="2.82743">
        <ele>1611.402</ele>
        <time>2013-07-17T10:59:55Z</time>
      </trkpt>
      <trkpt lat="45.55203" lon="2.82732">
        <ele>1609.083</ele>
        <time>2013-07-17T11:00:06Z</time>
      </trkpt>
      <trkpt lat="45.55208" lon="2.82717">
        <ele>1606.781</ele>
        <time>2013-07-17T11:00:15Z</time>
      </trkpt>
      <trkpt lat="45.55213" lon="2.82688">
        <ele>1603.859</ele>
        <time>2013-07-17T11:00:32Z</time>
      </trkpt>
      <trkpt lat="45.55218" lon="2.82662">
        <ele>1600.442</ele>
        <time>2013-07-17T11:00:48Z</time>
      </trkpt>
      <trkpt lat="45.55225" lon="2.82636">
        <ele>1597.895</ele>
        <time>2013-07-17T11:01:03Z</time>
      </trkpt>
      <trkpt lat="45.5523" lon="2.8263">
        <ele>1596.707</ele>
        <time>2013-07-17T11:01:08Z</time>
      </trkpt>
      <trkpt lat="45.55232" lon="2.82628">
        <ele>1595.981</ele>
        <time>2013-07-17T11:01:10Z</time>
      </trkpt>
      <trkpt lat="45.55233" lon="2.82627">
        <ele>1595.833</ele>
        <time>2013-07-17T11:01:11Z</time>
      </trkpt>
      <trkpt lat="45.55245" lon="2.82617">
        <ele>1592.946</ele>
        <time>2013-07-17T11:01:22Z</time>
      </trkpt>
      <trkpt lat="45.55248" lon="2.82614">
        <ele>1591.603</ele>
        <time>2013-07-17T11:01:26Z</time>
      </trkpt>
      <trkpt lat="45.55258" lon="2.8261">
        <ele>1589.074</ele>
        <time>2013-07-17T11:01:35Z</time>
      </trkpt>
      <trkpt lat="45.55272" lon="2.82601">
        <ele>1585.609</ele>
        <time>2013-07-17T11:01:48Z</time>
      </trkpt>
      <trkpt lat="45.55286" lon="2.82589">
        <ele>1582.357</ele>
        <time>2013-07-17T11:02:01Z</time>
      </trkpt>
      <trkpt lat="45.55303" lon="2.82581">
        <ele>1578.964</ele>
        <time>2013-07-17T11:02:15Z</time>
      </trkpt>
      <trkpt lat="45.55304" lon="2.82581">
        <ele>1578.737</ele>
        <time>2013-07-17T11:02:16Z</time>
      </trkpt>
      <trkpt lat="45.55312" lon="2.82572">
        <ele>1576.09</ele>
        <time>2013-07-17T11:02:24Z</time>
      </trkpt>
      <trkpt lat="45.55329" lon="2.82569">
        <ele>1572.961</ele>
        <time>2013-07-17T11:02:37Z</time>
      </trkpt>
      <trkpt lat="45.55339" lon="2.82563">
        <ele>1570.691</ele>
        <time>2013-07-17T11:02:46Z</time>
      </trkpt>
      <trkpt lat="45.55351" lon="2.82557">
        <ele>1568.185</ele>
        <time>2013-07-17T11:02:56Z</time>
      </trkpt>
      <trkpt lat="45.55356" lon="2.82558">
        <ele>1567.027</ele>
        <time>2013-07-17T11:03:00Z</time>
      </trkpt>
      <trkpt lat="45.55363" lon="2.82555">
        <ele>1565.286</ele>
        <time>2013-07-17T11:03:07Z</time>
      </trkpt>
      <trkpt lat="45.55366" lon="2.82553">
        <ele>1563.997</ele>
        <time>2013-07-17T11:03:10Z</time>
      </trkpt>
      <trkpt lat="45.55378" lon="2.82552">
        <ele>1560.999</ele>
        <time>2013-07-17T11:03:20Z</time>
      </trkpt>
      <trkpt lat="45.55389" lon="2.82546">
        <ele>1558.679</ele>
        <time>2013-07-17T11:03:30Z</time>
      </trkpt>
      <trkpt lat="45.55392" lon="2.82544">
        <ele>1557.49</ele>
        <time>2013-07-17T11:03:33Z</time>
      </trkpt>
      <trkpt lat="45.55409" lon="2.82537">
        <ele>1554.199</ele>
        <time>2013-07-17T11:03:47Z</time>
      </trkpt>
      <trkpt lat="45.5541" lon="2.82537">
        <ele>1553.643</ele>
        <time>2013-07-17T11:03:48Z</time>
      </trkpt>
      <trkpt lat="45.55421" lon="2.82528">
        <ele>1550.383</ele>
        <time>2013-07-17T11:03:59Z</time>
      </trkpt>
      <trkpt lat="45.55429" lon="2.82522">
        <ele>1548.561</ele>
        <time>2013-07-17T11:04:07Z</time>
      </trkpt>
      <trkpt lat="45.55442" lon="2.82512">
        <ele>1544.968</ele>
        <time>2013-07-17T11:04:20Z</time>
      </trkpt>
      <trkpt lat="45.55454" lon="2.82504">
        <ele>1541.613</ele>
        <time>2013-07-17T11:04:32Z</time>
      </trkpt>
      <trkpt lat="45.55475" lon="2.82502">
        <ele>1539.203</ele>
        <time>2013-07-17T11:04:49Z</time>
      </trkpt>
      <trkpt lat="45.55493" lon="2.82498">
        <ele>1536.158</ele>
        <time>2013-07-17T11:05:02Z</time>
      </trkpt>
      <trkpt lat="45.55495" lon="2.82497">
        <ele>1535.916</ele>
        <time>2013-07-17T11:05:04Z</time>
      </trkpt>
      <trkpt lat="45.55499" lon="2.82499">
        <ele>1535.238</ele>
        <time>2013-07-17T11:05:12Z</time>
      </trkpt>
      <trkpt lat="45.55509" lon="2.8249">
        <ele>1533.192</ele>
        <time>2013-07-17T11:05:22Z</time>
      </trkpt>
      <trkpt lat="45.55513" lon="2.82487">
        <ele>1532.507</ele>
        <time>2013-07-17T11:05:26Z</time>
      </trkpt>
      <trkpt lat="45.55518" lon="2.82499">
        <ele>1531.802</ele>
        <time>2013-07-17T11:05:35Z</time>
      </trkpt>
      <trkpt lat="45.5552" lon="2.82505">
        <ele>1531.464</ele>
        <time>2013-07-17T11:05:39Z</time>
      </trkpt>
      <trkpt lat="45.55529" lon="2.82506">
        <ele>1529.519</ele>
        <time>2013-07-17T11:05:47Z</time>
      </trkpt>
      <trkpt lat="45.55541" lon="2.82505">
        <ele>1526.498</ele>
        <time>2013-07-17T11:05:58Z</time>
      </trkpt>
      <trkpt lat="45.55563" lon="2.82509">
        <ele>1523.164</ele>
        <time>2013-07-17T11:06:17Z</time>
      </trkpt>
      <trkpt lat="45.55565" lon="2.8251">
        <ele>1523.156</ele>
        <time>2013-07-17T11:06:19Z</time>
      </trkpt>
      <trkpt lat="45.55567" lon="2.82511">
        <ele>1522.615</ele>
        <time>2013-07-17T11:06:21Z</time>
      </trkpt>
      <trkpt lat="45.55588" lon="2.82513">
        <ele>1519.174</ele>
        <time>2013-07-17T11:06:37Z</time>
      </trkpt>
      <trkpt lat="45.55597" lon="2.8252">
        <ele>1517.301</ele>
        <time>2013-07-17T11:06:49Z</time>
      </trkpt>
      <trkpt lat="45.55598" lon="2.82519">
        <ele>1516.803</ele>
        <time>2013-07-17T11:07:45Z</time>
      </trkpt>
      <trkpt lat="45.55614" lon="2.82501">
        <ele>1513.944</ele>
        <time>2013-07-17T11:08:01Z</time>
      </trkpt>
      <trkpt lat="45.55633" lon="2.82484">
        <ele>1511.095</ele>
        <time>2013-07-17T11:08:18Z</time>
      </trkpt>
      <trkpt lat="45.55645" lon="2.82472">
        <ele>1508.387</ele>
        <time>2013-07-17T11:08:31Z</time>
      </trkpt>
      <trkpt lat="45.55659" lon="2.82457">
        <ele>1506.313</ele>
        <time>2013-07-17T11:08:47Z</time>
      </trkpt>
      <trkpt lat="45.55663" lon="2.82451">
        <ele>1505.68</ele>
        <time>2013-07-17T11:08:51Z</time>
      </trkpt>
      <trkpt lat="45.55678" lon="2.82442">
        <ele>1502.181</ele>
        <time>2013-07-17T11:09:06Z</time>
      </trkpt>
      <trkpt lat="45.55681" lon="2.82437">
        <ele>1502.075</ele>
        <time>2013-07-17T11:09:09Z</time>
      </trkpt>
      <trkpt lat="45.55698" lon="2.82417">
        <ele>1498.78</ele>
        <time>2013-07-17T11:09:26Z</time>
      </trkpt>
      <trkpt lat="45.55708" lon="2.82407">
        <ele>1497.631</ele>
        <time>2013-07-17T11:09:35Z</time>
      </trkpt>
      <trkpt lat="45.55714" lon="2.82396">
        <ele>1496.333</ele>
        <time>2013-07-17T11:09:44Z</time>
      </trkpt>
      <trkpt lat="45.55718" lon="2.82395">
        <ele>1495.783</ele>
        <time>2013-07-17T11:09:47Z</time>
      </trkpt>
      <trkpt lat="45.55722" lon="2.82391">
        <ele>1495.266</ele>
        <time>2013-07-17T11:09:51Z</time>
      </trkpt>
      <trkpt lat="45.55724" lon="2.82388">
        <ele>1494.999</ele>
        <time>2013-07-17T11:09:53Z</time>
      </trkpt>
      <trkpt lat="45.55727" lon="2.82382">
        <ele>1494.948</ele>
        <time>2013-07-17T11:09:57Z</time>
      </trkpt>
      <trkpt lat="45.5573" lon="2.82379">
        <ele>1494.443</ele>
        <time>2013-07-17T11:10:01Z</time>
      </trkpt>
      <trkpt lat="45.55742" lon="2.82371">
        <ele>1492.601</ele>
        <time>2013-07-17T11:10:18Z</time>
      </trkpt>
      <trkpt lat="45.55743" lon="2.82366">
        <ele>1492.325</ele>
        <time>2013-07-17T11:10:22Z</time>
      </trkpt>
      <trkpt lat="45.55736" lon="2.82358">
        <ele>1491.843</ele>
        <time>2013-07-17T11:10:34Z</time>
      </trkpt>
      <trkpt lat="45.55737" lon="2.82357">
        <ele>1491.79</ele>
        <time>2013-07-17T11:10:57Z</time>
      </trkpt>
      <trkpt lat="45.55736" lon="2.82357">
        <ele>1491.82</ele>
        <time>2013-07-17T11:11:01Z</time>
      </trkpt>
      <trkpt lat="45.55734" lon="2.82349">
        <ele>1491.285</ele>
        <time>2013-07-17T11:11:07Z</time>
      </trkpt>
      <trkpt lat="45.55735" lon="2.82345">
        <ele>1491.162</ele>
        <time>2013-07-17T11:11:10Z</time>
      </trkpt>
      <trkpt lat="45.55741" lon="2.82335">
        <ele>1491.111</ele>
        <time>2013-07-17T11:11:18Z</time>
      </trkpt>
      <trkpt lat="45.55743" lon="2.82333">
        <ele>1490.874</ele>
        <time>2013-07-17T11:11:21Z</time>
      </trkpt>
      <trkpt lat="45.55747" lon="2.82326">
        <ele>1490.664</ele>
        <time>2013-07-17T11:11:41Z</time>
      </trkpt>
      <trkpt lat="45.55746" lon="2.82329">
        <ele>1490.098</ele>
        <time>2013-07-17T11:13:20Z</time>
      </trkpt>
      <trkpt lat="45.55736" lon="2.82344">
        <ele>1490.383</ele>
        <time>2013-07-17T11:13:35Z</time>
      </trkpt>
      <trkpt lat="45.55734" lon="2.82358">
        <ele>1490.791</ele>
        <time>2013-07-17T11:13:45Z</time>
      </trkpt>
      <trkpt lat="45.55731" lon="2.82361">
        <ele>1490.833</ele>
        <time>2013-07-17T11:13:57Z</time>
      </trkpt>
      <trkpt lat="45.55732" lon="2.8236">
        <ele>1490.807</ele>
        <time>2013-07-17T11:14:11Z</time>
      </trkpt>
      <trkpt lat="45.55735" lon="2.82345">
        <ele>1490.062</ele>
        <time>2013-07-17T11:14:26Z</time>
      </trkpt>
      <trkpt lat="45.55736" lon="2.82343">
        <ele>1490.099</ele>
        <time>2013-07-17T11:14:40Z</time>
      </trkpt>
      <trkpt lat="45.55734" lon="2.82356">
        <ele>1490.673</ele>
        <time>2013-07-17T11:14:51Z</time>
      </trkpt>
      <trkpt lat="45.55737" lon="2.82359">
        <ele>1490.334</ele>
        <time>2013-07-17T11:14:58Z</time>
      </trkpt>
      <trkpt lat="45.55744" lon="2.82353">
        <ele>1489.254</ele>
        <time>2013-07-17T11:15:14Z</time>
      </trkpt>
      <trkpt lat="45.55745" lon="2.82355">
        <ele>1488.509</ele>
        <time>2013-07-17T11:15:36Z</time>
      </trkpt>
      <trkpt lat="45.55746" lon="2.82355">
        <ele>1489.224</ele>
        <time>2013-07-17T11:15:52Z</time>
      </trkpt>
      <trkpt lat="45.55746" lon="2.82356">
        <ele>1487.894</ele>
        <time>2013-07-17T11:18:08Z</time>
      </trkpt>
      <trkpt lat="45.55747" lon="2.82356">
        <ele>1484.774</ele>
        <time>2013-07-17T11:30:11Z</time>
      </trkpt>
      <trkpt lat="45.55746" lon="2.82355">
        <ele>1485.085</ele>
        <time>2013-07-17T11:40:27Z</time>
      </trkpt>
      <trkpt lat="45.55745" lon="2.82351">
        <ele>1485.099</ele>
        <time>2013-07-17T11:40:42Z</time>
      </trkpt>
      <trkpt lat="45.5575" lon="2.82339">
        <ele>1483.092</ele>
        <time>2013-07-17T11:40:54Z</time>
      </trkpt>
      <trkpt lat="45.55763" lon="2.82332">
        <ele>1482.123</ele>
        <time>2013-07-17T11:41:09Z</time>
      </trkpt>
      <trkpt lat="45.55772" lon="2.82326">
        <ele>1481.669</ele>
        <time>2013-07-17T11:41:18Z</time>
      </trkpt>
      <trkpt lat="45.55775" lon="2.82324">
        <ele>1480.853</ele>
        <time>2013-07-17T11:41:35Z</time>
      </trkpt>
      <trkpt lat="45.55779" lon="2.82321">
        <ele>1480.193</ele>
        <time>2013-07-17T11:41:42Z</time>
      </trkpt>
      <trkpt lat="45.55793" lon="2.82313">
        <ele>1477.426</ele>
        <time>2013-07-17T11:42:00Z</time>
      </trkpt>
      <trkpt lat="45.55798" lon="2.82313">
        <ele>1477.198</ele>
        <time>2013-07-17T11:42:21Z</time>
      </trkpt>
      <trkpt lat="45.55799" lon="2.82313">
        <ele>1476.698</ele>
        <time>2013-07-17T11:42:27Z</time>
      </trkpt>
      <trkpt lat="45.55815" lon="2.82305">
        <ele>1474.281</ele>
        <time>2013-07-17T11:42:40Z</time>
      </trkpt>
      <trkpt lat="45.55824" lon="2.82302">
        <ele>1473.651</ele>
        <time>2013-07-17T11:42:48Z</time>
      </trkpt>
      <trkpt lat="45.55841" lon="2.82293">
        <ele>1470.926</ele>
        <time>2013-07-17T11:43:06Z</time>
      </trkpt>
      <trkpt lat="45.55843" lon="2.82288">
        <ele>1470.161</ele>
        <time>2013-07-17T11:43:20Z</time>
      </trkpt>
      <trkpt lat="45.55848" lon="2.82288">
        <ele>1469.998</ele>
        <time>2013-07-17T11:43:34Z</time>
      </trkpt>
      <trkpt lat="45.55851" lon="2.82286">
        <ele>1469.403</ele>
        <time>2013-07-17T11:43:37Z</time>
      </trkpt>
      <trkpt lat="45.55855" lon="2.82286">
        <ele>1468.964</ele>
        <time>2013-07-17T11:43:41Z</time>
      </trkpt>
      <trkpt lat="45.55871" lon="2.82279">
        <ele>1466.841</ele>
        <time>2013-07-17T11:44:00Z</time>
      </trkpt>
      <trkpt lat="45.55888" lon="2.82275">
        <ele>1463.837</ele>
        <time>2013-07-17T11:44:20Z</time>
      </trkpt>
      <trkpt lat="45.55904" lon="2.82268">
        <ele>1462.917</ele>
        <time>2013-07-17T11:44:38Z</time>
      </trkpt>
      <trkpt lat="45.55926" lon="2.82264">
        <ele>1460.072</ele>
        <time>2013-07-17T11:44:58Z</time>
      </trkpt>
      <trkpt lat="45.55948" lon="2.82254">
        <ele>1457.572</ele>
        <time>2013-07-17T11:45:17Z</time>
      </trkpt>
      <trkpt lat="45.55969" lon="2.82242">
        <ele>1455.37</ele>
        <time>2013-07-17T11:45:37Z</time>
      </trkpt>
      <trkpt lat="45.55986" lon="2.82231">
        <ele>1452.244</ele>
        <time>2013-07-17T11:45:52Z</time>
      </trkpt>
      <trkpt lat="45.55994" lon="2.82224">
        <ele>1450.815</ele>
        <time>2013-07-17T11:46:01Z</time>
      </trkpt>
      <trkpt lat="45.56004" lon="2.82213">
        <ele>1447.898</ele>
        <time>2013-07-17T11:46:16Z</time>
      </trkpt>
      <trkpt lat="45.56005" lon="2.82212">
        <ele>1447.28</ele>
        <time>2013-07-17T11:46:18Z</time>
      </trkpt>
      <trkpt lat="45.56007" lon="2.82209">
        <ele>1446.85</ele>
        <time>2013-07-17T11:46:20Z</time>
      </trkpt>
      <trkpt lat="45.56025" lon="2.82197">
        <ele>1443.917</ele>
        <time>2013-07-17T11:46:37Z</time>
      </trkpt>
      <trkpt lat="45.56046" lon="2.82181">
        <ele>1441.174</ele>
        <time>2013-07-17T11:46:56Z</time>
      </trkpt>
      <trkpt lat="45.56049" lon="2.82178">
        <ele>1440.407</ele>
        <time>2013-07-17T11:46:59Z</time>
      </trkpt>
      <trkpt lat="45.56055" lon="2.82176">
        <ele>1438.857</ele>
        <time>2013-07-17T11:47:06Z</time>
      </trkpt>
      <trkpt lat="45.56062" lon="2.82172">
        <ele>1436.398</ele>
        <time>2013-07-17T11:47:14Z</time>
      </trkpt>
      <trkpt lat="45.56068" lon="2.82159">
        <ele>1433.247</ele>
        <time>2013-07-17T11:47:25Z</time>
      </trkpt>
      <trkpt lat="45.56075" lon="2.82155">
        <ele>1430.017</ele>
        <time>2013-07-17T11:47:36Z</time>
      </trkpt>
      <trkpt lat="45.56079" lon="2.82143">
        <ele>1426.264</ele>
        <time>2013-07-17T11:47:49Z</time>
      </trkpt>
      <trkpt lat="45.56094" lon="2.82125">
        <ele>1423.172</ele>
        <time>2013-07-17T11:48:05Z</time>
      </trkpt>
      <trkpt lat="45.56112" lon="2.82107">
        <ele>1420.088</ele>
        <time>2013-07-17T11:48:22Z</time>
      </trkpt>
      <trkpt lat="45.56131" lon="2.82102">
        <ele>1416.977</ele>
        <time>2013-07-17T11:48:37Z</time>
      </trkpt>
      <trkpt lat="45.56152" lon="2.82097">
        <ele>1415.087</ele>
        <time>2013-07-17T11:48:52Z</time>
      </trkpt>
      <trkpt lat="45.56164" lon="2.82098">
        <ele>1413.995</ele>
        <time>2013-07-17T11:49:01Z</time>
      </trkpt>
      <trkpt lat="45.56168" lon="2.82098">
        <ele>1413.505</ele>
        <time>2013-07-17T11:49:05Z</time>
      </trkpt>
      <trkpt lat="45.56179" lon="2.8209">
        <ele>1411.173</ele>
        <time>2013-07-17T11:49:21Z</time>
      </trkpt>
      <trkpt lat="45.56191" lon="2.8208">
        <ele>1407.986</ele>
        <time>2013-07-17T11:49:38Z</time>
      </trkpt>
      <trkpt lat="45.56203" lon="2.82063">
        <ele>1404.737</ele>
        <time>2013-07-17T11:49:53Z</time>
      </trkpt>
      <trkpt lat="45.56217" lon="2.82055">
        <ele>1401.688</ele>
        <time>2013-07-17T11:50:06Z</time>
      </trkpt>
      <trkpt lat="45.56234" lon="2.82048">
        <ele>1399.156</ele>
        <time>2013-07-17T11:50:22Z</time>
      </trkpt>
      <trkpt lat="45.56235" lon="2.82048">
        <ele>1398.691</ele>
        <time>2013-07-17T11:50:23Z</time>
      </trkpt>
      <trkpt lat="45.56258" lon="2.82041">
        <ele>1395.234</ele>
        <time>2013-07-17T11:50:42Z</time>
      </trkpt>
      <trkpt lat="45.56266" lon="2.8204">
        <ele>1394.13</ele>
        <time>2013-07-17T11:50:48Z</time>
      </trkpt>
      <trkpt lat="45.56285" lon="2.82034">
        <ele>1391.118</ele>
        <time>2013-07-17T11:51:05Z</time>
      </trkpt>
      <trkpt lat="45.56306" lon="2.82028">
        <ele>1388.88</ele>
        <time>2013-07-17T11:51:22Z</time>
      </trkpt>
      <trkpt lat="45.56317" lon="2.82024">
        <ele>1386.833</ele>
        <time>2013-07-17T11:51:32Z</time>
      </trkpt>
      <trkpt lat="45.56332" lon="2.82012">
        <ele>1385.374</ele>
        <time>2013-07-17T11:51:47Z</time>
      </trkpt>
      <trkpt lat="45.56343" lon="2.81999">
        <ele>1383.147</ele>
        <time>2013-07-17T11:52:03Z</time>
      </trkpt>
      <trkpt lat="45.5635" lon="2.81981">
        <ele>1381.839</ele>
        <time>2013-07-17T11:52:17Z</time>
      </trkpt>
      <trkpt lat="45.56357" lon="2.8196">
        <ele>1380.069</ele>
        <time>2013-07-17T11:52:32Z</time>
      </trkpt>
      <trkpt lat="45.56367" lon="2.81937">
        <ele>1376.841</ele>
        <time>2013-07-17T11:52:48Z</time>
      </trkpt>
      <trkpt lat="45.56373" lon="2.81917">
        <ele>1375.66</ele>
        <time>2013-07-17T11:53:03Z</time>
      </trkpt>
      <trkpt lat="45.56378" lon="2.81908">
        <ele>1373.968</ele>
        <time>2013-07-17T11:53:12Z</time>
      </trkpt>
      <trkpt lat="45.56389" lon="2.819">
        <ele>1371.16</ele>
        <time>2013-07-17T11:53:27Z</time>
      </trkpt>
      <trkpt lat="45.56395" lon="2.81891">
        <ele>1369.125</ele>
        <time>2013-07-17T11:53:36Z</time>
      </trkpt>
      <trkpt lat="45.56399" lon="2.81888">
        <ele>1368.451</ele>
        <time>2013-07-17T11:53:39Z</time>
      </trkpt>
      <trkpt lat="45.56412" lon="2.8188">
        <ele>1365.664</ele>
        <time>2013-07-17T11:53:53Z</time>
      </trkpt>
      <trkpt lat="45.56413" lon="2.81878">
        <ele>1365.619</ele>
        <time>2013-07-17T11:53:55Z</time>
      </trkpt>
      <trkpt lat="45.56417" lon="2.81873">
        <ele>1364.505</ele>
        <time>2013-07-17T11:54:01Z</time>
      </trkpt>
      <trkpt lat="45.56426" lon="2.81872">
        <ele>1362.204</ele>
        <time>2013-07-17T11:54:10Z</time>
      </trkpt>
      <trkpt lat="45.56436" lon="2.81867">
        <ele>1359.148</ele>
        <time>2013-07-17T11:54:24Z</time>
      </trkpt>
      <trkpt lat="45.56448" lon="2.81856">
        <ele>1356.023</ele>
        <time>2013-07-17T11:54:38Z</time>
      </trkpt>
      <trkpt lat="45.56451" lon="2.81851">
        <ele>1355.09</ele>
        <time>2013-07-17T11:54:44Z</time>
      </trkpt>
      <trkpt lat="45.56452" lon="2.81846">
        <ele>1353.738</ele>
        <time>2013-07-17T11:55:01Z</time>
      </trkpt>
      <trkpt lat="45.56458" lon="2.81845">
        <ele>1352.603</ele>
        <time>2013-07-17T11:55:32Z</time>
      </trkpt>
      <trkpt lat="45.56459" lon="2.81846">
        <ele>1352.677</ele>
        <time>2013-07-17T11:55:40Z</time>
      </trkpt>
      <trkpt lat="45.56464" lon="2.81849">
        <ele>1352.326</ele>
        <time>2013-07-17T11:55:58Z</time>
      </trkpt>
      <trkpt lat="45.56465" lon="2.81848">
        <ele>1351.935</ele>
        <time>2013-07-17T11:56:00Z</time>
      </trkpt>
      <trkpt lat="45.56474" lon="2.81849">
        <ele>1348.532</ele>
        <time>2013-07-17T11:56:12Z</time>
      </trkpt>
      <trkpt lat="45.56475" lon="2.81849">
        <ele>1347.933</ele>
        <time>2013-07-17T11:56:14Z</time>
      </trkpt>
      <trkpt lat="45.56487" lon="2.81848">
        <ele>1344.261</ele>
        <time>2013-07-17T11:56:25Z</time>
      </trkpt>
      <trkpt lat="45.56488" lon="2.81848">
        <ele>1344.064</ele>
        <time>2013-07-17T11:56:26Z</time>
      </trkpt>
      <trkpt lat="45.56492" lon="2.81847">
        <ele>1342.985</ele>
        <time>2013-07-17T11:56:29Z</time>
      </trkpt>
      <trkpt lat="45.56506" lon="2.81845">
        <ele>1339.706</ele>
        <time>2013-07-17T11:56:41Z</time>
      </trkpt>
      <trkpt lat="45.56517" lon="2.81846">
        <ele>1337.846</ele>
        <time>2013-07-17T11:56:49Z</time>
      </trkpt>
      <trkpt lat="45.56521" lon="2.81848">
        <ele>1337.162</ele>
        <time>2013-07-17T11:56:52Z</time>
      </trkpt>
      <trkpt lat="45.56533" lon="2.81845">
        <ele>1333.631</ele>
        <time>2013-07-17T11:57:02Z</time>
      </trkpt>
      <trkpt lat="45.56547" lon="2.81848">
        <ele>1331.107</ele>
        <time>2013-07-17T11:57:14Z</time>
      </trkpt>
      <trkpt lat="45.5655" lon="2.81845">
        <ele>1330.071</ele>
        <time>2013-07-17T11:57:17Z</time>
      </trkpt>
      <trkpt lat="45.56556" lon="2.81834">
        <ele>1327.589</ele>
        <time>2013-07-17T11:57:31Z</time>
      </trkpt>
      <trkpt lat="45.56557" lon="2.81834">
        <ele>1327.655</ele>
        <time>2013-07-17T11:57:32Z</time>
      </trkpt>
      <trkpt lat="45.5656" lon="2.81834">
        <ele>1327.36</ele>
        <time>2013-07-17T11:57:35Z</time>
      </trkpt>
      <trkpt lat="45.56562" lon="2.81833">
        <ele>1326.991</ele>
        <time>2013-07-17T11:57:54Z</time>
      </trkpt>
      <trkpt lat="45.56564" lon="2.81832">
        <ele>1325.724</ele>
        <time>2013-07-17T11:58:06Z</time>
      </trkpt>
      <trkpt lat="45.56564" lon="2.81836">
        <ele>1326.384</ele>
        <time>2013-07-17T11:58:43Z</time>
      </trkpt>
      <trkpt lat="45.56563" lon="2.81854">
        <ele>1327.181</ele>
        <time>2013-07-17T11:58:58Z</time>
      </trkpt>
      <trkpt lat="45.56562" lon="2.81864">
        <ele>1327.121</ele>
        <time>2013-07-17T11:59:05Z</time>
      </trkpt>
      <trkpt lat="45.56561" lon="2.81883">
        <ele>1327.125</ele>
        <time>2013-07-17T11:59:20Z</time>
      </trkpt>
      <trkpt lat="45.56562" lon="2.81889">
        <ele>1326.526</ele>
        <time>2013-07-17T11:59:32Z</time>
      </trkpt>
      <trkpt lat="45.56562" lon="2.81907">
        <ele>1324.687</ele>
        <time>2013-07-17T11:59:58Z</time>
      </trkpt>
      <trkpt lat="45.56564" lon="2.81917">
        <ele>1323.08</ele>
        <time>2013-07-17T12:00:10Z</time>
      </trkpt>
      <trkpt lat="45.56565" lon="2.81926">
        <ele>1321.423</ele>
        <time>2013-07-17T12:00:20Z</time>
      </trkpt>
      <trkpt lat="45.56567" lon="2.81936">
        <ele>1318.321</ele>
        <time>2013-07-17T12:00:35Z</time>
      </trkpt>
      <trkpt lat="45.56569" lon="2.8194">
        <ele>1315.286</ele>
        <time>2013-07-17T12:00:45Z</time>
      </trkpt>
      <trkpt lat="45.56573" lon="2.81946">
        <ele>1312.309</ele>
        <time>2013-07-17T12:00:55Z</time>
      </trkpt>
      <trkpt lat="45.56575" lon="2.81949">
        <ele>1309.646</ele>
        <time>2013-07-17T12:01:08Z</time>
      </trkpt>
      <trkpt lat="45.56577" lon="2.81935">
        <ele>1306.824</ele>
        <time>2013-07-17T12:01:22Z</time>
      </trkpt>
      <trkpt lat="45.56574" lon="2.81928">
        <ele>1305.224</ele>
        <time>2013-07-17T12:01:28Z</time>
      </trkpt>
      <trkpt lat="45.56574" lon="2.81923">
        <ele>1304.798</ele>
        <time>2013-07-17T12:01:30Z</time>
      </trkpt>
      <trkpt lat="45.56585" lon="2.81915">
        <ele>1302.424</ele>
        <time>2013-07-17T12:01:42Z</time>
      </trkpt>
      <trkpt lat="45.56595" lon="2.81929">
        <ele>1299.17</ele>
        <time>2013-07-17T12:01:56Z</time>
      </trkpt>
      <trkpt lat="45.56602" lon="2.81931">
        <ele>1295.985</ele>
        <time>2013-07-17T12:02:12Z</time>
      </trkpt>
      <trkpt lat="45.56605" lon="2.81937">
        <ele>1292.953</ele>
        <time>2013-07-17T12:02:28Z</time>
      </trkpt>
      <trkpt lat="45.56605" lon="2.81941">
        <ele>1289.869</ele>
        <time>2013-07-17T12:02:44Z</time>
      </trkpt>
      <trkpt lat="45.56601" lon="2.8194">
        <ele>1287.555</ele>
        <time>2013-07-17T12:02:56Z</time>
      </trkpt>
      <trkpt lat="45.56603" lon="2.81933">
        <ele>1286.527</ele>
        <time>2013-07-17T12:03:00Z</time>
      </trkpt>
      <trkpt lat="45.5661" lon="2.8194">
        <ele>1284.604</ele>
        <time>2013-07-17T12:03:12Z</time>
      </trkpt>
      <trkpt lat="45.56619" lon="2.81948">
        <ele>1282.282</ele>
        <time>2013-07-17T12:03:28Z</time>
      </trkpt>
      <trkpt lat="45.56628" lon="2.8196">
        <ele>1280.919</ele>
        <time>2013-07-17T12:03:44Z</time>
      </trkpt>
      <trkpt lat="45.56618" lon="2.81962">
        <ele>1277.681</ele>
        <time>2013-07-17T12:04:04Z</time>
      </trkpt>
      <trkpt lat="45.56624" lon="2.81958">
        <ele>1274.352</ele>
        <time>2013-07-17T12:04:16Z</time>
      </trkpt>
      <trkpt lat="45.56636" lon="2.8195">
        <ele>1272.982</ele>
        <time>2013-07-17T12:04:33Z</time>
      </trkpt>
      <trkpt lat="45.5665" lon="2.81954">
        <ele>1272.251</ele>
        <time>2013-07-17T12:04:50Z</time>
      </trkpt>
      <trkpt lat="45.56653" lon="2.81955">
        <ele>1272.663</ele>
        <time>2013-07-17T12:05:12Z</time>
      </trkpt>
      <trkpt lat="45.5665" lon="2.8197">
        <ele>1272.86</ele>
        <time>2013-07-17T12:05:42Z</time>
      </trkpt>
      <trkpt lat="45.56646" lon="2.81975">
        <ele>1272.612</ele>
        <time>2013-07-17T12:06:21Z</time>
      </trkpt>
      <trkpt lat="45.56654" lon="2.81972">
        <ele>1270.894</ele>
        <time>2013-07-17T12:06:39Z</time>
      </trkpt>
      <trkpt lat="45.56659" lon="2.81956">
        <ele>1270.128</ele>
        <time>2013-07-17T12:06:48Z</time>
      </trkpt>
      <trkpt lat="45.56666" lon="2.81943">
        <ele>1269.539</ele>
        <time>2013-07-17T12:06:52Z</time>
      </trkpt>
      <trkpt lat="45.5667" lon="2.81929">
        <ele>1267.467</ele>
        <time>2013-07-17T12:07:03Z</time>
      </trkpt>
      <trkpt lat="45.56688" lon="2.81914">
        <ele>1264.866</ele>
        <time>2013-07-17T12:07:17Z</time>
      </trkpt>
      <trkpt lat="45.56697" lon="2.8191">
        <ele>1263.419</ele>
        <time>2013-07-17T12:07:25Z</time>
      </trkpt>
      <trkpt lat="45.56703" lon="2.81915">
        <ele>1262.2</ele>
        <time>2013-07-17T12:07:42Z</time>
      </trkpt>
      <trkpt lat="45.56706" lon="2.81913">
        <ele>1260.477</ele>
        <time>2013-07-17T12:07:54Z</time>
      </trkpt>
      <trkpt lat="45.56711" lon="2.81908">
        <ele>1260.52</ele>
        <time>2013-07-17T12:07:55Z</time>
      </trkpt>
      <trkpt lat="45.56726" lon="2.81893">
        <ele>1258.057</ele>
        <time>2013-07-17T12:08:09Z</time>
      </trkpt>
      <trkpt lat="45.56735" lon="2.81882">
        <ele>1256.601</ele>
        <time>2013-07-17T12:08:21Z</time>
      </trkpt>
      <trkpt lat="45.56743" lon="2.81874">
        <ele>1256.391</ele>
        <time>2013-07-17T12:08:24Z</time>
      </trkpt>
      <trkpt lat="45.56746" lon="2.81868">
        <ele>1254.004</ele>
        <time>2013-07-17T12:08:40Z</time>
      </trkpt>
      <trkpt lat="45.56753" lon="2.81862">
        <ele>1250.941</ele>
        <time>2013-07-17T12:08:56Z</time>
      </trkpt>
      <trkpt lat="45.56763" lon="2.81842">
        <ele>1247.844</ele>
        <time>2013-07-17T12:09:12Z</time>
      </trkpt>
      <trkpt lat="45.5676" lon="2.81847">
        <ele>1247.104</ele>
        <time>2013-07-17T12:09:18Z</time>
      </trkpt>
      <trkpt lat="45.56752" lon="2.8186">
        <ele>1243.858</ele>
        <time>2013-07-17T12:09:37Z</time>
      </trkpt>
      <trkpt lat="45.56754" lon="2.81854">
        <ele>1240.812</ele>
        <time>2013-07-17T12:10:00Z</time>
      </trkpt>
      <trkpt lat="45.56741" lon="2.81849">
        <ele>1238.331</ele>
        <time>2013-07-17T12:10:14Z</time>
      </trkpt>
      <trkpt lat="45.56723" lon="2.81859">
        <ele>1235.044</ele>
        <time>2013-07-17T12:10:30Z</time>
      </trkpt>
      <trkpt lat="45.56712" lon="2.81848">
        <ele>1231.947</ele>
        <time>2013-07-17T12:10:50Z</time>
      </trkpt>
      <trkpt lat="45.56716" lon="2.81837">
        <ele>1228.944</ele>
        <time>2013-07-17T12:11:03Z</time>
      </trkpt>
      <trkpt lat="45.56713" lon="2.81819">
        <ele>1225.757</ele>
        <time>2013-07-17T12:11:21Z</time>
      </trkpt>
      <trkpt lat="45.56707" lon="2.81799">
        <ele>1222.982</ele>
        <time>2013-07-17T12:11:36Z</time>
      </trkpt>
      <trkpt lat="45.56703" lon="2.81784">
        <ele>1219.835</ele>
        <time>2013-07-17T12:11:52Z</time>
      </trkpt>
      <trkpt lat="45.56712" lon="2.8179">
        <ele>1218.085</ele>
        <time>2013-07-17T12:12:01Z</time>
      </trkpt>
      <trkpt lat="45.56705" lon="2.81788">
        <ele>1215.893</ele>
        <time>2013-07-17T12:12:16Z</time>
      </trkpt>
      <trkpt lat="45.56707" lon="2.81779">
        <ele>1213.75</ele>
        <time>2013-07-17T12:12:30Z</time>
      </trkpt>
      <trkpt lat="45.56733" lon="2.81764">
        <ele>1212.599</ele>
        <time>2013-07-17T12:12:50Z</time>
      </trkpt>
      <trkpt lat="45.56747" lon="2.81749">
        <ele>1213.616</ele>
        <time>2013-07-17T12:13:22Z</time>
      </trkpt>
      <trkpt lat="45.5673" lon="2.81757">
        <ele>1211.078</ele>
        <time>2013-07-17T12:13:45Z</time>
      </trkpt>
      <trkpt lat="45.56744" lon="2.81746">
        <ele>1209.287</ele>
        <time>2013-07-17T12:14:02Z</time>
      </trkpt>
      <trkpt lat="45.5677" lon="2.81733">
        <ele>1206.154</ele>
        <time>2013-07-17T12:14:24Z</time>
      </trkpt>
      <trkpt lat="45.56772" lon="2.81733">
        <ele>1204.99</ele>
        <time>2013-07-17T12:14:29Z</time>
      </trkpt>
      <trkpt lat="45.568" lon="2.81721">
        <ele>1201.737</ele>
        <time>2013-07-17T12:14:50Z</time>
      </trkpt>
      <trkpt lat="45.56802" lon="2.81704">
        <ele>1198.671</ele>
        <time>2013-07-17T12:15:05Z</time>
      </trkpt>
      <trkpt lat="45.56807" lon="2.8168">
        <ele>1196.258</ele>
        <time>2013-07-17T12:15:21Z</time>
      </trkpt>
      <trkpt lat="45.56823" lon="2.8166">
        <ele>1194.146</ele>
        <time>2013-07-17T12:15:40Z</time>
      </trkpt>
      <trkpt lat="45.56841" lon="2.81654">
        <ele>1192.149</ele>
        <time>2013-07-17T12:15:58Z</time>
      </trkpt>
      <trkpt lat="45.56859" lon="2.81649">
        <ele>1190.021</ele>
        <time>2013-07-17T12:16:10Z</time>
      </trkpt>
      <trkpt lat="45.56862" lon="2.81647">
        <ele>1190.037</ele>
        <time>2013-07-17T12:16:12Z</time>
      </trkpt>
      <trkpt lat="45.56869" lon="2.81632">
        <ele>1187.755</ele>
        <time>2013-07-17T12:16:24Z</time>
      </trkpt>
      <trkpt lat="45.56877" lon="2.81623">
        <ele>1186.31</ele>
        <time>2013-07-17T12:16:31Z</time>
      </trkpt>
      <trkpt lat="45.56886" lon="2.81604">
        <ele>1184.051</ele>
        <time>2013-07-17T12:16:45Z</time>
      </trkpt>
      <trkpt lat="45.56892" lon="2.81592">
        <ele>1182.259</ele>
        <time>2013-07-17T12:16:58Z</time>
      </trkpt>
      <trkpt lat="45.56914" lon="2.81586">
        <ele>1180.071</ele>
        <time>2013-07-17T12:17:13Z</time>
      </trkpt>
      <trkpt lat="45.56923" lon="2.81575">
        <ele>1177.414</ele>
        <time>2013-07-17T12:17:27Z</time>
      </trkpt>
      <trkpt lat="45.56943" lon="2.81556">
        <ele>1175.111</ele>
        <time>2013-07-17T12:17:43Z</time>
      </trkpt>
      <trkpt lat="45.56958" lon="2.81541">
        <ele>1172.49</ele>
        <time>2013-07-17T12:17:59Z</time>
      </trkpt>
      <trkpt lat="45.56966" lon="2.81532">
        <ele>1171.26</ele>
        <time>2013-07-17T12:18:06Z</time>
      </trkpt>
      <trkpt lat="45.56973" lon="2.81529">
        <ele>1169.302</ele>
        <time>2013-07-17T12:18:19Z</time>
      </trkpt>
      <trkpt lat="45.56981" lon="2.81522">
        <ele>1167.409</ele>
        <time>2013-07-17T12:18:30Z</time>
      </trkpt>
      <trkpt lat="45.56996" lon="2.81499">
        <ele>1165.242</ele>
        <time>2013-07-17T12:18:45Z</time>
      </trkpt>
      <trkpt lat="45.57" lon="2.81497">
        <ele>1164.598</ele>
        <time>2013-07-17T12:18:49Z</time>
      </trkpt>
      <trkpt lat="45.57017" lon="2.81497">
        <ele>1161.244</ele>
        <time>2013-07-17T12:19:08Z</time>
      </trkpt>
      <trkpt lat="45.57008" lon="2.81499">
        <ele>1159.136</ele>
        <time>2013-07-17T12:19:24Z</time>
      </trkpt>
      <trkpt lat="45.56981" lon="2.81499">
        <ele>1156.042</ele>
        <time>2013-07-17T12:19:43Z</time>
      </trkpt>
      <trkpt lat="45.56968" lon="2.81493">
        <ele>1155.106</ele>
        <time>2013-07-17T12:19:49Z</time>
      </trkpt>
      <trkpt lat="45.56961" lon="2.81499">
        <ele>1153.97</ele>
        <time>2013-07-17T12:19:58Z</time>
      </trkpt>
      <trkpt lat="45.56954" lon="2.81498">
        <ele>1153.187</ele>
        <time>2013-07-17T12:20:04Z</time>
      </trkpt>
      <trkpt lat="45.56945" lon="2.81497">
        <ele>1151.867</ele>
        <time>2013-07-17T12:20:11Z</time>
      </trkpt>
      <trkpt lat="45.5694" lon="2.81494">
        <ele>1151.321</ele>
        <time>2013-07-17T12:20:14Z</time>
      </trkpt>
      <trkpt lat="45.56931" lon="2.81488">
        <ele>1149.797</ele>
        <time>2013-07-17T12:20:22Z</time>
      </trkpt>
      <trkpt lat="45.56908" lon="2.81482">
        <ele>1147.989</ele>
        <time>2013-07-17T12:20:34Z</time>
      </trkpt>
      <trkpt lat="45.56897" lon="2.8148">
        <ele>1146.234</ele>
        <time>2013-07-17T12:20:45Z</time>
      </trkpt>
      <trkpt lat="45.56896" lon="2.8148">
        <ele>1146.188</ele>
        <time>2013-07-17T12:20:46Z</time>
      </trkpt>
      <trkpt lat="45.56889" lon="2.8149">
        <ele>1145.097</ele>
        <time>2013-07-17T12:20:55Z</time>
      </trkpt>
      <trkpt lat="45.56887" lon="2.81506">
        <ele>1144.157</ele>
        <time>2013-07-17T12:21:06Z</time>
      </trkpt>
      <trkpt lat="45.56887" lon="2.81507">
        <ele>1144.334</ele>
        <time>2013-07-17T12:21:07Z</time>
      </trkpt>
      <trkpt lat="45.56872" lon="2.81511">
        <ele>1143.341</ele>
        <time>2013-07-17T12:21:16Z</time>
      </trkpt>
      <trkpt lat="45.56842" lon="2.81512">
        <ele>1141.341</ele>
        <time>2013-07-17T12:21:33Z</time>
      </trkpt>
      <trkpt lat="45.56808" lon="2.81506">
        <ele>1139.195</ele>
        <time>2013-07-17T12:21:53Z</time>
      </trkpt>
      <trkpt lat="45.56794" lon="2.81494">
        <ele>1137.852</ele>
        <time>2013-07-17T12:22:03Z</time>
      </trkpt>
      <trkpt lat="45.56793" lon="2.81491">
        <ele>1137.61</ele>
        <time>2013-07-17T12:22:05Z</time>
      </trkpt>
      <trkpt lat="45.56788" lon="2.81464">
        <ele>1135.843</ele>
        <time>2013-07-17T12:22:19Z</time>
      </trkpt>
      <trkpt lat="45.56789" lon="2.81458">
        <ele>1135.036</ele>
        <time>2013-07-17T12:22:23Z</time>
      </trkpt>
      <trkpt lat="45.56795" lon="2.81451">
        <ele>1134.264</ele>
        <time>2013-07-17T12:22:29Z</time>
      </trkpt>
      <trkpt lat="45.56803" lon="2.81439">
        <ele>1133.417</ele>
        <time>2013-07-17T12:22:37Z</time>
      </trkpt>
      <trkpt lat="45.56818" lon="2.81429">
        <ele>1132.215</ele>
        <time>2013-07-17T12:22:46Z</time>
      </trkpt>
      <trkpt lat="45.56837" lon="2.81437">
        <ele>1130.642</ele>
        <time>2013-07-17T12:23:00Z</time>
      </trkpt>
      <trkpt lat="45.56852" lon="2.81448">
        <ele>1129.038</ele>
        <time>2013-07-17T12:23:14Z</time>
      </trkpt>
      <trkpt lat="45.56853" lon="2.81449">
        <ele>1128.788</ele>
        <time>2013-07-17T12:23:16Z</time>
      </trkpt>
      <trkpt lat="45.56861" lon="2.81451">
        <ele>1127.276</ele>
        <time>2013-07-17T12:23:31Z</time>
      </trkpt>
      <trkpt lat="45.56881" lon="2.81438">
        <ele>1125.151</ele>
        <time>2013-07-17T12:23:44Z</time>
      </trkpt>
      <trkpt lat="45.56881" lon="2.81437">
        <ele>1124.253</ele>
        <time>2013-07-17T12:23:47Z</time>
      </trkpt>
      <trkpt lat="45.5688" lon="2.81408">
        <ele>1121.812</ele>
        <time>2013-07-17T12:24:03Z</time>
      </trkpt>
      <trkpt lat="45.56877" lon="2.81401">
        <ele>1121.388</ele>
        <time>2013-07-17T12:24:07Z</time>
      </trkpt>
      <trkpt lat="45.56874" lon="2.81393">
        <ele>1120.637</ele>
        <time>2013-07-17T12:24:14Z</time>
      </trkpt>
      <trkpt lat="45.56858" lon="2.8139">
        <ele>1119.15</ele>
        <time>2013-07-17T12:24:29Z</time>
      </trkpt>
      <trkpt lat="45.5685" lon="2.81397">
        <ele>1118.413</ele>
        <time>2013-07-17T12:24:41Z</time>
      </trkpt>
      <trkpt lat="45.56823" lon="2.81408">
        <ele>1117.269</ele>
        <time>2013-07-17T12:24:59Z</time>
      </trkpt>
      <trkpt lat="45.56798" lon="2.81409">
        <ele>1116.179</ele>
        <time>2013-07-17T12:25:14Z</time>
      </trkpt>
      <trkpt lat="45.56777" lon="2.81398">
        <ele>1114.509</ele>
        <time>2013-07-17T12:25:28Z</time>
      </trkpt>
      <trkpt lat="45.56759" lon="2.81368">
        <ele>1112.778</ele>
        <time>2013-07-17T12:25:42Z</time>
      </trkpt>
      <trkpt lat="45.56754" lon="2.81361">
        <ele>1112.635</ele>
        <time>2013-07-17T12:25:47Z</time>
      </trkpt>
      <trkpt lat="45.56752" lon="2.81349">
        <ele>1112.414</ele>
        <time>2013-07-17T12:25:55Z</time>
      </trkpt>
      <trkpt lat="45.56739" lon="2.81356">
        <ele>1112.786</ele>
        <time>2013-07-17T12:26:09Z</time>
      </trkpt>
      <trkpt lat="45.56737" lon="2.81351">
        <ele>1112.684</ele>
        <time>2013-07-17T12:26:14Z</time>
      </trkpt>
      <trkpt lat="45.56729" lon="2.81352">
        <ele>1113.034</ele>
        <time>2013-07-17T12:26:21Z</time>
      </trkpt>
      <trkpt lat="45.56726" lon="2.81352">
        <ele>1112.721</ele>
        <time>2013-07-17T12:26:27Z</time>
      </trkpt>
      <trkpt lat="45.56718" lon="2.81359">
        <ele>1112.965</ele>
        <time>2013-07-17T12:26:35Z</time>
      </trkpt>
      <trkpt lat="45.56712" lon="2.81359">
        <ele>1113.227</ele>
        <time>2013-07-17T12:26:40Z</time>
      </trkpt>
      <trkpt lat="45.56705" lon="2.81354">
        <ele>1112.818</ele>
        <time>2013-07-17T12:26:48Z</time>
      </trkpt>
      <trkpt lat="45.56702" lon="2.81351">
        <ele>1112.684</ele>
        <time>2013-07-17T12:26:50Z</time>
      </trkpt>
      <trkpt lat="45.56702" lon="2.8135">
        <ele>1112.593</ele>
        <time>2013-07-17T12:26:52Z</time>
      </trkpt>
      <trkpt lat="45.56697" lon="2.81358">
        <ele>1112.624</ele>
        <time>2013-07-17T12:27:00Z</time>
      </trkpt>
      <trkpt lat="45.56691" lon="2.81371">
        <ele>1113.672</ele>
        <time>2013-07-17T12:27:14Z</time>
      </trkpt>
      <trkpt lat="45.56687" lon="2.81371">
        <ele>1110.488</ele>
        <time>2013-07-17T12:27:26Z</time>
      </trkpt>
      <trkpt lat="45.5668" lon="2.81372">
        <ele>1109.151</ele>
        <time>2013-07-17T12:27:34Z</time>
      </trkpt>
      <trkpt lat="45.56674" lon="2.81372">
        <ele>1109.364</ele>
        <time>2013-07-17T12:27:38Z</time>
      </trkpt>
      <trkpt lat="45.5667" lon="2.81372">
        <ele>1108.954</ele>
        <time>2013-07-17T12:27:41Z</time>
      </trkpt>
      <trkpt lat="45.56658" lon="2.81378">
        <ele>1109.053</ele>
        <time>2013-07-17T12:27:51Z</time>
      </trkpt>
      <trkpt lat="45.56648" lon="2.81377">
        <ele>1109.342</ele>
        <time>2013-07-17T12:27:58Z</time>
      </trkpt>
      <trkpt lat="45.5663" lon="2.81367">
        <ele>1109.304</ele>
        <time>2013-07-17T12:28:14Z</time>
      </trkpt>
      <trkpt lat="45.56615" lon="2.81364">
        <ele>1110.108</ele>
        <time>2013-07-17T12:28:31Z</time>
      </trkpt>
      <trkpt lat="45.56595" lon="2.81358">
        <ele>1109.997</ele>
        <time>2013-07-17T12:28:47Z</time>
      </trkpt>
      <trkpt lat="45.56583" lon="2.81349">
        <ele>1109.963</ele>
        <time>2013-07-17T12:28:58Z</time>
      </trkpt>
      <trkpt lat="45.56562" lon="2.8134">
        <ele>1110.749</ele>
        <time>2013-07-17T12:29:15Z</time>
      </trkpt>
      <trkpt lat="45.5655" lon="2.81328">
        <ele>1110.846</ele>
        <time>2013-07-17T12:29:28Z</time>
      </trkpt>
      <trkpt lat="45.56548" lon="2.8132">
        <ele>1110.484</ele>
        <time>2013-07-17T12:29:32Z</time>
      </trkpt>
      <trkpt lat="45.56549" lon="2.8131">
        <ele>1110.073</ele>
        <time>2013-07-17T12:29:38Z</time>
      </trkpt>
      <trkpt lat="45.5655" lon="2.81297">
        <ele>1108.805</ele>
        <time>2013-07-17T12:29:45Z</time>
      </trkpt>
      <trkpt lat="45.56554" lon="2.81286">
        <ele>1108.677</ele>
        <time>2013-07-17T12:29:51Z</time>
      </trkpt>
      <trkpt lat="45.56553" lon="2.81283">
        <ele>1108.4</ele>
        <time>2013-07-17T12:29:53Z</time>
      </trkpt>
      <trkpt lat="45.56551" lon="2.81278">
        <ele>1108.322</ele>
        <time>2013-07-17T12:29:57Z</time>
      </trkpt>
      <trkpt lat="45.5655" lon="2.81267">
        <ele>1107.755</ele>
        <time>2013-07-17T12:30:06Z</time>
      </trkpt>
      <trkpt lat="45.56533" lon="2.81273">
        <ele>1108.452</ele>
        <time>2013-07-17T12:30:17Z</time>
      </trkpt>
      <trkpt lat="45.56518" lon="2.81283">
        <ele>1110.292</ele>
        <time>2013-07-17T12:30:33Z</time>
      </trkpt>
      <trkpt lat="45.56496" lon="2.81285">
        <ele>1111.953</ele>
        <time>2013-07-17T12:30:53Z</time>
      </trkpt>
      <trkpt lat="45.56481" lon="2.8129">
        <ele>1113.978</ele>
        <time>2013-07-17T12:31:07Z</time>
      </trkpt>
      <trkpt lat="45.56472" lon="2.81301">
        <ele>1114.676</ele>
        <time>2013-07-17T12:31:17Z</time>
      </trkpt>
      <trkpt lat="45.56471" lon="2.81304">
        <ele>1114.903</ele>
        <time>2013-07-17T12:31:20Z</time>
      </trkpt>
      <trkpt lat="45.56468" lon="2.81307">
        <ele>1115.029</ele>
        <time>2013-07-17T12:31:23Z</time>
      </trkpt>
      <trkpt lat="45.56459" lon="2.81311">
        <ele>1115.634</ele>
        <time>2013-07-17T12:31:31Z</time>
      </trkpt>
      <trkpt lat="45.56454" lon="2.81318">
        <ele>1116.312</ele>
        <time>2013-07-17T12:31:37Z</time>
      </trkpt>
      <trkpt lat="45.56432" lon="2.81338">
        <ele>1118.336</ele>
        <time>2013-07-17T12:31:57Z</time>
      </trkpt>
      <trkpt lat="45.56428" lon="2.81349">
        <ele>1119.133</ele>
        <time>2013-07-17T12:32:08Z</time>
      </trkpt>
      <trkpt lat="45.56421" lon="2.81363">
        <ele>1119.165</ele>
        <time>2013-07-17T12:32:22Z</time>
      </trkpt>
      <trkpt lat="45.56422" lon="2.81363">
        <ele>1119.114</ele>
        <time>2013-07-17T12:32:29Z</time>
      </trkpt>
    </trkseg>
  </trk>
</gpx>